     2              OBSERVATION DATA    GPS                 RINEX VERSION / TYPE
ASRINEXO V2.9.7 UX USGS/MENLO_PARK 08-MAY-00 16:39          PGM / RUN BY / DATE
                                                            COMMENT
BIT 2 OF LLI (+4) FLAGS DATA COLLECTED UNDER "AS" CONDITION COMMENT
BIT 2 OF LLI (+4) FLAGS DATA COLLECTED UNDER "AS" CONDITION COMMENT
BIT 2 OF LLI (+4) FLAGS DATA COLLECTED UNDER "AS" CONDITION COMMENT
BIT 2 OF LLI (+4) FLAGS DATA COLLECTED UNDER "AS" CONDITION COMMENT
BIT 2 OF LLI (+4) FLAGS DATA COLLECTED UNDER "AS" CONDITION COMMENT
BIT 2 OF LLI (+4) FLAGS DATA COLLECTED UNDER "AS" CONDITION COMMENT
BIT 2 OF LLI (+4) FLAGS DATA COLLECTED UNDER "AS" CONDITION COMMENT
Original Marker Name: lae4 LAPE4__T8nR6e_S34S35_1974_SBCo   COMMENT
Campaign Name: Hector Mine Earthquake                       COMMENT
4-Character Station Name: LAE4                              COMMENT
6-Character Antenna Code: DMRCHT                            COMMENT
Vertical Measurement Point: BCR                             COMMENT
Vertical Offset to Rinex Ref. Point: 0.0348                 COMMENT
Radial Measurement Point: ECF                               COMMENT
Radial Offset to Rinex Ref. Point: 0.1897                   COMMENT
Antenna Height from Field Measurement: 1.1750 m             COMMENT
Additional Antenna Identification Info.:                    COMMENT
Turborogue and Ashtech Choke Ring                           COMMENT
Original XYZ: -2327545.8746 -4703409.6281 3614033.9331      COMMENT
New XYZ position is based on association with SCEC monument COMMENT
E1F2L0E7+0011. Position of that monument is believed to be  COMMENT
valid to within 1 m horizontally; vertical accuracy         COMMENT
should be no worse than 3-times this value.                 COMMENT
                                                            COMMENT
Revised Rinex header created by UCSD GPS archive for        COMMENT
GSAC on 16-Jun-2000 (2000:168) 04:11:47 GMT                 COMMENT
For assistance contact dagnew@ucsd.edu                      COMMENT
or anderson@python.ucsd.edu                                 COMMENT
                                                            COMMENT
T8N R6E S34S35S2S3 T7N 1974                                 MARKER NAME
GDH US GEOLOGICAL SURVEY                                    OBSERVER / AGENCY
591 ASHTECH Z-XII3 CD00                                     REC # / TYPE / VERS
805 DORNE-MARGOL. TYPE T                                    ANT # / TYPE
 -2327539.9032 -4703389.9571  3614017.2523                  APPROX POSITION XYZ
        1.1248        0.0000        0.0000                  ANTENNA: DELTA H/E/N
     1     1     0                                          WAVELENGTH FACT L1/2
     5    C1    L1    L2    P1    P2                        # / TYPES OF OBSERV
    30                                                      INTERVAL
  2000     5     3     0     1    0.000000                  TIME OF FIRST OBS
  2000     5     3    23    58   30.000000                  TIME OF LAST OBS
                                                            END OF HEADER
 00  5  3  0  1  0.0000000  0  7 23 26 03 29 06 22 21
  20750305.625   -24366247.335 9 -18708560.29348  20750305.113    20750311.5204
  22694680.697   -10987467.255 8  -8541360.08246  22694680.770    22694687.9324
  22949668.354   -13735439.789 8 -10184068.29246  22949668.075    22949675.9754
  23413353.273   -10340957.433 8  -7272608.37445  23413353.244    23413366.7714
  22698192.201    -1108992.477 8   -851127.13946  22698192.099    22698202.0654
  24482608.169    -4085923.585 7  -2990191.48645  24482607.123    24482620.0064
  22390184.240   -16235312.981 8 -11969410.98147  22390183.829    22390192.3904
 00  5  3  0  1 30.0000000  0  7 23 26 03 29 06 22 21
  20752290.560   -24355816.367 9 -18700432.24548  20752290.059    20752296.4604
  22709311.311   -10910582.635 8  -8481450.01246  22709311.411    22709318.5814
  22934142.934   -13817025.880 8 -10247641.80446  22934142.653    22934150.6224
  23393257.199   -10446561.524 8  -7354896.84445  23393257.146    23393270.5474
  22717578.081    -1007119.910 8   -771746.08846  22717577.948    22717587.9694
  24492783.736    -4032451.848 7  -2948525.38045  24492782.589    24492795.5104
  22379884.451   -16289438.442 8 -12011586.57747  22379884.039    22379892.5244
 00  5  3  0  2  0.0000000  0  7 23 26 03 29 06 22 21
  20754330.877   -24345094.226 9 -18692077.30548  20754330.396    20754336.7724
  22724027.223   -10833250.181 8  -8421190.98546  22724027.323    22724034.5084
  22918683.922   -13898263.420 8 -10310943.72146  22918683.655    22918691.5484
  23373185.386   -10552038.107 8  -7437085.96945  23373185.281    23373198.5094
  22737011.491     -904997.272 8   -692170.17646  22737011.354    22737021.3894
  24503009.269    -3978716.277 7  -2906653.70245  24503008.350    24503021.1704
  22369629.769   -16343326.587 8 -12053577.23947  22369629.338    22369637.8254
 00  5  3  0  2 30.0000000  0  7 23 26 03 29 06 22 21
  20756425.672   -24334086.042 9 -18683499.48148  20756425.166    20756431.5454
  22738827.132   -10755476.238 8  -8360587.94046  22738827.267    22738834.3894
  22903290.989   -13979153.698 8 -10373975.05146  22903290.732    22903298.5454
  23353137.687   -10657388.005 8  -7519176.38345  23353137.560    23353150.6654
  22756491.354     -802630.636 8   -612404.14746  22756491.209    22756501.2534
  24513283.983    -3924723.038 7  -2864581.24045  24513282.998    24513296.0114
  22359419.497   -16396981.386 8 -12095386.09047  22359419.106    22359427.5834
 00  5  3  0  3  0.0000000  0  7 23 26 03 29 06 22 21
  20758575.155   -24322790.365 9 -18674697.63348  20758574.638    20758581.0114
  22753711.080   -10677260.522 8  -8299640.66146  22753711.204    22753718.3574
  22887965.164   -14059690.973 8 -10436731.30246  22887964.912    22887972.8124
  23333114.997   -10762606.015 8  -7601164.03345  23333114.872    23333127.9084
  22776017.734     -700019.537 8   -532447.62846  22776017.571    22776027.6714
  24523607.802    -3870471.611 7  -2822307.59545  24523606.850    24523619.9354
  22349254.183   -16450400.184 8 -12137011.03747  22349253.784    22349262.1984
 00  5  3  0  3 30.0000000  0  7 23 26 03 29 06 22 21
  20760778.724   -24311210.508 9 -18665674.34248  20760778.222    20760784.5874
  22768678.194   -10598607.714 8  -8238352.77546  22768678.312    22768685.5534
  22872706.645   -14139874.596 8 -10499211.98946  22872706.425    22872714.3114
  23313117.552   -10867691.559 8  -7683048.46045  23313117.425    23313130.4494
  22795589.703     -597168.495 8   -452304.13946  22795589.512    22795599.7344
  24533979.872    -3815966.587 7  -2779836.35145  24533978.899    24533992.0314
  22339133.385   -16503585.292 8 -12178453.89147  22339132.980    22339141.3524
 00  5  3  0  4  0.0000000  0  7 23 26 03 29 06 22 21
  20763036.425   -24299345.946 9 -18656429.20548  20763035.929    20763042.2834
  22783728.363   -10519518.656 8  -8176724.96946  22783728.493    22783735.7614
  22857516.272   -14219700.425 8 -10561413.87246  22857516.011    22857523.8034
  23293146.150   -10972640.264 8  -7764826.27045  23293145.961    23293158.8424
  22815207.237     -494078.368 8   -371974.34546  22815207.071    22815217.2994
  24544400.011    -3761209.118 7  -2737168.37345  24544399.036    24544412.1474
  22329057.369   -16556534.912 9 -12219713.25047  22329056.946    22329065.2944
 00  5  3  0  4 30.0000000  0  7 23 26 03 29 06 22 21
  20765347.637   -24287200.551 9 -18646965.24748  20765347.129    20765353.4714
  22798860.592   -10439998.559 8  -8114761.28346  22798860.687    22798867.9334
  22842393.978   -14299168.607 8 -10623337.07246  22842393.710    22842401.4594
  23273200.753   -11077452.129 8  -7846497.45345  23273200.580    23273213.4284
  22834869.366     -390754.046 8   -291462.07946  22834869.199    22834879.4524
  24554867.239    -3706204.783 7  -2694308.05645  24554866.140    24554879.3174
  22319025.604   -16609251.898 8 -12260791.33447  22319025.180    22319033.5104
 00  5  3  0  5  0.0000000  0  7 23 26 03 29 06 22 21
  20767712.437   -24274773.359 9 -18637281.70548  20767711.922    20767718.2654
  22814074.785   -10360047.754 8  -8052461.99546  22814074.874    22814082.0594
  22827340.625   -14378274.398 8 -10684977.88446  22827340.361    22827348.0894
  23253282.331   -11182122.227 8  -7928058.16645  23253282.179    23253294.9884
  22854576.029     -287195.546 8   -210767.33746  22854575.856    22854586.1124
  24565381.232    -3650953.711 7  -2651255.49045  24565380.161    24565393.4144
  22309038.508   -16661734.136 8 -12301686.49647  22309038.084    22309046.4064
 00  5  3  0  5 30.0000000  0  7 23 26 03 29 06 22 21
  20770130.204   -24262067.903 9 -18627381.33048  20770129.689    20770136.0224
  22829369.932   -10279671.034 8  -7989830.80946  22829370.016    22829377.2504
  22812356.215   -14457017.362 8 -10746335.97346  22812355.975    22812363.7634
  23233390.987   -11286649.885 8  -8009507.90145  23233390.919    23233403.5674
  22874326.323     -183407.475 8   -129893.70446  22874326.203    22874336.4804
  24575941.365    -3595460.408 7  -2608014.13445  24575940.450    24575953.6984
  22299095.567   -16713983.979 8 -12342400.56847  22299095.168    22299103.4654
 00  5  3  0  6  0.0000000  0  7 23 26 03 29 06 22 21
  20772600.941   -24249084.097 9 -18617264.06248  20772600.408    20772606.7354
  22844745.944   -10198869.848 8  -7926868.87246  22844746.031    22844753.2534
  22797441.568   -14535393.721 8 -10807408.40546  22797441.380    22797449.1374
  23213527.530   -11391031.454 8  -8090843.80545  23213527.460    23213539.9524
  22894120.133      -79391.129 8    -48842.19446  22894119.990    22894130.3664
  24586547.352    -3539726.294 7  -2564585.16645  24586546.518    24586559.6064
  22289197.093   -16766000.584 8 -12382932.90847  22289196.670    22289204.9324
 00  5  3  0  6 30.0000000  0  7 23 26 03 29 06 22 21
  20775124.112   -24235824.745 9 -18606932.08048  20775123.571    20775129.9034
  22860201.966   -10117647.966 8  -7863579.11846  22860202.082    22860209.3204
  22782597.079   -14613402.022 8 -10868194.03146  22782596.886    22782604.6124
  23193692.188   -11495265.457 8  -8172064.73145  23193692.152    23193704.5644
  22913956.651       24849.691 8     32384.21646  22913956.498    22913966.9584
  24597198.256    -3483755.603 7  -2520971.83445  24597197.583    24597210.6124
  22279342.735   -16817785.163 8 -12423284.44347  22279342.332    22279350.5294
 00  5  3  0  7  0.0000000  0  7 23 26 03 29 06 22 21
  20777700.055   -24222287.946 9 -18596383.91148  20777699.518    20777705.8524
  22875738.171   -10036004.981 8  -7799961.23646  22875738.256    22875745.4864
  22767823.683   -14691036.701 8 -10928688.53446  22767823.504    22767831.1434
  23173886.056   -11599346.088 8  -8253166.15645  23173885.983    23173898.2654
  22933836.073      129315.899 8    113786.25246  22933835.866    22933846.4484
  24607894.349    -3427548.050 7  -2477173.95045  24607893.649    24607906.7394
  22269533.194   -16869334.435 8 -12463452.63247  22269532.783    22269540.9134
 00  5  3  0  7 30.0000000  0  7 23 26 03 29 06 22 21
  20780327.550   -24208480.104 9 -18585624.53948  20780327.019    20780333.3574
  22891352.963    -9953948.601 8  -7736021.22946  22891353.056    22891360.3234
  22753120.808   -14768300.467 8 -10988894.00846  22753120.642    22753128.3014
  23154108.634   -11703275.841 8  -8334150.01546  23154108.545    23154120.6874
  22953756.844      233999.970 8    195358.03146  22953756.655    22953767.3024
  24618634.229    -3371111.172 7  -2433197.38545  24618633.244    24618646.5074
  22259767.351   -16920653.971 9 -12503441.80347  22259766.944    22259775.0634
 00  5  3  0  8  0.0000000  0  7 23 26 03 29 06 22 21
  20783007.274   -24194397.957 9 -18574651.42448  20783006.744    20783013.0894
  22907046.798    -9871476.938 8  -7671757.62046  22907046.921    22907054.1384
  22738489.916   -14845186.116 8 -11048804.83646  22738489.781    22738497.4284
  23134361.284   -11807047.631 8  -8415010.79146  23134361.176    23134373.1554
  22973719.554      338903.916 8    277101.15546  22973719.385    22973730.0914
  24629417.994    -3314442.740 7  -2389040.36845  24629417.269    24629430.5174
  22250046.077   -16971739.474 8 -12543248.61547  22250045.644    22250053.7414
 00  5  3  0  8 30.0000000  0  7 23 26 03 29 06 22 21
  20785738.401   -24180045.676 9 -18563467.81548  20785737.873    20785744.2184
  22922818.562    -9788595.732 8  -7607174.88446  22922818.693    22922825.9314
  22723930.926   -14921694.035 8 -11108421.34146  22723930.790    22723938.3464
  23114643.798   -11910661.713 8  -8495748.69346  23114643.776    23114655.6404
  22993723.123      444022.416 8    359011.46746  22993722.926    22993733.7024
  24640244.879    -3257548.492 7  -2344707.39345  24640244.113    24640257.2034
  22240368.733   -17022593.738 9 -12582875.23747  22240368.334    22240376.4384
 00  5  3  0  9  0.0000000  0  7 23 26 03 29 06 22 21
  20788520.899   -24165423.396 9 -18552073.82348  20788520.377    20788526.7164
  22938667.989    -9705306.286 8  -7542274.03846  22938668.151    22938675.4244
  22709444.602   -14997820.386 8 -11167740.51546  22709444.419    22709451.9364
  23094957.170   -12014114.225 8  -8576360.70146  23094957.115    23094968.9384
  23013767.249      549354.065 8    441087.84846  23013767.080    23013777.8674
  24651114.265    -3200430.084 7  -2300199.76045  24651113.369    24651126.9074
  22230735.531   -17073216.156 8 -12622321.20247  22230735.123    22230743.2534
 00  5  3  0  9 30.0000000  0  7 23 26 03 29 06 22 21
  20791354.610   -24150532.161 9 -18540470.24948  20791354.085    20791360.4344
  22954594.644    -9621611.320 8  -7477057.21146  22954594.784    22954602.0494
  22695031.197   -15073562.997 8 -11226760.67146  22695031.027    22695038.5324
  23075301.811   -12117402.395 8  -8656844.66746  23075301.772    23075313.5374
  23033851.438      654896.463 8    523328.46046  23033851.266    23033862.1324
  24662025.678    -3143090.460 8  -2255519.77245  24662024.924    24662038.4094
  22221146.521   -17123606.512 8 -12661586.33947  22221146.111    22221154.2404
 00  5  3  0 10  0.0000000  0  7 23 26 03 29 06 22 21
  20794239.002   -24135374.456 9 -18528659.03748  20794238.488    20794244.8204
  22970597.834    -9537514.521 8  -7411527.24846  22970597.945    22970605.1554
  22680691.030   -15148920.331 8 -11285480.60746  22680690.894    22680698.4554
  23055678.041   -12220524.754 8  -8737199.43246  23055677.977    23055689.6274
  23053975.119      760646.485 8    605730.84846  23053974.975    23053985.8654
  24672978.597    -3085532.904 7  -2210669.95645  24672978.033    24672991.3154
  22211601.471   -17173765.942 9 -12700671.53347  22211601.059    22211609.1264
 00  5  3  0 10 30.0000000  0  7 23 26 03 29 06 22 21
  20797174.109   -24119950.222 9 -18516640.14148  20797173.616    20797179.9424
  22986677.108    -9453017.114 8  -7345685.14546  22986677.314    22986684.4094
  22666425.098   -15223888.291 8 -11343897.14846  22666424.921    22666432.4714
  23036086.603   -12323477.126 8  -8817421.74546  23036086.510    23036098.0694
  23074138.090      866602.904 8    688294.06246  23074137.977    23074148.9494
  24683972.881    -3027758.665 7  -2165651.27945  24683972.311    24683985.6864
  22202100.482   -17223693.803 9 -12739576.29547  22202100.056    22202108.0764
 00  5  3  0 11  0.0000000  0  7 23 26 03 29 06 22 21
  20800159.519   -24104261.953 9 -18504415.50548  20800159.000    20800165.3254
  23002831.931    -9368122.970 8  -7279533.88346  23002832.201    23002839.2564
  22652233.503   -15298465.577 8 -11402009.26646  22652233.306    22652240.7964
  23016527.862   -12426258.200 8  -8897510.58746  23016527.719    23016539.1534
  23094339.719      972762.255 8    771015.41446  23094339.611    23094350.6504
  24695007.635    -2969771.289 7  -2120466.55445  24695007.003    24695020.6514
  22192643.325   -17273390.968 8 -12778301.28847  22192642.903    22192650.9084
 00  5  3  0 11 30.0000000  0  7 23 26 03 29 06 22 21
  20803194.839   -24088311.219 9 -18491986.35048  20803194.308    20803200.6364
  23019061.693    -9282835.132 8  -7213075.86146  23019061.895    23019069.0474
  22638116.620   -15372649.997 8 -11459815.24946  22638116.389    22638123.8944
  22997002.109   -12528865.567 8  -8977464.07346  22997001.937    22997013.3064
  23114579.364     1079121.487 8    853892.50246  23114579.340    23114590.3504
  24706082.360    -2911574.238 8  -2075118.45045  24706081.645    24706095.4424
  22183229.989   -17322858.094 9 -12816847.03247  22183229.570    22183237.5634
 00  5  3  0 12  0.0000000  0  7 23 26 03 29 06 22 21
  20806280.023   -24072098.234 9 -18479352.84148  20806279.512    20806285.8514
  23035366.060    -9197155.320 8  -7146312.39446  23035366.259    23035373.3754
  22624075.064   -15446438.227 8 -11517312.51546  22624074.869    22624082.4014
  22977510.096   -12631295.550 8  -9057279.34446  22977509.981    22977521.2364
  23134856.753     1185679.251 8    936924.29146  23134856.792    23134867.8214
  24717196.608    -2853169.503 7  -2029608.49245  24717195.891    24717209.8014
  22173860.535   -17372094.540 9 -12855213.02647  22173860.116    22173868.0874
 00  5  3  0 12 30.0000000  0  7 23 26 03 29 06 22 21
  20809414.672   -24055625.499 9 -18466516.92948  20809414.172    20809420.5014
  23051744.246    -9111087.321 8  -7079246.44246  23051744.470    23051751.6004
  22610109.381   -15519828.766 8 -11574499.89046  22610109.127    22610116.6254
  22958052.149   -12733546.723 8  -9136955.28746  22958052.022    22958063.1604
  23155171.308     1292432.032 8   1020108.04146  23155171.368    23155182.3934
  24728349.670    -2794560.477 7  -1983939.34545  24728348.970    24728362.8004
  22164534.731   -17421101.354 9 -12893400.07947  22164534.343    22164542.3484
 00  5  3  0 13  0.0000000  0  7 23 26 03 29 06 22 21
  20812598.544   -24038894.049 9 -18453479.42648  20812598.038    20812604.3754
  23068195.796    -9024633.820 8  -7011880.10546  23068195.990    23068203.1574
  22596219.832   -15592818.966 8 -11631375.31946  22596219.553    22596227.0494
  22938628.735   -12835616.117 8  -9216489.59046  22938628.599    22938639.7204
  23175522.529     1399377.467 8   1103441.91446  23175522.589    23175533.6124
  24739541.370    -2735749.419 7  -1938112.76445  24739540.662    24739554.3564
  22155252.694   -17469878.631 9 -12931408.27547  22155252.288    22155260.3184
 00  5  3  0 13 30.0000000  0  7 23 26 03 29 06 22 21
  20815831.514   -24021904.620 9 -18440240.89748  20815831.010    20815837.3334
  23084720.378    -8937796.681 8  -6944214.83046  23084720.620    23084727.8074
  22582406.853   -15665405.816 8 -11687936.45046  22582406.575    22582414.1524
  22919240.510   -12937500.539 8  -9295879.76146  22919240.381    22919251.4614
  23195910.070     1506513.763 8   1186924.49846  23195910.105    23195921.1944
  24750770.850    -2676738.444 8  -1892130.43045  24750770.209    24750784.0424
  22146014.420   -17518425.928 9 -12969237.27047  22146014.033    22146022.0184
 00  5  3  0 14  0.0000000  0  7 23 26 03 29 06 22 21
  20819113.100   -24004659.760 9 -18426803.33248  20819112.588    20819118.9294
  23101317.198    -8850579.920 8  -6876253.74746  23101317.431    23101324.6664
  22568670.990   -15737587.944 8 -11744182.20246  22568670.764    22568678.2814
  22899887.727   -13039198.615 8  -9375124.72446  22899887.568    22899898.6154
  23216333.286     1613837.231 8   1270552.93246  23216333.306    23216344.4314
  24762037.786    -2617531.758 8  -1845995.56745  24762037.138    24762050.8744
  22136819.633   -17566744.765 9 -13006888.24247  22136819.249    22136827.1814
 00  5  3  0 14 30.0000000  0  7 23 26 03 29 06 22 21
  20822443.120   -23987160.352 9 -18413167.42248  20822442.613    20822448.9614
  23117985.829    -8762985.976 8  -6807998.76646  23117985.981    23117993.3084
  22555012.786   -15809362.397 8 -11800110.29846  22555012.520    22555019.9534
  22880570.999   -13140707.312 8  -9454222.13046  22880570.870    22880581.8464
  23236791.710     1721345.742 8   1354325.54246  23236791.674    23236802.8434
  24773341.493    -2558131.947 8  -1799710.24245  24773340.752    24773354.4674
  22127668.361   -17614834.833 9 -13044360.96147  22127667.944    22127675.8154
 00  5  3  0 15  0.0000000  0  7 23 26 03 29 06 22 21
  20825821.387   -23969407.380 9 -18399333.92948  20825820.874    20825827.2314
  23134725.698    -8675017.277 8  -6739451.75946  23134725.852    23134733.2274
  22541432.516   -15880726.987 8 -11855719.02646  22541432.271    22541439.6564
  22861290.824   -13242023.936 8  -9533169.87446  22861290.798    22861301.6414
  23257284.790     1829036.987 8   1438240.55346  23257284.786    23257296.0154
  24784681.458    -2498541.180 8  -1753276.11945  24784680.682    24784694.5674
  22118560.559   -17662696.372 9 -13081655.59647  22118560.140    22118567.9914
 00  5  3  0 15 30.0000000  0  7 23 26 03 29 06 22 21
  20829247.669   -23951402.113 9 -18385303.84348  20829247.162    20829253.5014
  23151536.365    -8586676.588 8  -6670614.90446  23151536.545    23151543.9354
  22527930.685   -15951679.074 8 -11911006.30346  22527930.469    22527937.8954
  22842047.798   -13343145.692 8  -9611965.77946  22842047.770    22842058.5134
  23277812.249     1936908.610 8   1522296.10245  23277812.245    23277823.5344
  24796057.219    -2438761.838 8  -1706695.05545  24796056.577    24796070.4114
  22109496.130   -17710330.006 9 -13118772.64647  22109495.705    22109503.5274
 00  5  3  0 16  0.0000000  0  7 23 26 03 29 06 22 21
  20832721.750   -23933145.633 9 -18371078.00748  20832721.257    20832727.5724
  23168417.395    -8497966.459 8  -6601490.15746  23168417.538    23168424.9524
  22514507.886   -16022215.890 8 -11965970.01146  22514507.681    22514515.1284
  22822842.413   -13444069.890 8  -9690607.73746  22822842.365    22822852.9794
  23298373.528     2044958.184 8   1606490.31545  23298373.511    23298384.9004
  24807468.435    -2378796.574 8  -1659969.11345  24807467.685    24807481.6304
  22100475.163   -17757735.205 9 -13155711.69847  22100474.740    22100482.5434
 00  5  3  0 16 30.0000000  0  7 23 26 03 29 06 22 21
  20836243.235   -23914640.201 9 -18356658.17648  20836242.709    20836249.0014
  23185367.988    -8408890.590 8  -6532080.42346  23185368.134    23185375.5524
  22501164.391   -16092336.132 8 -12020609.11046  22501164.198    22501171.6394
  22803674.910   -13544794.667 8  -9769094.31846  22803674.855    22803685.4764
  23318968.106     2153182.411 8   1690820.61545  23318968.074    23318979.4884
  24818914.202    -2318649.269 7  -1613101.34045  24818913.464    24818927.5894
  22091497.478   -17804913.229 9 -13192473.72747  22091497.055    22091504.8334
 00  5  3  0 17  0.0000000  0  7 23 26 03 29 06 22 21
  20839811.955   -23895886.411 9 -18342044.82148  20839811.429    20839817.7184
  23202387.792    -8319450.996 8  -6462387.27646  23202387.911    23202395.4124
  22487900.751   -16162036.711 8 -12074921.19546  22487900.580    22487907.9794
  22784545.875   -13645316.974 8  -9847423.11946  22784545.888    22784556.4754
  23339595.650     2261579.482 8   1775285.60645  23339595.564    23339607.0164
  24830394.219    -2258322.124 7  -1566093.43545  24830393.507    24830407.7864
  22082562.964   -17851864.119 9 -13229058.77047  22082562.540    22082570.3024
 00  5  3  0 17 30.0000000  0  7 23 26 03 29 06 22 21
  20843427.566   -23876886.193 9 -18327239.44748  20843427.046    20843433.3324
  23219476.129    -8229651.054 8  -6392413.34146  23219476.231    23219483.8134
  22474717.342   -16231315.927 8 -12128904.96446  22474717.157    22474724.5184
  22765455.851   -13745634.590 8  -9925592.43546  22765455.844    22765466.3954
  23360255.430     2370146.329 8   1859882.87345  23360255.322    23360266.8574
  24841907.863    -2197818.000 8  -1518947.63745  24841907.274    24841921.5544
  22073671.696   -17898587.848 9 -13265466.80647  22073671.255    22073678.9964
 00  5  3  0 18  0.0000000  0  7 23 26 03 29 06 22 21
  20847089.781   -23857641.157 9 -18312243.30448  20847089.260    20847095.5304
  23236632.520    -8139493.769 8  -6322160.94146  23236632.614    23236640.1884
  22461614.544   -16300171.615 8 -12182558.69446  22461614.328    22461621.6544
  22746405.184   -13845745.332 8 -10003600.55246  22746405.171    22746415.6194
  23380947.032     2478880.212 8   1944610.29745  23380946.877    23380958.5514
  24853454.801    -2137139.839 8  -1471666.23745  24853454.240    24853468.5104
  22064823.419   -17945085.332 9 -13301698.55247  22064822.991    22064830.7124
 00  5  3  0 18 30.0000000  0  7 23 26 03 29 06 22 21
  20850798.321   -23838152.696 9 -18297057.47948  20850797.803    20850804.0544
  23253856.324    -8048982.189 8  -6251632.48546  23253856.461    23253864.0644
  22448592.772   -16368601.318 8 -12235880.49446  22448592.523    22448599.8764
  22727394.462   -13945646.486 8 -10081445.34246  22727394.412    22727404.8064
  23401669.845     2587778.521 8   2029465.84145  23401669.671    23401681.5034
  24865034.392    -2076290.389 7  -1424251.33345  24865033.745    24865047.9384
  22056018.074   -17991357.415 9 -13337754.65047  22056017.667    22056025.3324
 00  5  3  0 19  0.0000000  0  7 23 26 03 29 06 22 21
  20854552.936   -23818421.970 9 -18281682.88248  20854552.414    20854558.6554
  23271147.177    -7958118.844 8  -6180829.90746  23271147.240    23271154.8004
  22435652.454   -16436602.673 8 -12288868.51346  22435652.251    22435659.6024
  22708424.073   -14045335.567 8 -10159124.90546  22708424.026    22708434.3444
  23422423.518     2696838.766 8   2114447.55945  23422423.373    23422435.2514
  24876645.862    -2015272.835 7  -1376705.45845  24876645.057    24876659.5984
  22047255.778   -18037403.328 9 -13373634.52247  22047255.363    22047262.9984
 00  5  3  0 19 30.0000000  0  6 23 26 03 29 06 21
  20858354.441   -23798444.960 9 -18266116.37448  20858353.912    20858360.1434
  23288505.364    -7866901.175 8  -6109751.24646  23288505.463    23288513.0414
  22422795.191   -16504167.946 8 -12341516.73746  22422795.002    22422802.3444
  22689495.527   -14144804.632 8 -10236633.02146  22689495.509    22689505.7564
  23443208.679     2806063.989 8   2199557.83445  23443208.543    23443220.3924
  22038537.441   -18083218.497 9 -13409334.58747  22038537.028    22038544.6334
 00  5  3  0 20  0.0000000  0  6 23 26 03 29 06 21
  20862202.005   -23778225.823 9 -18250361.19848  20862201.478    20862207.7154
  23305929.871    -7775334.782 8  -6038400.84546  23305929.991    23305937.5424
  22410020.859   -16571297.630 8 -12393825.54946  22410020.645    22410027.9104
  22670608.812   -14244054.028 8 -10313969.96046  22670608.774    22670618.9934
  23464024.147     2915448.824 8   2284792.49045  23464024.023    23464035.9244
  22029862.245   -18128806.775 9 -13444857.85947  22029861.804    22029869.4314
 00  5  3  0 20 30.0000000  0  7 09 23 26 03 29 06 21
  24466531.060    -2469749.855 7  -1909816.51445  24466530.854    24466543.0694
  20866094.171   -23757772.356 9 -18234423.42648  20866093.634    20866099.8584
  23323419.073    -7683428.793 8  -5966785.82146  23323419.143    23323426.7004
  22397328.598   -16637995.789 8 -12445798.10346  22397328.382    22397335.6104
  22651763.279   -14343087.135 8 -10391138.37846  22651763.181    22651773.3514
  23484868.367     3024984.542 8   2370144.69845  23484868.193    23484880.1824
  22021229.072   -18174173.862 9 -13480208.75647  22021228.651    22021236.3214
 00  5  3  0 21  0.0000000  0  7 09 23 26 03 29 06 21
  24454660.614    -2532128.475 7  -1958422.99745  24454660.382    24454672.6904
  20870031.130   -23737083.566 9 -18218302.28848  20870030.589    20870036.8244
  23340972.686    -7591184.213 8  -5894906.96946  23340972.770    23340980.2564
  22384719.231   -16704258.252 8 -12497431.15346  22384719.031    22384726.2594
  22632959.613   -14441899.903 8 -10468135.10546  22632959.568    22632969.6394
  23505741.132     3134670.311 8   2455613.82445  23505740.934    23505752.9204
  22012638.280   -18219318.514 9 -13515386.34547  22012637.858    22012645.5254
 00  5  3  0 21 30.0000000  0  7 09 23 26 03 29 06 21
  24442831.885    -2594287.720 7  -2006858.54445  24442831.630    24442844.0724
  20874012.724   -23716160.120 9 -18201998.29848  20874012.182    20874018.4044
  23358590.379    -7498603.081 8  -5822765.86346  23358590.544    23358597.8714
  22372193.298   -16770081.855 8 -12548722.22746  22372193.123    22372200.3784
  22614198.560   -14540488.924 8 -10544957.48646  22614198.517    22614208.4884
  23526642.050     3244504.467 8   2541198.57945  23526641.884    23526653.9494
  22004089.893   -18264240.288 9 -13550390.26147  22004089.466    22004097.0614
 00  5  3  0 22  0.0000000  0  7 09 23 26 03 29 06 21
  24431045.464    -2656224.587 7  -2055120.80945  24431045.280    24431057.6714
  20878038.652   -23695003.688 9 -18185512.76048  20878038.135    20878044.3404
  23376271.507    -7405688.427 8  -5750364.86046  23376271.675    23376278.9304
  22359751.381   -16835464.585 8 -12599669.77646  22359751.197    22359758.4654
  22595480.525   -14638851.737 8 -10621603.60646  22595480.505    22595490.4574
  23547570.829     3354484.374 8   2626896.88945  23547570.675    23547582.7064
  21995583.908   -18308939.478 9 -13585220.73847  21995583.445    21995590.9874
 00  5  3  0 22 30.0000000  0  7 09 23 26 03 29 06 21
  24419302.269    -2717935.397 7  -2103206.95945  24419302.039    24419314.2244
  20882108.789   -23673614.937 9 -18168846.19648  20882108.257    20882114.4564
  23394015.613    -7312442.429 8  -5677705.67245  23394015.839    23394023.0544
  22347393.843   -16900403.913 8 -12650271.81146  22347393.641    22347400.8744
  22576806.173   -14736985.465 8 -10698071.22346  22576806.123    22576816.0134
  23568526.888     3464607.916 8   2712707.13545  23568526.718    23568538.7184
  21987120.233   -18353416.149 9 -13619877.82147  21987119.784    21987127.3124
 00  5  3  0 23  0.0000000  0  7 09 23 26 03 29 06 21
  24407602.742    -2779415.979 7  -2151113.68845  24407602.589    24407614.5904
  20886223.124   -23651993.905 9 -18151998.63148  20886222.579    20886228.7954
  23411822.458    -7218866.915 8  -5604789.71745  23411822.692    23411829.9614
  22335121.298   -16964896.177 8 -12700525.48546  22335121.117    22335128.3484
  22558176.053   -14834886.317 8 -10774357.38046  22558176.011    22558185.8804
  23589509.971     3574873.689 8   2798628.19145  23589509.811    23589521.9574
  21978698.959   -18397669.477 9 -13654360.86447  21978698.544    21978706.1554
 00  5  3  0 23 30.0000000  0  7 09 23 26 03 29 06 21
  24395947.545    -2840663.516 8  -2198838.82145  24395947.388    24395959.5024
  20890381.324   -23630142.451 9 -18134971.51948  20890380.780    20890386.9974
  23429691.400    -7124965.101 8  -5531619.49845  23429691.592    23429698.9214
  22322934.172   -17028939.600 8 -12750429.41746  22322933.984    22322941.2434
  22539590.640   -14932552.344 8 -10850460.56146  22539590.577    22539600.4174
  23610519.621     3685278.821 8   2884657.84845  23610519.457    23610531.6324
  21970320.071   -18441700.392 9 -13688670.59747  21970319.654    21970327.3214
 00  5  3  0 24  0.0000000  0  7 09 23 26 03 29 06 21
  24384337.177    -2901675.736 7  -2246380.60745  24384336.986    24384349.0244
  20894583.022   -23608062.380 9 -18117766.26948  20894582.492    20894588.7054
  23447621.814    -7030740.328 8  -5458197.62845  23447621.919    23447629.3184
  22310832.794   -17092532.530 8 -12799982.30747  22310832.592    22310839.8794
  22521050.336   -15029981.431 8 -10926379.12346  22521050.312    22521060.0664
  23631555.223     3795820.265 8   2970793.71545  23631554.944    23631567.2434
  21961983.390   -18485509.734 9 -13722807.68647  21961982.986    21961990.6274
 00  5  3  0 24 30.0000000  0  7 09 23 26 03 29 06 21
  24372772.296    -2962448.525 7  -2293735.79945  24372772.131    24372784.0884
  20898828.103   -23585754.280 9 -18100383.33248  20898827.573    20898833.7904
  23465613.320    -6936194.736 8  -5384525.77045  23465613.444    23465620.7454
  22298817.801   -17155672.004 8 -12849181.86447  22298817.600    22298824.8644
  22502555.754   -15127170.233 8 -11002110.45046  22502555.736    22502565.4674
  23652616.372     3906496.217 8   3057034.39145  23652616.164    23652628.5204
  21953689.013   -18529096.933 9 -13756771.68147  21953688.598    21953696.1724
 00  5  3  0 25  0.0000000  0  7 09 23 26 03 29 06 21
  24361253.364    -3022979.998 7  -2340902.96445  24361253.245    24361264.9874
  20903116.080   -23563220.765 9 -18082824.74548  20903115.554    20903121.7544
  23483665.086    -6841332.141 8  -5310606.89145  23483665.237    23483672.4894
  22286889.231   -17218357.222 8 -12898027.45847  22286889.008    22286896.2434
  22484107.111   -15224117.484 8 -11077653.55546  22484107.087    22484116.7774
  23673702.447     4017302.930 8   3143376.96145  23673702.256    23673714.6714
  21945436.621   -18572463.231 9 -13790563.54247  21945436.181    21945443.7264
 00  5  3  0 25 30.0000000  0  7 09 23 26 03 29 06 21
  24349780.988    -3083266.893 7  -2387879.55445  24349780.899    24349792.5864
  20907446.766   -23540462.804 9 -18065091.26448  20907446.236    20907452.4374
  23501776.572    -6746155.561 8  -5236443.37045  23501776.709    23501784.0234
  22275047.497   -17280585.838 8 -12946517.25347  22275047.236    22275054.4974
  22465704.938   -15320820.784 8 -11153006.57246  22465704.917    22465714.5104
  23694812.942     4128237.953 8   3229819.50545  23694812.762    23694825.2034
  21937226.107   -18615609.231 9 -13824183.73647  21937225.675    21937233.2394
 00  5  3  0 26  0.0000000  0  7 09 23 26 03 29 06 21
  24338355.593    -3143306.161 7  -2434663.14945  24338355.298    24338367.1674
  20911819.954   -23517481.624 9 -18047183.84848  20911819.419    20911825.6104
  23519947.309    -6650667.506 8  -5162037.12445  23519947.409    23519954.7624
  22263293.068   -17342355.262 8 -12994649.23547  22263292.843    22263300.1274
  22447349.777   -15417277.140 8 -11228167.17946  22447349.734    22447359.2514
  23715947.369     4239298.930 8   3316360.17745  23715947.161    23715959.6664
  21929057.627   -18658534.743 9 -13857632.12847  21929057.190    21929064.7824
 00  5  3  0 26 30.0000000  0  7 09 23 26 03 29 06 21
  24326978.145    -3203094.030 7  -2481250.84245  24326977.884    24326989.8194
  20916235.419   -23494278.160 9 -18029103.22348  20916234.882    20916241.0954
  23538176.881    -6554870.486 8  -5087390.13545  23538176.949    23538184.3304
  22251626.527   -17403663.210 8 -13042421.63347  22251626.300    22251633.5284
  22429042.121   -15513483.845 8 -11303133.25146  22429042.038    22429051.4674
  23737105.345     4350483.747 8   3402997.35145  23737105.194    23737117.7104
  21920930.971   -18701240.420 9 -13890909.22447  21920930.536    21920938.1104
 00  5  3  0 27  0.0000000  0  7 09 23 26 03 29 06 21
  24315648.789    -3262627.886 7  -2527640.61745  24315648.698    24315660.5544
  20920692.849   -23470854.095 9 -18010850.69648  20920692.316    20920698.5164
  23556464.634    -6458767.568 8  -5012504.78045  23556464.789    23556472.1204
  22240048.179   -17464507.999 8 -13089833.12847  22240047.945    22240055.1104
  22410782.395   -15609438.599 8 -11377902.99846  22410782.309    22410791.6724
  23758286.363     4461789.453 8   3489728.70845  23758286.130    23758298.7794
  21912846.105   -18743726.622 9 -13924015.29747  21912845.643    21912853.2094
 00  5  3  0 27 30.0000000  0  7 09 23 26 03 29 06 21
  24304368.561    -3321904.401 7  -2573829.83745  24304368.436    24304380.3664
  20925192.054   -23447210.609 9 -17992427.19448  20925191.521    20925197.7454
  23574810.138    -6362361.628 8  -4937383.31345  23574810.219    23574817.6124
  22228558.431   -17524886.961 8 -13136881.63847  22228558.209    22228565.3594
  22392571.030   -15705139.114 8 -11452474.64046  22392570.936    22392580.2274
  23779489.859     4573213.547 8   3576552.33445  23779489.731    23779502.5234
  21904802.826   -18785993.946 9 -13956950.81947  21904802.371    21904809.9194
 00  5  3  0 28  0.0000000  0  7 09 23 26 03 29 06 21
  24293137.913    -3380921.095 7  -2619816.63345  24293137.781    24293149.6294
  20929732.672   -23423349.290 9 -17973833.95348  20929732.138    20929738.3754
  23593212.637    -6265655.674 8  -4862028.05245  23593212.728    23593220.2074
  22217157.616   -17584798.332 8 -13183565.78447  22217157.402    22217164.6194
  22374408.525   -15800582.889 8 -11526846.21946  22374408.450    22374417.6914
  23800715.424     4684753.344 7   3663466.10945  23800715.307    23800728.2344
  21896801.154   -18828042.655 9 -13989715.99547  21896800.690    21896808.2144
 00  5  3  0 28 30.0000000  0  7 09 23 26 03 29 06 21
  24281957.490    -3439674.592 7  -2665598.33645  24281957.241    24281969.1114
  20934314.558   -23399271.321 9 -17955071.89348  20934314.026    20934320.2704
  23611671.768    -6168652.461 8  -4786441.18645  23611671.930    23611679.2904
  22205846.081   -17644240.243 8 -13229884.11847  22205845.883    22205853.1544
  22356295.326   -15895767.572 8 -11601015.91946  22356295.249    22356304.4324
  23821962.465     4796406.433 7   3750468.16145  23821962.368    23821975.4224
  21888840.985   -18869873.491 9 -14022311.40047  21888840.531    21888848.0144
 00  5  3  0 29  0.0000000  0  7 09 23 26 03 29 06 21
  24270827.623    -3498162.092 7  -2711172.77445  24270827.366    24270839.0414
  20938937.360   -23374978.193 9 -17936142.17748  20938936.816    20938943.0764
  23630186.823    -6071355.413 8  -4710625.35445  23630186.882    23630194.3684
  22194624.322   -17703210.697 8 -13275835.08647  22194624.131    22194631.3964
  22338231.864   -15990690.987 8 -11674982.03946  22338231.784    22338240.9064
  23843230.570     4908169.975 7   3837556.26945  23843230.335    23843243.5704
  21880922.215   -18911486.835 9 -14054737.33747  21880921.763    21880929.2254
 00  5  3  0 29 30.0000000  0  7 09 23 26 03 29 06 21
  24259748.906    -3556380.412 7  -2756537.46245  24259748.726    24259760.2514
  20943600.886   -23350471.190 9 -17917045.80448  20943600.347    20943606.6034
  23648757.284    -5973767.143 8  -4634582.59945  23648757.326    23648764.8614
  22183492.803   -17761707.600 8 -13321417.05747  22183492.588    22183499.7304
  22320218.629   -16085350.605 8 -11748742.59346  22320218.514    22320227.5974
  23864519.252     5020041.368 8   3924728.40345  23864519.087    23864532.3964
  21873044.691   -18952883.398 9 -14086994.34347  21873044.237    21873051.7134
 00  5  3  0 30  0.0000000  0  7 09 23 26 03 29 06 21
  24248722.014    -3614326.970 8  -2801690.41145  24248721.759    24248733.1294
  20948304.853   -23325751.696 9 -17897783.85848  20948304.311    20948310.5914
  23667382.675    -5875890.474 8  -4558315.11945  23667382.732    23667390.2434
  22172451.760   -17819728.841 8 -13366628.38547  22172451.481    22172458.5604
  22302256.027   -16179743.904 8 -11822295.63446  22302255.940    22302264.9774
  23885827.994     5132018.133 8   4011982.65545  23885827.785    23885841.2664
  21865208.388   -18994062.966 9 -14119082.26847  21865207.942    21865215.4384
 00  5  3  0 30 30.0000000  0  7 09 23 26 03 29 06 21
  24237747.303    -3671998.782 8  -2846629.28345  24237747.097    24237758.3124
  20953048.949   -23300821.154 9 -17878357.45448  20953048.406    20953054.6824
  23686062.282    -5777728.425 8  -4481825.26145  23686062.420    23686069.9514
  22161501.465   -17877272.534 8 -13411467.58447  22161501.202    22161508.2964
  22284344.521   -16273868.777 8 -11895639.51346  22284344.449    22284353.4104
  23907156.440     5244097.655 8   4099316.97745  23907156.240    23907169.7184
  21857413.211   -19035026.681 9 -14151001.99347  21857412.778    21857420.2114
 00  5  3  0 31  0.0000000  0  7 09 23 26 03 29 06 21
  24226825.563    -3729392.211 8  -2891351.22345  24226825.328    24226836.4474
  20957833.136   -23275680.131 9 -17858767.04048  20957832.594    20957838.8734
  23704795.864    -5679283.247 8  -4405114.78545  23704795.981    23704803.4844
  22150642.493   -17934336.128 8 -13455932.67547  22150642.280    22150649.4804
  22266484.667   -16367722.140 8 -11968771.82946  22266484.614    22266493.5084
  23928503.925     5356277.859 8   4186729.75845  23928503.701    23928517.2614
  21849659.121   -19075774.558 9 -14182753.53447  21849658.706    21849666.0564
 00  5  3  0 31 30.0000000  0  7 09 23 26 03 29 06 21
  24215957.267    -3786504.708 8  -2935854.25045  24215957.052    24215968.1824
  20962656.964   -23250330.613 9 -17839014.16248  20962656.435    20962662.7154
  23723582.681    -5580558.607 8  -4328186.55545  23723582.805    23723590.2204
  22139875.229   -17990918.387 8 -13500022.69847  22139874.993    22139882.2564
  22248676.852   -16461302.122 8 -12041691.12046  22248676.792    22248685.6504
  23949869.938     5468555.685 7   4274218.59045  23949869.719    23949883.3834
  21841945.982   -19116307.203 9 -14214337.36347  21841945.566    21841952.9114
 00  5  3  0 32  0.0000000  0  7 09 23 26 03 29 06 21
  24205143.064    -3843333.081 8  -2980135.89945  24205142.819    24205153.9184
  20967520.257   -23224773.705 9 -17819099.68248  20967519.728    20967526.0234
  23742422.224    -5481557.072 8  -4251042.55045  23742422.243    23742429.6634
  22129200.001   -18047017.166 8 -13543735.99547  22129199.794    22129206.9874
  22230921.546   -16554606.349 8 -12114395.54246  22230921.483    22230930.3264
  23971254.093     5580928.803 8   4361781.66745  23971253.936    23971267.6424
  21834273.799   -19156624.364 9 -14245753.27247  21834273.397    21834280.7914
 00  5  3  0 32 30.0000000  0  7 09 23 26 03 29 06 21
  24194383.410    -3899874.703 8  -3024194.09945  24194383.188    24194394.2064
  20972422.734   -23199010.900 9 -17799024.76048  20972422.194    20972428.5204
  23761313.660    -5382281.736 8  -4173685.20045  23761313.675    23761321.1044
  22118617.179   -18102630.731 8 -13587071.19847  22118616.920    22118624.0294
  22213219.129   -16647632.490 8 -12186883.27346  22213219.049    22213227.8784
  23992655.763     5693394.166 8   4449416.63745  23992655.620    23992669.4714
  21826642.381   -19196727.499 9 -14277002.40947  21826641.970    21826649.3874
 00  5  3  0 33  0.0000000  0  7 09 23 26 03 29 06 21
  24183679.019    -3956125.959 8  -3068026.04945  24183678.758    24183689.7624
  20977364.267   -23173043.010 9 -17778790.03848  20977363.743    20977370.0454
  23780256.756    -5282735.026 8  -4096116.38745  23780256.841    23780264.3014
  22108127.028   -18157756.536 8 -13630026.34147  22108126.783    22108133.8164
  22195570.155   -16740377.749 8 -12259152.14746  22195570.087    22195578.8744
  24014074.696     5805949.897 8   4537122.01945  24014074.561    24014088.5264
  21819051.796   -19236616.238 9 -14308084.49247  21819051.385    21819058.7274
 00  5  3  0 33 30.0000000  0  7 09 23 26 03 29 06 21
  24173030.329    -4012083.987 8  -3111629.51045  24173030.080    24173041.1784
  20982344.523   -23146871.469 9 -17758396.62548  20982343.986    20982350.3184
  23799251.052    -5182919.831 8  -4018338.37645  23799251.071    23799258.5104
  22097729.946   -18212392.749 8 -13672599.96147  22097729.720    22097736.7834
  22177975.038   -16832840.041 8 -12331200.52646  22177974.957    22177983.7014
  24035510.337     5918593.270 8   4624895.69745  24035510.233    24035524.1914
  21811501.985   -19276290.661 9 -14338999.57147  21811501.532    21811508.8084
 00  5  3  0 34  0.0000000  0  7 09 23 26 03 29 06 21
  24162438.067    -4067746.002 8  -3155002.32745  24162437.852    24162448.8704
  20987363.265   -23120497.687 9 -17737845.62448  20987362.731    20987369.0544
  23818295.841    -5082839.304 8  -3940353.60045  23818295.817    23818303.2904
  22087426.420   -18266537.712 8 -13714790.80247  22087426.243    22087433.3274
  22160434.248   -16925016.677 8 -12403026.31446  22160434.171    22160442.9114
  24056962.035     6031321.412 8   4712735.43945  24056961.981    24056975.9884
  21803992.621   -19315752.170 9 -14369748.74147  21803992.171    21803999.4524
 00  5  3  0 34 30.0000000  0  7 09 23 26 03 29 06 21
  24151902.729    -4123109.332 8  -3198142.42445  24151902.506    24151913.3844
  20992420.266   -23093923.030 9 -17717138.09748  20992419.730    20992426.0104
  23837390.544    -4982496.342 8  -3862164.34345  23837390.557    23837397.9674
  22077216.844   -18320189.575 9 -13756597.41047  22077216.661    22077223.7234
  22142948.161   -17016905.945 8 -12474628.18246  22142948.106    22142956.8044
  24078429.406     6144131.641 7   4800639.11145  24078429.310    24078443.4494
  21796523.753   -19355000.983 9 -14400332.17247  21796523.331    21796530.6354
 00  5  3  0 35  0.0000000  0  7 09 23 26 03 29 06 21
  24141424.660    -4178170.861 8  -3241047.35345  24141424.440    24141435.2664
  20997515.274   -23067148.755 9 -17696275.02348  20997514.723    20997521.0084
  23856534.483    -4881893.946 8  -3783772.92145  23856534.465    23856541.9744
  22067101.534   -18373346.363 9 -13798018.24347  22067101.294    22067108.3484
  22125517.245   -17108505.136 8 -12546004.02946  22125517.223    22125525.8664
  24099911.813     6257021.479 7   4888604.80245  24099911.608    24099926.0974
  21789095.303   -19394037.554 9 -14430750.22247  21789094.883    21789102.1934
 00  5  3  0 35 30.0000000  0  7 09 23 26 03 29 06 21
  24131004.720    -4232927.247 8  -3283714.49045  24131004.573    24131015.1694
  21002648.036   -23040175.823 9 -17675257.15348  21002647.490    21002653.7894
  23875727.374    -4781034.478 8  -3705181.18445  23875727.419    23875734.9754
  22057080.656   -18426006.152 8 -13839051.81247  22057080.451    22057087.4874
  22108142.110   -17199811.699 8 -12617151.85146  22108142.052    22108150.6494
  24121408.926     6369988.688 7   4976630.75345  24121408.756    24121423.3384
  21781707.221   -19432862.326 9 -14461003.22747  21781706.768    21781714.0704
 00  5  3  0 36  0.0000000  0  7 09 23 26 03 29 06 21
  24120643.433    -4287375.709 8  -3326141.70645  24120643.206    24120653.7584
  21007818.292   -23013005.773 9 -17654085.68548  21007817.770    21007824.0584
  23894968.632    -4679921.069 8  -3626391.56345  23894968.727    23894976.1834
  22047154.667   -18478166.993 8 -13879696.58747  22047154.443    22047161.5334
  22090823.059   -17290823.475 8 -12688069.96946  22090822.952    22090831.4884
  24142920.331     6483030.589 7   5064714.93945  24142920.283    24142934.8064
  21774359.205   -19471476.063 9 -14491091.79547  21774358.765    21774366.0304
 00  5  3  0 36 30.0000000  0  7 09 23 26 03 29 06 21
  24110341.198    -4341513.726 8  -3368327.00545  24110340.869    24110351.4244
  21013025.761   -22985640.187 9 -17632761.85248  21013025.245    21013031.5464
  23914257.572    -4578556.901 8  -3547406.56645  23914257.684    23914265.2004
  22037323.948   -18529827.378 8 -13919951.39347  22037323.718    22037330.7974
  22073560.472   -17381538.400 8 -12758756.78046  22073560.382    22073568.8714
  24164445.479     6596144.474 7   5152855.23545  24164445.622    24164460.0154
  21767051.165   -19509879.396 9 -14521016.41647  21767050.764    21767058.0214
 00  5  3  0 37  0.0000000  0  7 09 23 26 03 29 06 21
  24100098.494    -4395339.055 8  -3410268.65245  24100098.149    24100108.5174
  21018270.128   -22958080.951 9 -17611287.12248  21018269.605    21018275.8964
  23933593.550    -4476945.314 7  -3468228.77145  23933593.728    23933601.2264
  22027588.665   -18580986.336 9 -13959815.49747  22027588.478    22027595.4584
  22056354.604   -17471954.870 8 -12829211.02546  22056354.534    22056363.0234
  24185983.761     6709327.373 7   5241049.29945  24185983.861    24185998.2644
  21759783.238   -19548072.578 9 -14550777.28047  21759782.846    21759790.0794
 00  5  3  0 37 30.0000000  0  7 09 23 26 03 29 06 21
  24089916.211    -4448846.303 8  -3451962.43345  24089915.869    24089926.0604
  21023551.563   -22930327.006 9 -17589660.67047  21023551.038    21023557.3114
  23952976.556    -4375087.154 7  -3388858.83545  23952976.650    23952984.2774
  22017949.757   -18631639.613 9 -13999285.55447  22017949.551    22017956.4494
  22039206.472   -17562068.260 8 -12899429.10946  22039206.415    22039214.8854
  24207534.967     6822578.564 7   5329296.57745  24207535.191    24207549.5354
  21752555.457   -19586054.707 9 -14580373.68947  21752555.050    21752562.3164
 00  5  3  0 38  0.0000000  0  8 09 23 26 03 29 06 21 15
  24079794.209    -4502037.055 8  -3493409.59745  24079793.846    24079804.0184
  21028868.976   -22902383.862 9 -17567886.79047  21028868.437    21028874.7224
  23972405.241    -4272989.469 7  -3309302.25445  23972405.269    23972412.8654
  22008406.498   -18681790.006 9 -14038363.76147  22008406.267    22008413.1644
  22022115.646   -17651880.609 8 -12969412.61446  22022115.587    22022124.0094
  24229097.967     6935891.177 7   5417591.70345  24229098.125    24229112.7514
  21745366.855   -19623830.723 9 -14609809.49247  21745366.456    21745373.7214
  24279461.262    -4757940.714 7  -3472657.13645  24279460.559    24279471.1934
 00  5  3  0 38 30.0000000  0  8 09 23 26 03 29 06 21 15
  24069732.872    -4554908.879 8  -3534608.23445  24069732.571    24069742.6244
  21034221.981   -22874253.615 9 -17545967.11547  21034221.441    21034227.7144
  23991878.662    -4170655.829 7  -3229561.80845  23991878.738    23991886.4004
  21998959.110   -18731436.315 8 -14077049.17047  21998958.888    21998965.8474
  22005082.421   -17741390.290 8 -13039160.26946  22005082.349    22005090.7254
  24250672.115     7049262.143 7   5505932.28245  24250672.128    24250687.0354
  21738217.309   -19661401.477 9 -14639085.35347  21738216.916    21738224.1494
  24262068.916    -4849337.440 7  -3543875.24045  24262068.170    24262078.8254
 00  5  3  0 39  0.0000000  0  8 09 23 26 03 29 06 21 15
  24059733.941    -4607452.855 8  -3575551.41345  24059733.703    24059743.6934
  21039611.599   -22845931.067 9 -17523897.59247  21039611.070    21039617.3314
  24011397.731    -4068082.725 7  -3149634.75845  24011397.925    24011405.3674
  21989609.071   -18780570.306 8 -14115335.36447  21989608.851    21989615.9274
  21988108.418   -17830588.685 8 -13108665.36446  21988108.349    21988116.6594
  24272258.121     7162695.087 7   5594321.16045  24272258.024    24272272.9744
  21731108.021   -19698761.060 9 -14668196.66547  21731107.617    21731114.7854
  24244669.701    -4940769.915 7  -3615121.17445  24244668.905    24244679.6074
 00  5  3  0 39 30.0000000  0  8 09 23 26 03 29 06 21 15
  24049797.649    -4659667.446 8  -3616237.92345  24049797.353    24049807.2554
  21045037.252   -22817419.034 9 -17501680.42247  21045036.714    21045042.9664
  24030961.463    -3965274.730 8  -3069524.69445  24030961.631    24030969.1634
  21980356.551   -18829192.078 8 -14153222.43647  21980356.366    21980363.4634
  21971193.798   -17919475.146 8 -13177927.39946  21971193.719    21971202.0004
  24293855.097     7276185.884 8   5682755.12845  24293855.062    24293870.0584
  21724038.492   -19735911.646 9 -14697145.12847  21724038.051    21724045.2014
  24227263.495    -5032238.729 7  -3686395.43445  24227262.905    24227273.4644
 00  5  3  0 40  0.0000000  0  9 09 23 26 03 29 06 21 15 31
  24039924.146    -4711552.158 7  -3656667.39345  24039923.808    24039933.8424
  21050498.334   -22788720.830 9 -17479318.18347  21050497.804    21050504.0604
  24050569.005    -3862236.592 7  -2989235.27745  24050569.098    24050576.6254
  21971201.615   -18877301.714 9 -14190710.45047  21971201.414    21971208.4164
  21954338.543   -18008049.547 8 -13246946.26647  21954338.448    21954346.6894
  24315462.216     7389730.061 8   5771230.69145  24315462.196    24315477.1514
  21717008.215   -19772855.631 9 -14725932.59447  21717007.788    21717015.0024
  24209850.340    -5123745.070 8  -3757698.93145  24209849.820    24209860.2184
  24496842.222    -4620401.685 7  -3093676.49545  24496841.669    24496850.5774
 00  5  3  0 40 30.0000000  0  9 09 23 26 03 29 06 21 15 31
  24030113.746    -4763105.243 8  -3696838.46245  24030113.480    24030123.4144
  21055994.351   -22759838.940 9 -17456812.80647  21055993.829    21056000.0704
  24070219.612    -3758972.462 8  -2908769.78045  24070219.762    24070227.2574
  21962144.238   -18924898.791 9 -14227799.07247  21962144.044    21962150.9104
  21937542.970   -18096310.520 8 -13315720.90747  21937542.895    21937551.0394
  24337078.707     7503323.721 8   5859744.83345  24337078.630    24337093.6924
  21710016.917   -19809594.751 9 -14754560.42347  21710016.509    21710023.7474
  24192430.180    -5215289.485 8  -3829032.15245  24192429.569    24192439.9064
  24479401.451    -4712053.781 7  -3165093.60445  24479400.963    24479409.8334
 00  5  3  0 41  0.0000000  0  9 09 23 26 03 29 06 21 15 31
  24020367.787    -4814320.086 7  -3736745.95745  24020367.337    24020377.3654
  21061525.801   -22730771.051 9 -17434162.49747  21061525.270    21061531.5314
  24089913.337    -3655481.582 8  -2828127.56645  24089913.520    24089921.0084
  21953185.337   -18971978.382 9 -14264484.45847  21953185.106    21953191.9044
  21920808.041   -18184252.619 8 -13384247.07247  21920807.961    21920816.0634
  24358704.869     7616968.109 8   5948298.49145  24358704.819    24358719.7884
  21703065.213   -19846126.113 9 -14783026.37447  21703064.791    21703071.9624
  24175003.537    -5306867.433 8  -3900391.50645  24175002.804    24175013.0164
  24462015.857    -4803415.788 7  -3236284.67845  24462015.289    24462024.1024
 00  5  3  0 41 30.0000000  0  9 09 23 26 03 29 06 21 15 31
  24010686.425    -4865194.757 7  -3776388.40645  24010685.929    24010696.2314
  21067092.257   -22701519.100 9 -17411368.76447  21067091.706    21067097.9754
  24109649.534    -3551767.545 8  -2747311.48545  24109649.676    24109657.1784
  21944325.109   -19018539.075 9 -14300765.50447  21944324.860    21944331.7394
  21904134.098   -18271874.036 8 -13452523.36347  21904134.034    21904142.0664
  24380340.017     7730659.941 7   6036889.12045  24380339.931    24380355.1204
  21696152.883   -19882450.679 9 -14811331.18447  21696152.436    21696159.5394
  24157570.456    -5398478.638 8  -3971776.75145  24157569.763    24157579.8534
  24444685.804    -4894485.662 7  -3307248.12345  24444685.257    24444694.0144
 00  5  3  0 42  0.0000000  0  9 09 23 26 03 29 06 21 15 31
  24001070.423    -4915726.225 7  -3815763.40645  24001069.975    24001080.2364
  21072693.591   -22672083.837 9 -17388432.19247  21072693.048    21072699.3034
  24129427.807    -3447832.706 8  -2666323.34745  24129427.895    24129435.4094
  21935563.858   -19064578.896 8 -14336640.67047  21935563.666    21935570.6744
  21887521.670   -18359172.374 8 -13520547.90747  21887521.604    21887529.5844
  24401983.840     7844396.835 7   6125514.84045  24401983.688    24401999.2024
  21689279.737   -19918568.897 9 -14839475.19747  21689279.304    21689286.4304
  24140131.112    -5490122.078 8  -4043187.09845  24140130.506    24140140.5904
  24427411.756    -4985260.565 7  -3377981.72545  24427411.315    24427420.0614
 00  5  3  0 42 30.0000000  0  9 09 23 26 03 29 06 21 15 31
  23991520.215    -4965911.991 8  -3854869.03945  23991519.926    23991529.9414
  21078329.453   -22642467.080 9 -17365354.19247  21078328.927    21078335.1834
  24149247.396    -3343680.631 8  -2585165.93645  24149247.403    24149254.9874
  21926902.017   -19110096.862 9 -14372109.18947  21926901.802    21926908.9264
  21870971.075   -18446145.926 8 -13588319.35747  21870970.992    21870978.9364
  24423635.595     7958175.743 7   6214173.26545  24423635.348    24423651.1794
  21682445.734   -19954481.649 9 -14867459.10347  21682445.296    21682452.4574
  24122685.758    -5581797.305 8  -4114622.19045  24122685.253    24122695.2704
  24410194.189    -5075738.371 7  -3448483.80745  24410193.765    24410202.5394
 00  5  3  0 43  0.0000000  0  9 09 23 26 03 29 06 21 15 31
  23982036.237    -5015749.961 7  -3893703.66045  23982036.003    23982045.9264
  21083999.482   -22612670.840 9 -17342136.33747  21083998.951    21084005.2244
  24169107.632    -3239314.757 8  -2503841.93645  24169107.575    24169115.3124
  21918339.667   -19155092.218 9 -14407170.48247  21918339.449    21918346.5724
  21854482.544   -18532793.150 8 -13655836.53647  21854482.467    21854490.3794
  24445294.615     8071993.444 8   6302861.92945  24445294.384    24445310.3564
  21675650.604   -19990190.220 9 -14895283.91447  21675650.180    21675657.2954
  24105234.348    -5673504.288 8  -4186082.02045  24105233.834    24105243.9094
  24393033.556    -5165917.399 7  -3518753.09245  24393033.184    24393042.0024
 00  5  3  0 43 30.0000000  0  9 09 23 26 03 29 06 21 15 31
  23972619.044    -5065237.179 7  -3932264.97945  23972618.742    23972628.6484
  21089703.415   -22582696.641 9 -17318779.81447  21089702.873    21089709.1434
  24189007.874    -3134738.175 8  -2422353.74345  24189007.868    24189015.6494
  21909877.102   -19199563.807 9 -14441823.65947  21909876.858    21909883.8584
  21838056.481   -18619112.164 8 -13723097.98047  21838056.408    21838064.2724
  24466960.663     8185847.235 7   6391578.71045  24466960.465    24466976.5364
  21668894.222   -20025695.192 9 -14922950.08047  21668893.777    21668900.8134
  24087777.107    -5765242.105 8  -4257565.87745  24087776.669    24087786.6234
  24375930.447    -5255795.048 8  -3588787.54545  24375930.065    24375938.7154
 00  5  3  0 44  0.0000000  0  9 09 23 26 03 29 06 21 15 31
  23963268.976    -5114371.601 7  -3970551.39045  23963268.665    23963278.4934
  21095440.888   -22552545.885 9 -17295285.71047  21095440.361    21095446.6064
  24208947.700    -3029954.004 8  -2340703.80245  24208947.704    24208955.5334
  21901514.494   -19243509.962 9 -14476067.39647  21901514.237    21901521.0814
  21821693.232   -18705100.907 8 -13790102.05847  21821693.176    21821701.0004
  24488633.006     8299734.361 7   6480321.46445  24488632.742    24488648.9574
  21662176.296   -20060997.744 9 -14950458.51547  21662175.858    21662182.8974
  24070314.253    -5857010.356 8  -4329073.46845  24070313.649    24070323.5494
  24358885.254    -5345368.534 8  -3658584.99545  24358884.715    24358893.4044
 00  5  3  0 44 30.0000000  0  9 09 23 26 03 29 06 21 15 31
  23953986.738    -5163149.115 7  -4008559.68645  23953986.501    23953996.3654
  21101212.037   -22522218.476 9 -17271653.95947  21101211.495    21101217.7404
  24228926.716    -2924963.688 8  -2258893.24045  24228926.743    24228934.5994
  21893252.342   -19286927.788 8 -14509899.45047  21893252.087    21893258.8844
  21805393.529   -18790755.887 8 -13856846.07047  21805393.470    21805401.2724
  24510311.433     8413653.682 7   6569089.30845  24510311.204    24510327.5004
  21655497.164   -20096096.600 9 -14977808.22047  21655496.742    21655503.8044
  24052846.009    -5948806.663 8  -4400602.96845  24052845.381    24052855.0154
  24341898.535    -5434634.468 8  -3728142.80245  24341897.985    24341906.5944
 00  5  3  0 45  0.0000000  0  8 09 23 26 03 29 21 15 31
  23944773.174    -5211565.607 7  -4046286.67245  23944772.879    23944782.9164
  21107016.774   -22491714.238 9 -17247884.42047  21107016.227    21107022.4794
  24248944.633    -2819768.790 8  -2176923.25045  24248944.735    24248952.5934
  21885091.137   -19329814.712 9 -14543317.80747  21885090.887    21885097.7604
  21789157.924   -18876073.942 8 -13923327.53847  21789157.840    21789165.6464
  21648856.933   -20130991.194 9 -15004998.76947  21648856.528    21648863.5454
  24035372.742    -6040628.727 8  -4472152.49145  24035372.218    24035381.6344
  24324970.981    -5523588.937 8  -3797457.88245  24324970.424    24324978.9674
 00  5  3  0 45 30.0000000  0  8 09 23 26 03 29 21 15 31
  23935628.637    -5259620.133 7  -4083731.60345  23935628.249    23935638.3324
  21112854.589   -22461036.365 9 -17223979.58047  21112854.035    21112860.2754
  24269000.560    -2714374.137 7  -2094797.61045  24269000.650    24269008.5814
  21877030.878   -19372171.023 9 -14576322.69547  21877030.697    21877037.6744
  21772986.562   -18961054.523 8 -13989546.05147  21772986.505    21772994.2754
  21642255.133   -20165683.843 9 -15032031.95547  21642254.679    21642261.6764
  24017894.267    -6132477.854 8  -4543723.10145  24017893.668    24017903.1044
  24308102.806    -5612231.185 8  -3866529.68845  24308102.241    24308110.7664
 00  5  3  0 46  0.0000000  0  8 09 23 26 03 29 21 15 31
  23926553.288    -5307311.055 7  -4120893.21845  23926552.842    23926562.8774
  21118724.998   -22430187.060 9 -17199941.15847  21118724.461    21118730.7054
  24289093.804    -2608783.615 7  -2012519.34745  24289093.841    24289101.8544
  21869071.728   -19413996.540 9 -14608913.98747  21869071.537    21869078.5794
  21756879.554   -19045696.863 8 -14055500.99647  21756879.496    21756887.2294
  21635691.407   -20200176.036 9 -15058908.93947  21635690.963    21635697.9334
  24000410.608    -6224354.242 8  -4615314.93845  24000410.132    24000419.3964
  24291294.314    -5700559.977 8  -3935357.24645  24291293.728    24291302.3034
 00  5  3  0 46 30.0000000  0  8 09 23 26 03 29 21 15 31
  23917547.652    -5354635.084 7  -4157768.95445  23917547.296    23917557.2554
  21124627.912   -22399167.028 9 -17175769.70347  21124627.375    21124633.6234
  24309223.911    -2502999.480 7  -1930090.23145  24309223.953    24309232.0794
  21861214.051   -19455289.299 9 -14641090.13747  21861213.837    21861220.8604
  21740837.470   -19129998.115 8 -14121190.15947  21740837.392    21740845.1314
  21629165.803   -20234468.147 9 -15085630.02647  21629165.380    21629172.2994
  23982922.191    -6316256.228 8  -4686926.71945  23982921.698    23982930.9854
  24274546.132    -5788571.841 7  -4003937.84045  24274545.642    24274554.1494
 00  5  3  0 47  0.0000000  0  8 09 23 26 03 29 21 15 31
  23908612.498    -5401589.649 7  -4194356.78745  23908612.073    23908621.9644
  21130563.087   -22367977.452 9 -17151466.14147  21130562.556    21130568.8004
  24329390.333    -2397024.529 7  -1847512.43445  24329390.373    24329398.4794
  21853457.999   -19496047.848 9 -14672850.02747  21853457.756    21853464.7714
  21724860.720   -19213956.141 8 -14186611.87347  21724860.642    21724868.3674
  21622678.244   -20268560.612 9 -15112195.54547  21622677.802    21622684.6904
  23965429.064    -6408182.623 7  -4758557.55345  23965428.659    23965437.7874
  24257858.826    -5876264.164 8  -4072269.44445  24257858.135    24257866.7074
 00  5  3  0 47 30.0000000  0  8 09 23 26 03 29 21 15 31
  23899747.979    -5448172.082 8  -4230654.64945  23899747.670    23899757.5434
  21136530.251   -22336619.683 9 -17127031.51647  21136529.735    21136535.9634
  24349592.339    -2290861.760 7  -1764788.30345  24349592.249    24349600.5774
  21845803.838   -19536270.623 9 -14704192.42247  21845803.615    21845810.5944
  21708949.639   -19297568.927 8 -14251764.56947  21708949.567    21708957.2394
  21616228.466   -20302454.045 9 -15138605.96447  21616228.027    21616234.9254
  23947931.364    -6500132.740 7  -4830206.84545  23947930.832    23947940.2294
  24241232.807    -5963634.589 8  -4140350.22645  24241232.095    24241240.6594
 00  5  3  0 48  0.0000000  0  8 09 23 26 03 29 21 15 31
  23890955.000    -5494379.128 7  -4266660.02045  23890954.587    23890964.5324
  21142529.381   -22305094.152 9 -17102466.16647  21142528.862    21142535.0954
  24369829.734    -2184512.980 7  -1681919.21845  24369829.728    24369837.9914
  21838251.954   -19575955.667 9 -14735115.81647  21838251.733    21838258.6834
  21693104.795   -19380833.659 8 -14316646.05947  21693104.746    21693112.3534
  21609816.605   -20336148.270 9 -15164861.17947  21609816.176    21609823.0664
  23930429.490    -6592104.912 7  -4901873.31745  23930429.039    23930438.3464
  24224668.589    -6050679.967 8  -4208177.74845  24224667.922    24224676.3454
 00  5  3  0 48 30.0000000  0  8 09 23 26 03 29 21 15 31
  23882233.689    -5540208.599 7  -4302371.15445  23882233.454    23882243.4184
  21148560.134   -22273402.445 9 -17077771.33447  21148559.597    21148565.8054
  24390101.941    -2077981.934 7  -1598908.10045  24390101.973    24390110.3624
  21830802.612   -19615101.942 9 -14765619.39347  21830802.400    21830809.3474
  21677326.493   -19463748.813 8 -14381255.14947  21677326.419    21677334.0094
  21603442.536   -20369644.387 9 -15190962.01747  21603442.098    21603448.9224
  23912923.595    -6684098.665 8  -4973556.62245  23912922.988    23912932.3574
  24208166.547    -6137398.392 8  -4275750.49745  24208165.796    24208174.1714
 00  5  3  0 49  0.0000000  0  8 09 23 26 03 29 21 15 31
  23873584.957    -5585657.502 8  -4337785.76845  23873584.781    23873594.6584
  21154622.308   -22241545.544 9 -17052947.77747  21154621.760    21154627.9744
  24410408.437    -1971270.872 7  -1515756.69545  24410408.525    24410416.6864
  21823456.045   -19653708.135 9 -14795702.11447  21823455.816    21823462.8154
  21661615.105   -19546312.172 8 -14445590.11547  21661615.046    21661622.5964
  21597106.107   -20402942.527 9 -15216908.57947  21597105.655    21597112.4824
  23895413.772    -6776112.719 7  -5045255.76845  23895413.150    23895422.5634
  24191727.292    -6223786.663 7  -4343065.99845  24191726.707    24191734.9814
 00  5  3  0 49 30.0000000  0  8 09 23 26 03 29 21 15 31
  23865008.977    -5630724.076 8  -4372902.44145  23865008.818    23865018.5724
  21160715.498   -22209525.587 9 -17027997.16647  21160714.962    21160721.1884
  24430748.571    -1864383.646 7  -1432467.99945  24430748.555    24430756.7824
  21816212.381   -19691773.760 9 -14825363.62647  21816212.180    21816219.1694
  21645970.899   -19628522.502 8 -14509649.99247  21645970.856    21645978.3544
  21590806.983   -20436044.174 9 -15242702.04547  21590806.546    21590813.4094
  23877900.073    -6868147.015 7  -5116970.66845  23877899.594    23877908.8414
  24175351.227    -6309843.230 7  -4410122.99245  24175350.613    24175358.8364
 00  5  3  0 50  0.0000000  0  8 09 23 26 03 29 21 15 31
  23856506.597    -5675404.117 7  -4407717.91845  23856506.365    23856516.1284
  21166839.823   -22177341.870 9 -17002918.94647  21166839.292    21166845.5264
  24451121.939    -1757321.198 8  -1349042.76545  24451122.010    24451130.1854
  21809072.225   -19729295.804 9 -14854601.55847  21809072.003    21809078.9814
  21630394.586   -19710376.014 8 -14573431.82747  21630394.540    21630402.0564
  21584545.661   -20468947.780 9 -15268341.18147  21584545.220    21584552.0024
  23860383.014    -6960198.709 8  -5188699.13045  23860382.561    23860391.9494
  24159039.076    -6395563.968 7  -4476918.29045  24159038.436    24159046.6594
 00  5  3  0 50 30.0000000  0  8 09 23 26 03 29 21 15 31
  23848078.282    -5719694.646 8  -4442229.89045  23848078.139    23848087.8294
  21172995.185   -22144995.329 9 -16977713.85547  21172994.651    21173000.8924
  24471528.154    -1650086.148 8  -1265483.02645  24471528.263    24471536.3494
  21802035.796   -19766272.562 9 -14883414.59247  21802035.575    21802042.5524
  21614886.642   -19791870.291 8 -14636933.74547  21614886.626    21614894.1024
  21578321.866   -20501653.881 9 -15293826.42547  21578321.409    21578328.1654
  23842863.049    -7052266.724 7  -5260440.33045  23842862.460    23842871.9104
  24142791.262    -6480945.902 7  -4543449.58145  24142790.703    24142799.0054
 00  5  3  0 51  0.0000000  0  8 09 23 26 03 29 21 15 31
  23839724.471    -5763593.940 8  -4476437.00045  23839724.322    23839733.8814
  21179181.056   -22112488.385 9 -16952383.77347  21179180.528    21179186.7364
  24491966.426    -1542682.461 8  -1181791.87745  24491966.544    24491974.5944
  21795103.149   -19802704.089 9 -14911802.76947  21795102.874    21795109.9024
  21599447.204   -19873004.773 8 -14700155.29747  21599447.134    21599454.5924
  21572135.238   -20534164.505 9 -15319159.33347  21572134.802    21572141.5934
  23825339.894    -7144351.172 7  -5332194.33345  23825339.251    23825348.7894
  24126608.127    -6565988.081 7  -4609716.15545  24126607.657    24126615.9044
 00  5  3  0 51 30.0000000  0  8 09 23 26 03 29 21 15 31
  23831445.408    -5807100.102 8  -4510337.76345  23831445.394    23831454.8074
  21185397.208   -22079822.438 9 -16926929.78847  21185396.665    21185402.8814
  24512436.246    -1435113.120 8  -1097971.63745  24512436.404    24512444.4274
  21788274.310   -19838589.420 9 -14939765.33747  21788274.072    21788281.1194
  21584076.556   -19953777.587 9 -14763095.03147  21584076.485    21584083.8864
  21565985.696   -20566480.386 9 -15344340.49847  21565985.259    21565992.0524
  23807813.735    -7236451.314 8  -5403960.56145  23807813.025    23807822.6094
  24110490.296    -6650687.931 7  -4675715.95245  24110489.765    24110498.0594
 00  5  3  0 52  0.0000000  0  8 09 23 26 03 29 21 15 31
  23823241.754    -5850210.040 8  -4543929.78145  23823241.614    23823251.1264
  21191643.435   -22046998.177 9 -16901352.44247  21191642.901    21191649.1174
  24532937.135    -1327380.639 8  -1014024.28045  24532937.311    24532945.1854
  21781549.774   -19873926.716 9 -14967300.86047  21781549.517    21781556.5714
  21568775.186   -20034186.207 8 -14825750.97947  21568775.148    21568782.5424
  21559873.227   -20598601.589 9 -15369369.97447  21559872.771    21559879.5604
  23790284.818    -7328565.746 8  -5475737.92345  23790284.089    23790293.6294
  24094438.049    -6735042.253 7  -4741446.51945  24094437.538    24094445.8114
 00  5  3  0 52 30.0000000  0  8 09 23 26 03 29 21 15 31
  23815114.069    -5892921.037 8  -4577210.95145  23815113.890    23815123.4114
  21197919.550   -22014016.845 9 -16875652.70747  21197919.036    21197925.2574
  24553468.579    -1219487.575 8   -929951.78145  24553468.768    24553476.6584
  21774929.693   -19908715.085 9 -14994408.66047  21774929.460    21774936.4984
  21553543.474   -20114228.788 8 -14888121.70747  21553543.452    21553550.7984
  21553797.628   -20630528.519 9 -15394248.06147  21553797.207    21553804.0114
  23772753.487    -7420693.198 8  -5547525.43245  23772752.756    23772762.3834
  24078452.108    -6819048.855 8  -4806906.13445  24078451.655    24078459.8464
 00  5  3  0 53  0.0000000  0  8 09 23 26 03 29 21 15 31
  23807062.766    -5935230.544 8  -4610179.26545  23807062.554    23807072.0604
  21204225.407   -21980879.271 9 -16849831.21447  21204224.881    21204231.1084
  24574030.130    -1111436.603 8   -845756.24645  24574030.033    24574038.1124
  21768414.481   -19942952.948 9 -15021087.48947  21768414.260    21768421.1914
  21538381.928   -20193903.001 8 -14950205.38947  21538381.879    21538389.2034
  21547758.954   -20662261.696 9 -15418975.17747  21547758.567    21547765.3554
  23755219.908    -7512832.328 8  -5619322.06245  23755219.284    23755228.7334
  24062532.884    -6902705.027 8  -4872092.71745  24062532.316    24062540.4084
 00  5  3  0 53 30.0000000  0  8 09 23 26 03 29 21 15 31
  23799088.225    -5977136.699 8  -4642833.27845  23799088.044    23799097.5394
  21210560.630   -21947587.427 9 -16823889.51647  21210560.105    21210566.3434
  24594621.020    -1003231.215 8   -761440.40545  24594621.048    24594629.0384
  21762004.101   -19976639.931 9 -15047337.06947  21762003.878    21762010.6954
  21523290.645   -20273207.826 8 -15012001.24247  21523290.576    21523297.8644
  21541757.047   -20693801.998 9 -15443552.00347  21541756.632    21541763.4354
  23737684.200    -7604983.167 8  -5691127.83445  23737683.524    23737692.8914
  24046680.578    -6986009.269 8  -4937005.04645  24046679.970    24046688.0944
 00  5  3  0 54  0.0000000  0  7 09 23 03 29 21 15 31
  23791191.434    -6018634.428 8  -4675169.05545  23791191.261    23791200.5604
  21216925.508   -21914139.840 9 -16797826.45447  21216924.988    21216931.2314
  21755699.265   -20009772.188 9 -15073154.38947  21755699.033    21755705.8254
  21508270.514   -20352138.650 8 -15073505.66347  21508270.444    21508277.7024
  21535792.025   -20725148.165 9 -15467977.55047  21535791.612    21535798.4074
  23720146.932    -7697142.046 8  -5762939.85045  23720146.245    23720155.4734
  24030896.198    -7068956.509 8  -5001639.19545  24030895.647    24030903.7394
 00  5  3  0 54 30.0000000  0  7 09 23 03 29 21 15 31
  23783372.051    -6059724.973 8  -4707187.53645  23783371.905    23783381.1644
  21223319.067   -21880541.434 9 -16771645.87347  21223318.522    21223324.7784
  21749499.406   -20042352.684 9 -15098541.77047  21749499.155    21749506.0044
  21493321.160   -20430697.447 8 -15134720.19447  21493321.104    21493328.3764
  21529863.231   -20756304.177 9 -15492254.92847  21529862.816    21529869.5614
  23702607.713    -7789311.134 8  -5834759.80845  23702606.927    23702616.2174
  24015179.578    -7151547.868 8  -5065996.03045  24015179.018    24015187.0614
 00  5  3  0 55  0.0000000  0  7 09 23 03 29 21 15 31
  23775631.503    -6100401.855 8  -4738883.68545  23775631.263    23775640.4284
  21229741.876   -21846789.324 9 -16745345.53147  21229741.346    21229747.5984
  21743405.465   -20074376.278 9 -15123495.19847  21743405.224    21743412.1454
  21478443.819   -20508878.025 9 -15195640.01447  21478443.773    21478451.0094
  21523971.297   -20787266.455 9 -15516381.34447  21523970.875    21523977.6204
  23685067.371    -7881485.662 8  -5906584.02045  23685066.660    23685075.8344
  23999531.889    -7233776.719 8  -5130070.38645  23999531.351    23999539.5164
 00  5  3  0 55 30.0000000  0  7 09 23 03 29 21 15 31
  23767969.488    -6140665.629 8  -4770257.93745  23767969.248    23767978.3164
  21236193.163   -21812887.661 9 -16718928.64847  21236192.610    21236198.8634
  21737417.118   -20105844.913 9 -15148016.19247  21737416.890    21737423.9014
  21463638.206   -20586681.687 9 -15256266.12947  21463638.143    21463645.3654
  21518115.483   -20818038.537 9 -15540359.55347  21518115.069    21518121.8734
  23667525.693    -7973667.487 8  -5978413.94345  23667525.004    23667534.0374
  23983953.145    -7315643.703 8  -5193862.77145  23983952.585    23983960.7464
 00  5  3  0 56  0.0000000  0  7 09 23 03 29 21 15 31
  23760386.562    -6180513.803 8  -4801308.33845  23760386.317    23760395.4414
  21242672.725   -21778837.337 9 -16692395.92747  21242672.184    21242678.4254
  21731534.641   -20136757.229 9 -15172103.69547  21731534.432    21731541.4534
  21448904.744   -20664106.211 9 -15316596.81247  21448904.662    21448911.8344
  21512295.824   -20848620.850 9 -15564189.88947  21512295.418    21512302.2134
  23649982.809    -8065855.450 8  -6050248.63445  23649982.108    23649991.2054
  23968443.625    -7397146.364 8  -5257371.28545  23968443.112    23968451.2724
 00  5  3  0 56 30.0000000  0  7 09 23 03 29 21 15 31
  23752883.609    -6219941.185 8  -4832030.85445  23752883.421    23752892.4994
  21249180.843   -21744636.883 9 -16665746.22647  21249180.299    21249186.5814
  21725758.777   -20167109.598 9 -15195754.87547  21725758.550    21725765.5344
  21434244.175   -20741147.569 9 -15376628.93147  21434244.102    21434251.2544
  21506512.727   -20879011.579 9 -15587870.95047  21506512.271    21506519.0184
  23632439.412    -8158045.757 8  -6122085.13445  23632438.773    23632447.8844
  23953004.451    -7478279.451 8  -5320591.81745  23953003.961    23953012.0004
 00  5  3  0 57  0.0000000  0  7 09 23 03 29 21 15 31
  23745460.734    -6258948.567 8  -4862426.09045  23745460.530    23745469.5634
  21255716.756   -21710290.361 9 -16638982.70047  21255716.214    21255722.4794
  21720089.085   -20196904.288 9 -15218971.50247  21720088.845    21720095.7634
  21419656.380   -20817806.554 9 -15436363.09247  21419656.311    21419663.4304
  21500765.311   -20909214.181 9 -15611405.41347  21500764.850    21500771.6464
  23614895.239    -8250240.445 8  -6193925.05245  23614894.669    23614903.7424
  23937635.507    -7559044.022 8  -5383525.19145  23937634.980    23937643.0374
 00  5  3  0 57 30.0000000  0  7 09 23 03 29 21 15 31
  23738118.553    -6297531.601 8  -4892490.69045  23738118.283    23738127.3644
  21262280.688   -21675796.696 9 -16612104.52247  21262280.160    21262286.4034
  21714526.135   -20226138.030 9 -15241751.03047  21714525.896    21714532.6884
  21405142.036   -20894079.394 9 -15495796.36547  21405141.979    21405149.0514
  21495053.947   -20939227.204 9 -15634792.15047  21495053.514    21495060.3194
  23597350.961    -8342436.151 8  -6265765.75945  23597350.404    23597359.3374
  23922337.636    -7639435.095 8  -5446167.52745  23922337.081    23922345.1074
 00  5  3  0 58  0.0000000  0  7 09 23 03 29 21 15 31
  23730857.504    -6335688.252 8  -4922223.02745  23730857.239    23730866.2194
  21268872.250   -21641157.736 9 -16585113.12047  21268871.727    21268877.9814
  21709069.942   -20254810.508 9 -15264093.20347  21709069.684    21709076.4204
  21390701.472   -20969964.698 9 -15554927.65947  21390701.416    21390708.4494
  21489378.541   -20969051.931 9 -15658032.15947  21489378.093    21489384.8284
  23579806.604    -8434632.357 7  -6337606.87645  23579805.991    23579814.8234
  23907111.007    -7719451.018 8  -5508517.52445  23907110.442    23907118.6204
 00  5  3  0 58 30.0000000  0  7 09 23 03 29 21 15 31
  23723677.973    -6373416.556 8  -4951621.60445  23723677.680    23723686.6214
  21275491.176   -21606375.013 9 -16558009.69947  21275490.654    21275496.8924
  21703720.576   -20282921.503 9 -15285997.86247  21703720.337    21703727.0444
  21376334.862   -21045461.389 9 -15613756.14747  21376334.802    21376341.8074
  21483738.695   -20998689.128 9 -15681126.04747  21483738.238    21483744.9854
  23562262.080    -8526828.580 8  -6409447.95245  23562261.436    23562270.3924
  23891956.229    -7799089.777 8  -5570573.64545  23891955.623    23891963.7344
 00  5  3  0 59  0.0000000  0  7 09 23 03 29 21 15 31
  23716580.682    -6410712.399 8  -4980683.18545  23716580.403    23716589.3544
  21282137.609   -21571447.916 9 -16530793.78247  21282137.083    21282143.3104
  21698478.558   -20310468.238 9 -15307462.83447  21698478.316    21698485.0724
  21362042.886   -21120565.817 9 -15672278.97647  21362042.816    21362049.7974
  21478134.815   -21028137.409 9 -15704072.72747  21478134.387    21478141.1484
  23544718.185    -8619021.905 8  -6481286.81545  23544717.641    23544726.5784
  23876873.935    -7878347.397 8  -5632332.77145  23876873.335    23876881.5104
 00  5  3  0 59 30.0000000  0  7 09 23 03 29 21 15 31
  23709565.833    -6447575.454 8  -5009407.55345  23709565.510    23709574.4484
  21288810.925   -21536379.255 9 -16503467.54547  21288810.403    21288816.6354
  21693343.707   -20337451.692 9 -15328488.88547  21693343.491    21693350.3494
  21347825.577   -21195277.763 9 -15730495.97347  21347825.498    21347832.4744
  21472566.439   -21057399.619 9 -15726874.41447  21472565.992    21472572.7394
  23527174.747    -8711212.891 8  -6553123.86745  23527174.227    23527183.0844
  23861864.347    -7957223.011 8  -5693794.21145  23861863.766    23861871.8714
 00  5  3  1  0  0.0000000  0  7 09 23 03 29 21 15 31
  23702633.998    -6484002.038 8  -5037791.79845  23702633.738    23702642.5694
  21295511.237   -21501168.960 9 -16476030.95547  21295510.705    21295516.9334
  21688316.414   -20363869.909 9 -15349074.49547  21688316.201    21688323.1434
  21333683.471   -21269594.552 9 -15788405.05947  21333683.408    21333690.3704
  21467033.537   -21086475.076 9 -15749530.58347  21467033.082    21467039.8294
  23509632.142    -8803399.069 8  -6624957.10445  23509631.591    23509640.5634
  23846928.120    -8035713.095 8  -5754955.25345  23846927.605    23846935.6844
 00  5  3  1  0 30.0000000  0  7 09 23 03 29 21 15 31
  23695785.483    -6519990.455 8  -5065834.62445  23695785.239    23695794.1054
  21302238.184   -21465818.540 9 -16448485.17247  21302237.658    21302243.8964
  21683396.855   -20389722.481 9 -15369219.34147  21683396.637    21683403.6134
  21319616.869   -21343514.815 9 -15846005.16647  21319616.797    21319623.7144
  21461535.935   -21115364.861 9 -15772042.07047  21461535.508    21461542.2344
  23492090.716    -8895579.688 8  -6696786.06845  23492090.084    23492099.0704
  23832065.582    -8113816.046 8  -5815814.63845  23832065.144    23832073.0384
 00  5  3  1  1  0.0000000  0  7 09 23 03 29 21 15 31
  23689020.838    -6555538.521 8  -5093534.31145  23689020.563    23689029.4854
  21308991.586   -21430329.146 9 -16420831.09547  21308991.062    21308997.3024
  21678585.089   -20415008.806 9 -15388922.96247  21678584.868    21678591.7864
  21305625.978   -21417036.933 9 -15903295.03347  21305625.912    21305632.8084
  21456073.658   -21144069.481 9 -15794409.27547  21456073.220    21456079.9334
  23474550.514    -8987753.500 8  -6768609.73445  23474549.918    23474558.8394
  23817277.138    -8191529.480 8  -5876370.48545  23817276.682    23817284.6094
 00  5  3  1  1 30.0000000  0  7 09 23 03 29 21 15 31
  23682340.341    -6590644.151 8  -5120889.24145  23682340.167    23682348.9974
  21315771.173   -21394702.113 9 -16393069.77747  21315770.639    21315776.8854
  21673881.150   -20439728.258 9 -15408184.86547  21673880.924    21673887.7824
  21291711.195   -21490159.160 9 -15960273.29547  21291711.135    21291718.0054
  21450646.362   -21172589.799 9 -15816632.86147  21450645.937    21450652.6834
  23457011.821    -9079919.623 8  -6840427.37345  23457011.169    23457020.0774
  23802563.173    -8268851.309 8  -5936621.17845  23802562.698    23802570.7134
 00  5  3  1  2  0.0000000  0  7 09 23 03 29 21 15 31
  23675744.594    -6625304.831 8  -5147897.45645  23675744.413    23675753.2254
  21322576.866   -21358938.057 9 -16365201.68547  21322576.318    21322582.5774
  21669285.296   -20463879.655 9 -15427004.12947  21669285.076    21669291.8674
  21277872.862   -21562879.644 9 -16016938.51447  21277872.795    21277879.6354
  21445254.101   -21200925.865 9 -15838712.87947  21445253.710    21445260.4424
  23439474.923    -9172076.555 8  -6912237.83645  23439474.339    23439483.1654
  23787924.344    -8345778.668 7  -5996564.50045  23787923.873    23787931.7914
 00  5  3  1  2 30.0000000  0  7 09 23 03 29 21 15 31
  23669233.954    -6659517.781 8  -5174556.79445  23669233.771    23669242.6254
  21329408.455   -21323037.674 9 -16337227.36647  21329407.928    21329414.1964
  21664797.709   -20487461.927 9 -15445379.92247  21664797.493    21664804.2304
  21264111.421   -21635196.079 9 -16073288.88947  21264111.352    21264118.1834
  21439896.957   -21229078.063 9 -15860649.62647  21439896.529    21439903.1974
  23421939.984    -9264222.878 8  -6984040.06945  23421939.359    23421948.2404
  23773361.104    -8422308.877 8  -6056198.37745  23773360.655    23773368.4954
 00  5  3  1  3  0.0000000  0  7 09 23 03 29 21 15 31
  23662808.996    -6693280.779 8  -5200865.51345  23662808.869    23662817.6414
  21336265.850   -21287001.955 9 -16309147.58547  21336265.321    21336271.5604
  21660418.565   -20510474.385 9 -15463311.69447  21660418.354    21660425.0614
  21250427.190   -21707106.818 9 -16129323.13647  21250427.125    21250433.9234
  21434574.691   -21257046.635 9 -15882443.28247  21434574.263    21434580.9844
  23404407.331    -9356357.036 8  -7055832.81845  23404406.746    23404415.5414
  23758873.842    -8498439.484 8  -6115520.85045  23758873.364    23758881.2254
 00  5  3  1  3 30.0000000  0  7 09 23 03 29 21 15 31
  23656469.961    -6726592.124 8  -5226822.28945  23656469.867    23656478.5784
  21343148.710   -21250832.338 9 -16280963.47447  21343148.176    21343154.4214
  21656147.899   -20532916.758 9 -15480799.25147  21656147.671    21656154.3644
  21236820.374   -21778610.692 9 -16185040.34647  21236820.325    21236827.1074
  21429287.115   -21284832.659 9 -15904094.69347  21429286.713    21429293.4414
  23386877.205    -9448478.241 8  -7127615.46745  23386876.572    23386885.3104
  23744463.096    -8574168.545 8  -6174530.44245  23744462.571    23744470.3634
 00  5  3  1  4  0.0000000  0  7 09 23 03 29 21 15 31
  23650217.367    -6759449.281 8  -5252425.16545  23650217.276    23650225.9974
  21350056.992   -21214529.219 9 -16252675.33147  21350056.473    21350062.7004
  21651985.944   -20554787.905 9 -15497841.69347  21651985.732    21651992.4564
  21223291.427   -21849705.464 9 -16240438.77547  21223291.361    21223298.1334
  21424034.401   -21312436.047 9 -15925603.79747  21424033.970    21424040.6204
  23369349.831    -9540584.721 8  -7199386.61445  23369349.206    23369357.9784
  23730129.183    -8649493.475 8  -6233225.12445  23730128.624    23730136.4544
 00  5  3  1  4 30.0000000  0  7 09 23 03 29 21 15 31
  23644051.811    -6791849.402 8  -5277671.91045  23644051.644    23644060.3444
  21356990.548   -21178093.229 9 -16224283.65547  21356990.023    21356996.2274
  21647932.896   -20576086.830 9 -15514438.25447  21647932.698    21647939.4004
  21209840.694   -21920389.144 9 -16295516.87847  21209840.643    21209847.3754
  21418816.186   -21339857.731 9 -15946971.30847  21418815.753    21418822.4214
  23351825.763    -9632674.568 8  -7271144.84445  23351825.018    23351833.7154
  23715872.686    -8724411.515 8  -6291602.74845  23715872.143    23715879.9104
 00  5  3  1  5  0.0000000  0  7 09 23 03 29 21 15 31
  23637973.178    -6823792.049 8  -5302562.18445  23637973.042    23637981.7574
  21363948.886   -21141526.973 9 -16195790.46947  21363948.356    21363954.5704
  21643988.636   -20596814.336 9 -15530589.55047  21643988.399    21643995.1464
  21196468.184   -21990661.769 9 -16350274.67747  21196468.110    21196474.8304
  21413632.233   -21367099.370 9 -15968198.52647  21413631.831    21413638.5104
  23334304.597    -9724748.432 8  -7342890.59845  23334303.828    23334312.6114
  23701693.837    -8798921.918 8  -6349662.73745  23701693.239    23701700.9784
 00  5  3  1  5 30.0000000  0  7 09 23 03 29 21 15 31
  23631982.336    -6855274.372 8  -5327093.75745  23631982.099    23631990.7994
  21370931.947   -21104830.690 9 -16167195.96347  21370931.412    21370937.6224
  21640153.323   -20616969.199 9 -15546294.62647  21640153.094    21640159.8884
  21183174.366   -22060520.799 9 -16404710.19647  21183174.324    21183181.0184
  21408482.651   -21394160.859 9 -15989285.36647  21408482.206    21408488.8504
  23316786.878    -9816804.337 8  -7414622.36645  23316786.165    23316794.8024
  23687593.074    -8873021.611 8  -6407402.69145  23687592.471    23687600.2124
 00  5  3  1  6  0.0000000  0  7 09 23 03 29 21 15 31
  23626079.407    -6886294.059 8  -5351264.84845  23626079.176    23626087.8344
  21377939.587   -21068005.348 9 -16138500.90147  21377939.051    21377945.2774
  21636427.115   -20636550.673 9 -15561552.91447  21636426.873    21636433.6904
  21169959.578   -22129964.649 9 -16458822.20147  21169959.512    21169966.1874
  21403367.184   -21421042.424 9 -16010232.01247  21403366.758    21403373.4154
  23299272.985    -9908840.602 8  -7486338.83846  23299272.279    23299280.7974
  23673570.954    -8946708.230 8  -6464820.77245  23673570.379    23673577.9524
 00  5  3  1  6 30.0000000  0  7 09 23 03 29 21 15 31
  23620264.900    -6916848.861 8  -5375073.69745  23620264.722    23620273.3244
  21384971.618   -21031051.765 9 -16109705.90747  21384971.083    21384977.3124
  21632810.113   -20655558.109 9 -15576363.89747  21632809.887    21632816.6864
  21156824.179   -22198991.405 9 -16512609.19647  21156824.106    21156830.7604
  21398285.917   -21447744.587 9 -16031038.86347  21398285.485    21398292.1174
  23281762.982   -10000856.008 8  -7558039.04745  23281762.271    23281770.7484
  23659627.923    -9019979.191 8  -6521914.97845  23659627.361    23659634.9054
 00  5  3  1  7  0.0000000  0  7 09 23 03 29 21 15 31
  23614539.398    -6946936.237 8  -5398518.31645  23614539.224    23614547.7174
  21392027.966   -20993970.464 9 -16080811.39447  21392027.447    21392033.6554
  21629302.488   -20673990.782 9 -15590727.01447  21629302.236    21629309.0444
  21143768.481   -22267599.279 9 -16566069.78947  21143768.404    21143775.0154
  21393238.857   -21474267.038 9 -16051705.67847  21393238.399    21393245.0524
  23264257.191   -10092848.796 8  -7629721.64645  23264256.511    23264264.9714
  23645764.341    -9092832.375 8  -6578683.63545  23645763.809    23645771.3664
 00  5  3  1  7 30.0000000  0  7 09 23 03 29 21 15 31
  23608903.147    -6976554.458 8  -5421597.35445  23608902.947    23608911.4274
  21399108.404   -20956762.540 9 -16051818.21547  21399107.886    21399114.0924
  21625904.296   -20691848.085 9 -15604641.79247  21625904.058    21625910.8464
  21130792.781   -22335786.747 9 -16619202.79847  21130792.707    21130799.2714
  21388225.633   -21500611.330 9 -16072233.67047  21388225.210    21388231.8504
  23246756.094   -10184817.456 8  -7701385.45246  23246755.406    23246763.8594
  23631980.631    -9165265.448 8  -6635124.93645  23631980.151    23631987.7424
 00  5  3  1  8  0.0000000  0  7 09 23 03 29 21 15 31
  23603356.610    -7005701.636 8  -5444309.36645  23603356.397    23603364.8434
  21406212.712   -20919429.113 9 -16022727.23947  21406212.198    21406218.3834
  21622615.652   -20709129.856 9 -15618108.09247  21622615.435    21622622.2084
  21117897.334   -22403552.422 9 -16672007.13047  21117897.254    21117903.7904
  21383246.402   -21526777.418 9 -16092622.79747  21383245.997    21383252.5604
  23229259.661   -10276761.162 8  -7773029.79746  23229258.980    23229267.4814
  23618277.331    -9237276.365 8  -6691237.28245  23618276.838    23618284.4694
 00  5  3  1  8 30.0000000  0  7 09 23 03 29 21 15 31
  23597900.071    -7034375.259 8  -5466652.36145  23597899.884    23597908.3414
  21413340.817   -20881970.854 9 -15993538.99547  21413340.303    21413346.4834
  21619436.714   -20725835.192 9 -15631125.23447  21619436.516    21619443.2284
  21105082.520   -22470894.358 9 -16724481.27947  21105082.455    21105088.9494
  21378300.947   -21552765.867 9 -16112873.50047  21378300.501    21378307.1154
  23211768.278   -10368678.213 8  -7844653.37845  23211767.618    23211776.1704
  23604655.037    -9308862.204 8  -6747018.38545  23604654.557    23604662.1544
 00  5  3  1  9  0.0000000  0  7 09 23 03 29 21 15 31
  23592534.016    -7062573.663 8  -5488625.05645  23592533.839    23592542.3144
  21420492.366   -20844389.133 9 -15964254.54447  21420491.822    21420498.0254
  21616367.540   -20741963.909 9 -15643693.05947  21616367.310    21616374.0024
  21092348.624   -22537811.192 9 -16776624.18047  21092348.541    21092355.0094
  21373389.134   -21578577.297 9 -16132986.26447  21373388.711    21373395.3164
  23194282.280   -10460567.320 8  -7916255.20846  23194281.653    23194290.1444
  23591113.886    -9380021.282 8  -6802466.98045  23591113.412    23591120.9744
 00  5  3  1  9 30.0000000  0  7 09 23 03 29 21 15 31
  23587258.782    -7090294.724 8  -5510225.81245  23587258.691    23587267.0454
  21427667.354   -20806684.315 9 -15934874.17447  21427666.835    21427673.0234
  21613408.189   -20757515.356 9 -15655811.06747  21613407.949    21613414.6524
  21079695.850   -22604301.591 9 -16828434.79747  21079695.790    21079702.2224
  21368510.930   -21604212.481 9 -16152961.69947  21368510.488    21368517.0454
  23176801.944   -10552426.748 8  -7987833.89645  23176801.305    23176809.7604
  23577654.434    -9450751.184 8  -6857581.14346  23577653.910    23577661.4824
 00  5  3  1 10  0.0000000  0  7 09 23 03 29 21 15 31
  23582074.745    -7117536.373 8  -5531452.99445  23582074.669    23582082.9974
  21434865.645   -20768857.253 9 -15905398.55247  21434865.122    21434871.2714
  21610558.749   -20772489.217 9 -15667479.00747  21610558.532    21610565.2074
  21067124.572   -22670363.815 9 -16879911.77747  21067124.503    21067130.9174
  21363666.157   -21629671.725 9 -16172800.03747  21363665.732    21363672.3314
  23159327.406   -10644255.395 8  -8059388.58845  23159326.792    23159335.2574
  23564277.007    -9521049.705 8  -6912359.15546  23564276.521    23564284.0734
 00  5  3  1 10 30.0000000  0  7 09 23 03 29 21 15 31
  23576982.195    -7144297.779 8  -5552305.96545  23576982.036    23576990.3954
  21442086.722   -20730910.346 9 -15875829.53747  21442086.173    21442092.3534
  21607819.124   -20786886.406 9 -15678697.59147  21607818.898    21607825.5194
  21054634.854   -22735997.409 9 -16931054.75347  21054634.780    21054641.1744
  21358854.614   -21654956.558 9 -16192502.47447  21358854.193    21358860.7644
  23141858.951   -10736052.817 8  -8130918.98445  23141858.255    23141866.6374
  23550981.882    -9590916.020 8  -6966800.38746  23550981.415    23550988.9254
 00  5  3  1 11  0.0000000  0  7 09 23 03 29 21 15 31
  23571981.764    -7170574.823 8  -5572781.50645  23571981.537    23571989.9514
  21449330.861   -20692841.933 9 -15846165.85047  21449330.338    21449336.5284
  21605189.653   -20800704.484 9 -15689464.93047  21605189.438    21605196.0664
  21042227.378   -22801198.812 9 -16981860.96547  21042227.299    21042233.6774
  21354076.588   -21680065.328 9 -16212067.72347  21354076.141    21354082.6714
  23124396.967   -10827815.356 8  -8202422.17345  23124396.324    23124404.6994
  23537769.858    -9660345.499 8  -7020901.23446  23537769.322    23537776.8994
 00  5  3  1 11 30.0000000  0  7 09 23 03 29 21 15 31
  23567073.561    -7196367.589 8  -5592879.68545  23567073.265    23567081.6734
  21456597.644   -20654654.648 9 -15816409.52747  21456597.137    21456603.3404
  21602670.117   -20813944.692 9 -15699781.97747  21602669.903    21602676.5444
  21029902.037   -22865968.495 9 -17032330.77047  21029901.962    21029908.3264
  21349331.522   -21705000.598 9 -16231497.76947  21349331.086    21349337.6294
  23106941.652   -10919543.478 8  -8273898.55945  23106940.978    23106949.2974
  23524640.989    -9729337.856 8  -7074661.47546  23524640.441    23524648.0104
 00  5  3  1 12  0.0000000  0  7 09 23 03 29 21 15 31
  23562258.425    -7221670.684 8  -5612596.30845  23562258.108    23562266.5454
  21463887.487   -20616346.277 9 -15786558.85447  21463886.980    21463893.1904
  21600261.237   -20826603.519 9 -15709646.00447  21600261.021    21600267.7024
  21017659.835   -22930301.440 9 -17082460.26247  21017659.787    21017666.1214
  21344620.080   -21729759.390 9 -16250790.30347  21344619.647    21344626.1824
  23089493.846   -11011232.378 8  -8345344.37845  23089493.156    23089501.4364
  23511596.384    -9797887.517 8  -7128076.73846  23511595.851    23511603.3944
 00  5  3  1 12 30.0000000  0  7 09 23 03 29 21 15 31
  23557535.777    -7246488.121 8  -5631934.50345  23557535.418    23557543.8524
  21471199.103   -20577923.622 9 -15756619.13147  21471198.589    21471204.8224
  21597961.915   -20838686.420 9 -15719061.25747  21597961.712    21597968.4074
  21005499.851   -22994202.162 9 -17132252.95747  21005499.805    21005506.1274
  21339941.072   -21754347.661 9 -16269949.96447  21339940.607    21339947.1334
  23072052.539   -11102886.347 8  -8416762.96645  23072051.871    23072060.1624
  23498635.369    -9865998.202 8  -7181149.95046  23498634.774    23498642.3674
 00  5  3  1 13  0.0000000  0  7 09 23 03 29 21 15 31
  23552906.999    -7270811.715 8  -5650887.88445  23552906.693    23552915.1834
  21478533.478   -20539381.304 9 -15726586.16147  21478532.941    21478539.2004
  21595773.357   -20850187.259 9 -15728022.94947  21595773.148    21595779.8634
  20993423.637   -23057662.923 9 -17181702.82347  20993423.585    20993429.8854
  21335295.529   -21778760.005 9 -16288972.53547  21335295.072    21335301.5844
  23054619.312   -11194497.830 8  -8488148.46445  23054618.759    23054626.9354
  23485759.423    -9933661.387 8  -7233874.46446  23485758.848    23485766.4654
 00  5  3  1 13 30.0000000  0  7 09 23 03 29 21 15 31
  23548371.863    -7294643.964 8  -5669458.40045  23548371.482    23548379.9394
  21485889.680   -20500724.185 9 -15696463.73847  21485889.158    21485895.4084
  21593694.851   -20861109.839 9 -15736534.05547  21593694.636    21593701.3804
  20981430.526   -23120686.797 9 -17230812.26047  20981430.458    20981436.7494
  21330682.550   -21803001.384 9 -16307861.89147  21330682.086    21330688.6004
  23037193.734   -11286069.797 8  -8559503.17245  23037193.133    23037201.3304
  23472968.217   -10000879.448 8  -7286252.12946  23472967.613    23472975.2834
 00  5  3  1 14  0.0000000  0  7 09 23 03 29 21 15 31
  23543930.794    -7317981.743 8  -5687643.62645  23543930.496    23543938.8314
  21493267.803   -20461952.096 9 -15666251.72747  21493267.261    21493273.5284
  21591726.623   -20871452.806 9 -15744593.51147  21591726.419    21591733.1504
  20969521.092   -23183271.125 9 -17279579.19947  20969521.013    20969527.2824
  21326102.308   -21827070.481 9 -16326617.00147  21326101.857    21326108.3814
  23019776.237   -11377599.163 8  -8630824.67245  23019775.601    23019783.7634
  23460262.324   -10067649.120 8  -7338280.39746  23460261.719    23460269.3844
 00  5  3  1 14 30.0000000  0  7 09 23 03 29 21 15 31
  23539584.250    -7340823.117 8  -5705442.03545  23539583.935    23539592.2014
  21500667.615   -20423065.762 9 -15635950.69847  21500667.088    21500673.3504
  21589868.786   -20881215.777 9 -15752201.02047  21589868.585    21589875.3144
  20957695.607   -23245414.239 9 -17328002.33447  20957695.529    20957701.7694
  21321554.678   -21850968.314 9 -16345238.66647  21321554.245    21321560.7134
  23002367.172   -11469084.372 8  -8702111.79145  23002366.473    23002374.5894
  23447642.183   -10133968.125 8  -7389957.50146  23447641.635    23447649.1794
 00  5  3  1 15  0.0000000  0  7 09 23 03 29 21 15 31
  23535332.413    -7363166.329 8  -5722852.27345  23535332.159    23535340.3384
  21508089.099   -20384065.677 9 -15605561.03347  21508088.570    21508094.8244
  21588121.413   -20890398.192 9 -15759356.15147  21588121.195    21588127.9344
  20945954.363   -23307114.470 9 -17376080.37047  20945954.288    20945960.5254
  21317039.727   -21874694.571 9 -16363726.62647  21317039.271    21317045.7504
  22984966.760   -11560523.625 8  -8773363.06846  22984966.109    22984974.2314
  23435108.219   -10199833.839 8  -7441281.38445  23435107.743    23435115.2634
 00  5  3  1 15 30.0000000  0  7 09 23 03 29 21 15 31
  23531175.710    -7385009.405 8  -5739872.80345  23531175.566    23531183.6604
  21515532.000   -20344952.933 9 -15575083.57947  21515531.477    21515537.7094
  21586484.515   -20899000.242 9 -15766059.04947  21586484.298    21586490.9754
  20934297.623   -23368370.826 9 -17423812.52147  20934297.538    20934303.7794
  21312557.170   -21898250.330 9 -16382081.73647  21312556.724    21312563.1924
  22967575.418   -11651915.538 8  -8844577.47046  22967574.779    22967582.9374
  23422660.822   -10265244.651 8  -7492250.81245  23422660.419    23422667.9384
 00  5  3  1 16  0.0000000  0  7 09 23 03 29 21 15 31
  23527114.556    -7406351.036 8  -5756502.58945  23527114.398    23527122.3984
  21522996.167   -20305728.622 9 -15544519.18947  21522995.640    21523001.8794
  21584958.014   -20907022.286 9 -15772309.99447  21584957.805    21584964.4114
  20922725.548   -23429182.163 9 -17471197.92247  20922725.459    20922731.7014
  21308106.926   -21921636.510 9 -16400304.70847  21308106.465    21308112.9284
  22950193.345   -11743258.922 8  -8915754.05846  22950192.692    22950200.7464
  23410300.523   -10330198.819 8  -7542864.39946  23410300.076    23410307.5974
 00  5  3  1 16 30.0000000  0  7 09 23 03 29 21 15 31
  23523148.978    -7427189.945 8  -5772740.64545  23523148.793    23523156.8374
  21530481.345   -20266393.847 9 -15513868.72947  21530480.798    21530487.0584
  21583541.814   -20914464.579 9 -15778109.18547  21583541.605    21583548.2054
  20911238.306   -23489547.725 9 -17518235.96247  20911238.231    20911244.4344
  21303688.729   -21944853.959 9 -16418396.20047  21303688.293    21303694.7574
  22932820.682   -11834552.639 8  -8986891.94246  22932820.029    22932828.0394
  23398027.435   -10394694.485 8  -7593120.71446  23398026.943    23398034.4764
 00  5  3  1 17  0.0000000  0  7 09 23 03 29 21 15 31
  23519279.655    -7447522.992 8  -5788584.51545  23519279.472    23519287.4894
  21537987.618   -20226948.142 9 -15483131.83047  21537987.092    21537993.3404
  21582236.227   -20921325.727 9 -15783455.53247  21582235.989    21582242.5954
  20899836.386   -23549464.826 9 -17564924.55147  20899836.315    20899842.5174
  21299302.837   -21967901.756 9 -16436355.49947  21299302.420    21299308.8794
  22915458.067   -11925793.774 8  -9057988.85546  22915457.399    22915465.3704
  23385842.040   -10458728.504 8  -7643017.30445  23385841.529    23385849.1064
 00  5  3  1 17 30.0000000  0  7 09 23 03 29 21 15 31
  23515506.597    -7467349.900 8  -5804033.99445  23515506.524    23515514.5054
  21545514.598   -20187393.623 9 -15452310.13947  21545514.061    21545520.3074
  21581040.916   -20927607.150 9 -15788350.15447  21581040.676    21581047.2924
  20888519.849   -23608933.538 9 -17611263.74747  20888519.779    20888525.9444
  21294948.996   -21990781.404 9 -16454183.77647  21294948.554    21294955.0034
  22898105.450   -12016982.286 8  -9129044.75546  22898104.703    22898112.6634
  23373744.714   -10522300.240 8  -7692553.68446  23373744.234    23373751.7464
 00  5  3  1 18  0.0000000  0  7 09 23 03 29 21 15 31
  23511830.525    -7486667.606 8  -5819086.70945  23511830.448    23511838.3984
  21553062.396   -20147729.818 9 -15421403.28647  21553061.856    21553068.1124
  21579956.202   -20933307.316 9 -15792791.83847  21579955.967    21579962.6044
  20877289.084   -23667951.337 9 -17657251.58547  20877289.004    20877295.1554
  21290627.250   -22013492.229 9 -16471880.50247  21290626.806    21290633.2494
  22880763.373   -12108115.286 8  -9200057.39846  22880762.608    22880770.5254
  23361736.005   -10585406.283 8  -7741727.17546  23361735.517    23361743.0074
 00  5  3  1 18 30.0000000  0  7 09 23 03 29 21 15 31
  23508251.544    -7505475.183 8  -5833741.91445  23508251.396    23508259.4564
  21560630.764   -20107957.983 9 -15390412.25647  21560630.216    21560636.4624
  21578981.923   -20938426.990 9 -15796781.19747  21578981.692    21578988.3634
  20866144.304   -23726517.356 9 -17702887.38347  20866144.209    20866150.3434
  21286337.487   -22036035.139 9 -16489446.38647  21286337.026    21286343.4524
  22863432.115   -12199191.594 8  -9271025.87646  22863431.366    22863439.2714
  23349816.165   -10648045.048 8  -7790536.53946  23349815.699    23349823.2404
 00  5  3  1 19  0.0000000  0  7 09 23 03 29 21 15 31
  23504769.826    -7523771.116 8  -5847998.41945  23504769.806    23504777.7444
  21568219.471   -20068079.166 9 -15359337.86847  21568218.903    21568225.1564
  21578118.040   -20942966.681 9 -15800318.62547  21578117.800    21578124.5294
  20855085.591   -23784630.946 9 -17748170.64047  20855085.525    20855091.6324
  21282079.444   -22058411.196 9 -16506882.25747  21282078.993    21282085.4034
  22846111.795   -12290209.903 8  -9341949.14646  22846111.097    22846119.0494
  23337985.640   -10710215.131 8  -7838980.72446  23337985.149    23337992.5694
 00  5  3  1 19 30.0000000  0  7 09 23 03 29 21 15 31
  23501386.109    -7541552.690 8  -5861854.13845  23501386.099    23501394.0414
  21575828.633   -20028093.030 9 -15328179.85847  21575828.045    21575834.3064
  21577364.725   -20946925.190 9 -15803403.18347  21577364.501    21577371.2624
  20844113.490   -23842289.556 9 -17793099.37447  20844113.411    20844119.5034
  21277853.323   -22080619.386 9 -16524187.32547  21277852.879    21277859.3034
  22828803.039   -12381167.612 8  -9412825.21546  22828802.409    22828810.2704
  23326244.870   -10771913.355 8  -7887057.23346  23326244.387    23326251.6664
 00  5  3  1 20  0.0000000  0  7 09 23 03 29 21 15 31
  23498100.302    -7558819.690 8  -5875308.88245  23498100.264    23498108.2234
  21583457.807   -19988001.406 9 -15296939.64447  21583457.253    21583463.4814
  21576721.798   -20950303.839 9 -15806035.90547  21576721.576    21576728.3544
  20833227.954   -23899493.189 9 -17837673.57647  20833227.876    20833233.9504
  21273658.833   -22102661.783 9 -16541363.20047  21273658.363    21273664.7724
  22811506.034   -12472064.068 8  -9483653.55246  22811505.344    22811513.1954
  23314594.026   -10833138.780 8  -7934765.31446  23314593.563    23314600.7844
 00  5  3  1 20 30.0000000  0  7 09 23 03 29 21 15 31
  23494912.685    -7575570.503 8  -5888361.40945  23494912.610    23494920.4434
  21591106.943   -19947804.825 9 -15265617.65147  21591106.388    21591112.6444
  21576189.260   -20953102.438 9 -15808216.64647  21576189.025    21576195.8114
  20822429.273   -23956240.431 9 -17881892.15247  20822429.182    20822435.2524
  21269495.807   -22124538.528 9 -16558409.99747  21269495.335    21269501.7264
  22794220.883   -12562897.503 8  -9554432.76346  22794220.230    22794228.1514
  23303033.573   -10893889.477 8  -7982103.48646  23303033.086    23303040.2804
 00  5  3  1 21  0.0000000  0  7 09 23 03 29 21 15 31
  23491823.472    -7591804.155 8  -5901010.93945  23491823.360    23491831.3024
  21598775.810   -19907504.735 9 -15234214.99647  21598775.259    21598781.5314
  21575766.986   -20955321.644 9 -15809945.91047  21575766.737    21575773.4964
  20811717.566   -24012530.718 9 -17925754.66347  20811717.478    20811723.5264
  21265364.150   -22146250.457 9 -16575328.36647  21265363.675    21265370.0804
  22776947.988   -12653666.852 8  -9625162.05346  22776947.317    22776955.2244
  23291563.699   -10954164.013 8  -8029070.61346  23291563.197    23291570.4084
 00  5  3  1 21 30.0000000  0  7 09 23 03 29 21 15 31
  23488833.215    -7607518.095 8  -5913255.50945  23488833.040    23488841.0174
  21606464.379   -19867101.063 9 -15202731.63447  21606463.806    21606470.0774
  21575455.040   -20956961.097 9 -15811223.42047  21575454.803    21575461.4974
  20801093.117   -24068362.260 9 -17969259.71047  20801093.023    20801099.0634
  21261263.859   -22167797.312 9 -16592118.11447  21261263.414    21261269.8234
  22759687.772   -12744369.558 8  -9695839.41846  22759687.077    22759695.0284
  23280184.857   -11013959.689 8  -8075664.61146  23280184.374    23280191.6104
 00  5  3  1 22  0.0000000  0  7 09 23 03 29 21 15 31
  23485942.022    -7622710.929 8  -5925094.01645  23485941.881    23485949.8224
  21614172.543   -19826594.412 9 -15171168.02347  21614171.970    21614178.2764
  21575253.416   -20958020.809 9 -15812049.18647  21575253.163    21575259.8164
  20790556.275   -24123733.727 9 -18012406.25847  20790556.158    20790562.1834
  21257194.992   -22189179.461 9 -16608779.51247  21257194.530    21257200.9164
  22742440.505   -12835003.912 8  -9766463.51146  22742439.807    22742447.8504
  23268897.527   -11073274.596 8  -8121883.97246  23268897.028    23268904.3714
 00  5  3  1 22 30.0000000  0  7 09 23 03 29 21 15 31
  23483150.282    -7637381.235 8  -5936525.35345  23483150.163    23483158.0764
  21621900.161   -19785985.545 9 -15139524.76947  21621899.590    21621905.8754
  21575162.138   -20958500.810 9 -15812423.23747  21575161.886    21575168.4564
  20780107.108   -24178644.058 9 -18055193.47647  20780107.001    20780113.0184
  21253157.324   -22210397.446 9 -16625312.99647  21253156.856    21253163.2424
  22725206.615   -12925568.409 8  -9837033.19146  22725205.918    22725213.9034
  23257702.092   -11132106.820 8  -8167727.22546  23257701.558    23257708.9894
 00  5  3  1 23  0.0000000  0  7 09 23 03 29 21 15 31
  23480458.254    -7651527.726 8  -5947548.53945  23480458.137    23480465.9954
  21629647.067   -19745275.298 9 -15107802.51047  21629646.487    21629652.7604
  21575180.980   -20958401.850 9 -15812346.14047  21575180.723    21575187.2784
  20769745.902   -24233092.427 9 -18097620.72847  20769745.804    20769751.7864
  21249150.713   -22231452.192 9 -16641719.27647  21249150.249    21249156.6324
  22707986.277   -13016061.632 8  -9907547.31046  22707985.559    22707993.5554
  23246598.916   -11190454.795 8  -8213193.13946  23246598.385    23246605.7124
 00  5  3  1 23 30.0000000  0  7 09 23 03 29 21 15 31
  23477866.166    -7665148.848 8  -5958162.33245  23477865.992    23477873.9224
  21637413.157   -19704464.260 9 -15076001.71347  21637412.591    21637418.8824
  21575309.954   -20957724.053 9 -15811818.00147  21575309.714    21575316.2354
  20759472.796   -24287077.668 9 -18139687.10047  20759472.686    20759478.6554
  21245175.214   -22252343.530 9 -16657998.22947  21245174.742    21245181.1164
  22690779.888   -13106481.671 8  -9978004.42046  22690779.101    22690787.0954
  23235588.086   -11248316.736 8  -8258280.33846  23235587.587    23235594.8114
 00  5  3  1 24  0.0000000  0  7 09 23 03 29 21 15 31
  23475374.389    -7678243.105 8  -5968365.59245  23475374.197    23475382.0814
  21645198.306   -19663553.150 9 -15044122.93547  21645197.741    21645204.0094
  21575549.038   -20956467.554 9 -15810838.92447  21575548.808    21575555.3374
  20749288.086   -24340598.508 9 -18181391.59847  20749287.967    20749293.9334
  21241230.720   -22273071.907 9 -16674150.19347  21241230.252    21241236.6204
  22673587.663   -13196826.946 8 -10048403.26246  22673586.962    22673594.9004
  23224670.138   -11305690.567 8  -8302987.18246  23224669.625    23224676.8144
 00  5  3  1 24 30.0000000  0  7 09 23 03 29 21 15 31
  23472983.104    -7690809.015 8  -5978157.15045  23472983.022    23472990.7944
  21653002.389   -19622542.493 9 -15012166.59347  21653001.819    21653008.0864
  21575898.172   -20954632.804 9 -15809409.26647  21575897.947    21575904.5094
  20739191.932   -24393653.803 9 -18222733.34347  20739191.826    20739197.7744
  21237317.137   -22293637.828 9 -16690175.56947  21237316.672    21237323.0464
  22656410.074   -13287095.371 8 -10118742.23646  22656409.354    22656417.2894
  23213845.484   -11362574.296 8  -8347312.14046  23213844.990    23213852.1034
 00  5  3  1 25  0.0000000  0  7 09 23 03 29 21 15 31
  23470692.628    -7702845.590 8  -5987536.24645  23470692.478    23470700.2244
  21660825.219   -19581433.234 9 -14980133.41747  21660824.653    21660830.8834
  21576357.191   -20952220.480 9 -15807529.54647  21576356.949    21576363.5484
  20729184.514   -24446243.043 9 -18263711.92447  20729184.404    20729190.3454
  21233434.386   -22314041.688 9 -16706074.66847  21233433.940    21233440.3124
  22639247.408   -13377285.548 8 -10189020.22746  22639246.706    22639254.6604
  23203114.321   -11418966.668 8  -8391254.20446  23203113.819    23203121.1014
 00  5  3  1 25 30.0000000  0  7 09 23 03 29 21 15 31
  23468503.166    -7714351.298 8  -5996501.66945  23468502.964    23468510.7444
  21668666.720   -19540225.931 9 -14948023.84147  21668666.145    21668672.4064
  21576926.111   -20949230.639 9 -15805199.81247  21576925.875    21576932.5364
  20719265.985   -24498365.074 9 -18304326.44647  20719265.891    20719271.8074
  21229582.381   -22334283.916 9 -16721847.81147  21229581.936    21229588.3154
  22622099.973   -13467395.564 8 -10259235.77546  22622099.326    22622107.1394
  23192477.039   -11474865.492 8  -8434811.68246  23192476.582    23192483.9304
 00  5  3  1 26  0.0000000  0  7 09 23 03 29 21 15 31
  23466414.960    -7725324.649 8  -6005052.27245  23466414.709    23466422.4384
  21676526.815   -19498920.940 9 -14915838.15047  21676526.223    21676532.5004
  21577604.848   -20945663.527 9 -15802420.25847  21577604.635    21577611.3634
  20709436.646   -24550018.541 9 -18344575.85547  20709436.526    20709442.4434
  21225761.093   -22354364.968 9 -16737495.36447  21225760.652    21225767.0194
  22604968.172   -13557423.642 8 -10329387.46646  22604967.486    22604975.2824
  23181934.069   -11530269.193 8  -8477983.36446  23181933.621    23181941.0074
 00  5  3  1 26 30.0000000  0  7 09 23 03 29 21 15 31
  23464428.260    -7735764.870 8  -6013187.45945  23464428.045    23464435.7474
  21684405.260   -19457519.450 9 -14883577.26347  21684404.679    21684410.9544
  21578393.356   -20941519.854 9 -15799191.43447  21578393.139    21578399.9114
  20699696.561   -24601202.821 9 -18384459.66147  20699696.439    20699702.3504
  21221970.292   -22374285.623 9 -16753017.93947  21221969.826    21221976.1934
  22587852.203   -13647368.288 8 -10399474.14646  22587851.536    22587859.2804
  23171485.703   -11585176.041 8  -8520767.89946  23171485.245    23171492.5234
 00  5  3  1 27  0.0000000  0  7 09 23 03 29 21 15 31
  23462543.133    -7745670.738 8  -6020906.25945  23462542.890    23462550.5884
  21692301.931   -19416022.162 9 -14851241.72747  21692301.372    21692307.6624
  21579291.484   -20936800.385 9 -15795513.94247  21579291.257    21579298.0394
  20690045.858   -24651917.233 9 -18423977.34047  20690045.750    20690051.6524
  21218209.992   -22394046.203 9 -16768415.77747  21218209.519    21218215.8814
  22570752.496   -13737227.904 8 -10469494.57346  22570751.784    22570759.5264
  23161132.107   -11639584.451 8  -8563164.02946  23161131.662    23161138.9024
 00  5  3  1 27 30.0000000  0  7 09 23 03 29 21 15 31
  23460760.094    -7755040.561 8  -6028207.35945  23460759.844    23460767.5184
  21700216.818   -19374429.150 9 -14818831.59947  21700216.253    21700222.5224
  21580299.148   -20931505.176 9 -15791387.81847  21580298.920    21580305.7044
  20680484.835   -24702160.451 9 -18463127.85247  20680484.728    20680490.6154
  21214480.093   -22413646.902 9 -16783689.03447  21214479.641    21214485.9874
  22553669.262   -13827000.424 8 -10539447.13346  22553668.560    22553676.2864
  23150873.797   -11693492.291 8  -8605170.11046  23150873.314    23150880.4654
 00  5  3  1 28  0.0000000  0  7 09 23 03 29 21 15 31
  23459079.221    -7763873.457 8  -6035090.07545  23459078.998    23459086.6384
  21708149.766   -19332741.290 9 -14786347.56047  21708149.211    21708155.4834
  21581416.310   -20925634.733 9 -15786813.45547  21581416.086    21581422.8684
  20671013.704   -24751931.490 9 -18501910.43147  20671013.595    20671019.4774
  21210780.548   -22433088.098 9 -16798838.00147  21210780.092    21210786.4174
  22536603.039   -13916683.964 8 -10609330.34846  22536602.335    22536610.0614
  23140711.015   -11746898.000 8  -8646784.92346  23140710.489    23140717.6464
 00  5  3  1 28 30.0000000  0  7 09 23 03 29 21 15 31
  23457500.728    -7772168.230 8  -6041553.47345  23457500.460    23457508.1264
  21716100.623   -19290959.323 9 -14753790.19847  21716100.077    21716106.3334
  21582642.847   -20919189.582 9 -15781791.27547  21582642.597    21582649.3824
  20661632.521   -24801229.699 9 -18540324.57847  20661632.410    20661638.2784
  21207111.308   -22452369.996 9 -16813862.84147  21207110.833    21207117.1804
  22519554.018   -14006276.838 8 -10679142.93246  22519553.338    22519560.9884
  23130643.909   -11799800.452 8  -8688007.58546  23130643.399    23130650.5914
 00  5  3  1 29  0.0000000  0  7 09 23 03 29 21 15 31
  23456024.859    -7779923.606 8  -6047596.57245  23456024.602    23456032.3114
  21724069.320   -19249083.477 9 -14721159.68147  21724068.770    21724075.0174
  21583978.564   -20912170.420 9 -15776321.81347  21583978.323    21583985.0974
  20652341.563   -24850053.922 9 -18578369.37847  20652341.472    20652347.2964
  21203472.256   -22471493.282 9 -16828764.08447  21203471.782    21203478.1104
  22502522.695   -14095776.933 8 -10748883.20446  22502522.018    22502529.6264
  23120673.004   -11852197.533 8  -8728836.44646  23120672.501    23120679.7254
 00  5  3  1 29 30.0000000  0  7 09 23 03 29 21 15 31
  23454651.967    -7787138.117 8  -6053218.20745  23454651.663    23454659.3484
  21732055.774   -19207114.492 9 -14688456.58847  21732055.211    21732061.4684
  21585423.469   -20904577.714 9 -15770405.43247  21585423.222    21585429.9804
  20643140.950   -24898403.158 9 -18616044.06247  20643140.861    20643146.6894
  21199863.339   -22490458.102 9 -16843541.85147  21199862.890    21199869.1864
  22485509.289   -14185182.707 8 -10818549.99246  22485508.646    22485516.1474
  23110798.640   -11904087.355 8  -8769270.03646  23110798.098    23110805.4034
 00  5  3  1 30  0.0000000  0  7 09 23 03 29 21 15 31
  23453381.354    -7793815.291 8  -6058421.13745  23453381.092    23453388.7774
  21740058.984   -19165057.387 9 -14655684.83247  21740058.421    21740064.6664
  21586976.548   -20896416.368 9 -15764045.95847  21586976.307    21586983.0274
  20634029.992   -24946281.271 9 -18653351.64147  20634029.919    20634035.7534
  21196283.703   -22509269.238 9 -16858199.86647  21196283.239    21196289.5304
  22468513.353   -14274496.635 8 -10888145.18846  22468512.683    22468520.2574
  23101020.161   -11955472.966 8  -8809310.75946  23101019.657    23101027.0114
 00  5  3  1 30 30.0000000  0  7 09 23 03 29 21 15 31
  23452214.094    -7799948.908 8  -6063200.52945  23452213.830    23452221.4564
  21748079.875   -19122907.359 9 -14622840.67047  21748079.318    21748085.5774
  21588638.639   -20887681.942 9 -15757239.93047  21588638.387    21588645.0834
  20625009.838   -24993682.233 9 -18690287.41147  20625009.763    20625015.5824
  21192734.147   -22527922.240 9 -16872734.65747  21192733.686    21192739.9774
  22451536.198   -14363711.827 8 -10957663.46046  22451535.545    22451543.0884
  23091338.942   -12006347.875 8  -8848953.51346  23091338.439    23091345.8014
 00  5  3  1 31  0.0000000  0  7 09 23 03 29 21 15 31
  23451150.607    -7805537.367 8  -6067555.11545  23451150.346    23451157.9404
  21756118.376   -19080664.631 9 -14589924.27447  21756117.823    21756124.0984
  21590409.797   -20878374.576 9 -15749987.45647  21590409.550    21590416.2124
  20616080.808   -25040604.510 9 -18726850.18047  20616080.714    20616086.5134
  21189214.800   -22546416.481 9 -16887145.73547  21189214.342    21189220.6424
  22434578.328   -14452825.816 8 -11027102.86146  22434577.665    22434585.2094
  23081755.451   -12056709.573 8  -8888196.36446  23081754.904    23081762.2934
 00  5  3  1 31 30.0000000  0  7 09 23 03 29 21 15 31
  23450190.960    -7810580.221 8  -6071484.56545  23450190.651    23450198.2534
  21764174.353   -19038330.286 9 -14556936.49547  21764173.796    21764180.0664
  21592289.688   -20868495.635 9 -15742289.59347  21592289.409    21592296.0474
  20607242.875   -25087048.041 9 -18763039.90347  20607242.783    20607248.5494
  21185725.454   -22564753.080 9 -16901433.97747  21185725.008    21185731.2894
  22417639.971   -14541837.387 8 -11096462.47446  22417639.322    22417646.7684
  23072269.843   -12106557.022 8  -8927038.50546  23072269.300    23072276.6744
 00  5  3  1 32  0.0000000  0  7 09 23 03 29 21 15 31
  23449335.282    -7815076.634 8  -6074988.21345  23449334.973    23449342.5514
  21772247.602   -18995905.196 9 -14523878.00047  21772247.027    21772253.3014
  21594278.147   -20858045.992 9 -15734147.02947  21594277.873    21594284.5534
  20598496.201   -25133012.113 9 -18798856.01748  20598496.088    20598501.8414
  21182265.923   -22582932.796 9 -16915599.97347  21182265.463    21182271.7594
  22400721.378   -14630744.691 8 -11165740.81846  22400720.734    22400728.2164
  23062882.313   -12155889.079 8  -8965479.04746  23062881.739    23062889.1324
 00  5  3  1 32 30.0000000  0  7 09 23 03 29 21 15 31
  23448583.655    -7819025.971 8  -6078065.57145  23448583.394    23448591.0214
  21780337.940   -18953390.239 9 -14490749.48447  21780337.356    21780343.6344
  21596375.105   -20847026.268 9 -15725560.25247  21596374.851    21596381.5234
  20589840.774   -25178496.400 9 -18834298.27848  20589840.660    20589846.4054
  21178836.235   -22600955.951 9 -16929643.98147  21178835.767    21178842.0814
  22383823.006   -14719546.141 8 -11234936.68646  22383822.322    22383829.7934
  23053593.081   -12204704.516 8  -9003517.01946  23053592.510    23053599.8574
 00  5  3  1 33  0.0000000  0  7 09 23 03 29 21 15 31
  23447936.429    -7822427.150 8  -6080715.78745  23447936.072    23447943.6914
  21788445.310   -18910785.854 9 -14457551.28847  21788444.714    21788450.9954
  21598580.324   -20835437.728 9 -15716530.24047  21598580.084    21598586.7234
  20581276.796   -25223500.293 9 -18869366.20948  20581276.689    20581282.4054
  21175436.191   -22618823.018 9 -16943566.35347  21175435.741    21175442.0434
  22366945.057   -14808239.943 8 -11304048.67546  22366944.387    22366951.8574
  23044402.385   -12253001.769 8  -9041151.21546  23044401.813    23044409.1434
 00  5  3  1 33 30.0000000  0  7 09 23 03 29 21 15 31
  23447393.558    -7825279.457 8  -6082938.32345  23447393.227    23447400.8294
  21796569.571   -18868092.734 9 -14424283.94047  21796568.969    21796575.2284
  21600893.639   -20823281.216 9 -15707057.65247  21600893.393    21600900.0204
  20572804.350   -25268023.135 9 -18904059.28848  20572804.234    20572809.9474
  21172065.788   -22636534.558 9 -16957367.54147  21172065.334    21172071.6194
  22350087.906   -14896824.565 8 -11373075.58846  22350087.246    22350094.7334
  23035310.443   -12300779.751 8  -9078380.77546  23035309.887    23035317.2514
 00  5  3  1 34  0.0000000  0  7 09 23 03 29 21 15 31
  23446955.482    -7827581.476 8  -6084732.06145  23446955.121    23446962.7584
  21804710.662   -18825311.004 9 -14390947.54747  21804710.063    21804716.3544
  21603314.968   -20810556.805 9 -15697142.54647  21603314.756    21603321.3884
  20564423.666   -25312063.829 9 -18938376.67248  20564423.546    20564429.2524
  21168724.932   -22654090.943 9 -16971047.83147  21168724.457    21168730.7464
  22333251.998   -14985297.562 8 -11442015.51946  22333251.372    22333258.7994
  23026317.669   -12348036.491 8  -9115204.17746  23026317.132    23026324.5884
 00  5  3  1 34 30.0000000  0  7 09 23 03 29 21 15 31
  23446622.042    -7829333.586 8  -6086097.30845  23446621.772    23446629.2564
  21812868.264   -18782442.319 9 -14357543.39547  21812867.716    21812874.0064
  21605844.007   -20797266.791 9 -15686786.70747  21605843.776    21605850.4484
  20556134.640   -25355622.740 9 -18972318.64248  20556134.524    20556140.2134
  21165413.382   -22671493.233 9 -16984608.05047  21165412.900    21165419.1824
  22316437.520   -15073657.999 8 -11510867.73846  22316436.873    22316444.3574
  23017424.282   -12394771.285 8  -9151620.86646  23017423.759    23017431.1404
 00  5  3  1 35  0.0000000  0  7 09 23 03 29 21 15 31
  23446393.446    -7830534.427 8  -6087032.99145  23446393.220    23446400.6754
  21821042.496   -18739486.573 9 -14324071.40247  21821041.927    21821048.2384
  21608480.614   -20783411.407 9 -15675990.31847  21608480.380    21608487.0724
  20547937.519   -25398698.640 9 -19005884.24048  20547937.419    20547943.1014
  21162131.154   -22688741.219 9 -16998048.03047  21162130.672    21162136.9694
  22299644.901   -15161903.366 8 -11579630.28946  22299644.237    22299651.7374
  23008630.636   -12440982.276 8  -9187629.39546  23008630.077    23008637.3614
 00  5  3  1 35 30.0000000  0  7 09 23 03 29 21 15 31
  23446269.956    -7831183.227 8  -6087538.52245  23446269.766    23446277.1884
  21829233.138   -18696444.508 9 -14290532.14847  21829232.567    21829238.8784
  21611224.581   -20768991.728 9 -15664754.22047  21611224.331    21611231.0744
  20539832.370   -25441291.185 9 -19039073.19748  20539832.270    20539837.9584
  21158878.214   -22705835.528 9 -17011368.26447  21158877.744    21158884.0204
  22282874.585   -15250032.058 8 -11648301.93946  22282873.878    22282881.3494
  22999936.844   -12486668.470 8  -9223229.01246  22999936.335    22999943.5054
 00  5  3  1 36  0.0000000  0  7 09 23 03 29 21 15 31
  23446251.660    -7831279.202 8  -6087613.27945  23446251.418    23446258.8734
  21837440.112   -18653316.802 9 -14256926.16547  21837439.525    21837445.8254
  21614075.798   -20754008.645 9 -15653079.11447  21614075.547    21614082.2934
  20531819.345   -25483399.713 9 -19071885.00448  20531819.247    20531824.9224
  21155654.467   -22722776.372 9 -17024568.91547  21155653.996    21155660.2604
  22266126.692   -15338042.362 8 -11716881.33746  22266125.992    22266133.5244
  22991343.234   -12531828.546 8  -9258418.66646  22991342.674    22991349.7694
 00  5  3  1 36 30.0000000  0  7 09 23 03 29 21 15 31
  23446338.808    -7830821.259 8  -6087256.40645  23446338.578    23446345.9754
  21845663.340   -18610103.414 9 -14223253.40747  21845662.762    21845669.0664
  21617034.061   -20738462.917 9 -15640965.57547  21617033.819    21617040.5684
  20523898.616   -25525023.381 9 -19104318.99248  20523898.511    20523904.1594
  21152459.864   -22739564.087 9 -17037650.24047  21152459.377    21152465.6574
  22249401.807   -15425931.721 8 -11785366.48746  22249401.150    22249408.6364
  22982850.065   -12576460.787 8  -9293197.00846  22982849.494    22982856.4744
 00  5  3  1 37  0.0000000  0  7 09 23 03 29 21 15 31
  23446531.405    -7829809.043 8  -6086467.62945  23446531.104    23446538.5924
  21853902.718   -18566805.256 9 -14189514.59347  21853902.138    21853908.4364
  21620099.155   -20722355.949 9 -15628414.70547  21620098.917    21620105.6774
  20516070.175   -25566162.054 9 -19136375.06148  20516070.070    20516075.7034
  21149294.266   -22756199.256 9 -17050612.69947  21149293.789    21149300.0724
  22232700.205   -15513698.800 8 -11853756.34846  22232699.523    22232707.0804
  22974457.570   -12620564.079 8  -9327563.19346  22974457.004    22974463.8924
 00  5  3  1 37 30.0000000  0  7 09 23 03 29 21 15 31
  23446829.623    -7828241.548 8  -6085246.17345  23446829.378    23446836.8934
  21862158.233   -18523422.389 9 -14155709.77347  21862157.643    21862163.9484
  21623270.995   -20705688.234 9 -15615426.89947  21623270.731    21623277.4844
  20508334.161   -25606814.830 9 -19168052.51348  20508334.066    20508339.6794
  21146157.800   -22772681.544 9 -17063456.03247  21146157.330    21146163.5814
  22216022.387   -15601341.326 8 -11922049.17646  22216021.688    22216029.1584
  22966165.869   -12664136.867 8  -9361515.98946  22966165.375    22966172.2604
 00  5  3  1 38  0.0000000  0  7 09 23 03 29 21 15 31
  23447233.785    -7826117.629 8  -6083591.13045  23447233.528    23447241.0704
  21870429.788   -18479955.081 9 -14121839.15247  21870429.227    21870435.4954
  21626549.358   -20688460.333 9 -15602002.58047  21626549.102    21626555.8574
  20500690.786   -25646980.757 9 -19199350.60048  20500690.697    20500696.3214
  21143050.364   -22789011.352 9 -17076180.55147  21143049.861    21143056.1154
  22199368.745   -15688856.705 8 -11990242.91146  22199368.027    22199375.5004
  22957975.416   -12707177.669 8  -9395054.24846  22957974.915    22957981.8574
 00  5  3  1 38 30.0000000  0  7 09 23 03 29 21 15 31
  23447743.944    -7823436.880 8  -6081502.20245  23447743.665    23447751.1564
  21878717.228   -18436404.177 9 -14087903.39347  21878716.650    21878722.9534
  21629934.040   -20670673.924 9 -15588143.06747  21629933.788    21629940.5464
  20493140.115   -25686659.640 9 -19230269.17748  20493140.024    20493145.6474
  21139971.852   -22805188.957 9 -17088786.46747  21139971.352    21139977.5944
  22182739.582   -15776243.379 8 -12058336.36946  22182738.859    22182746.2894
  22949886.389   -12749685.488 8  -9428177.19846  22949885.885    22949892.9874
 00  5  3  1 39  0.0000000  0  7 09 23 03 29 21 15 31
  23448360.044    -7820198.941 8  -6078979.09845  23448359.788    23448367.2024
  21887020.533   -18392770.116 9 -14053902.83647  21887019.961    21887026.2584
  21633424.831   -20652329.941 9 -15573849.07947  21633424.572    21633431.3194
  20485682.216   -25725851.155 9 -19260807.98448  20485682.118    20485687.7244
  21136922.167   -22821214.999 9 -17101274.28247  21136921.684    21136927.9054
  22166135.247   -15863499.464 8 -12126328.05946  22166134.504    22166141.9814
  22941899.032   -12791658.822 8  -9460883.65146  22941898.525    22941905.7544
 00  5  3  1 39 30.0000000  0  7 09 23 03 29 21 15 31
  23449082.357    -7816402.946 8  -6076021.15745  23449082.098    23449089.4744
  21895339.583   -18349053.174 9 -14019837.69947  21895339.012    21895345.3084
  21637021.539   -20633429.317 9 -15559121.35247  21637021.252    21637028.0114
  20478317.172   -25764554.473 9 -19290966.38248  20478317.066    20478322.6634
  21133901.347   -22837089.580 9 -17113644.08047  21133900.865    21133907.0794
  22149556.161   -15950623.034 8 -12194216.51146  22149555.432    22149562.8454
  22934013.593   -12833096.454 8  -9493172.69446  22934013.053    22934020.3814
 00  5  3  1 40  0.0000000  0  7 09 23 03 29 21 15 31
  23449911.013    -7812048.267 8  -6072627.86645  23449910.734    23449918.0744
  21903674.319   -18305253.728 9 -13985708.26947  21903673.762    21903680.0724
  21640723.993   -20613972.924 9 -15543960.54947  21640723.689    21640730.4814
  20471045.129   -25802769.236 9 -19320744.08948  20471045.020    20471050.5984
  21130909.327   -22852812.706 9 -17125895.85047  21130908.846    21130915.0704
  22133002.700   -16037611.804 8 -12261999.90946  22133001.982    22133009.3794
  22926230.366   -12873997.227 8  -9525043.39746  22926229.801    22926237.2084
 00  5  3  1 40 30.0000000  0  7 09 23 03 29 21 15 31
  23450846.054    -7807134.446 8  -6068798.87645  23450845.777    23450853.0974
  21912024.638   -18261372.556 9 -13951515.15847  21912024.091    21912030.4044
  21644531.887   -20593962.245 9 -15528367.84047  21644531.582    21644538.3854
  20463866.128   -25840495.133 9 -19350140.85948  20463866.010    20463871.5684
  21127946.039   -22868384.777 9 -17138029.92347  21127945.568    21127951.7804
  22116475.257   -16124463.868 8 -12329676.79546  22116474.563    22116481.8934
  22918549.477   -12914360.218 8  -9556495.05746  22918548.939    22918556.3804
 00  5  3  1 41  0.0000000  0  7 09 23 03 29 21 15 31
  23451887.625    -7801660.461 8  -6064533.41645  23451887.356    23451894.6684
  21920390.593   -18217409.363 9 -13917258.13547  21920390.030    21920396.3434
  21648445.150   -20573397.839 9 -15512343.65247  21648444.883    21648451.6894
  20456780.322   -25877731.151 9 -19379155.90448  20456780.196    20456785.7514
  21125011.542   -22883805.674 9 -17150046.19647  21125011.059    21125017.2594
  22099974.234   -16211176.822 8 -12397245.27346  22099973.537    22099980.8924
  22910971.258   -12954183.909 8  -9587526.47046  22910970.715    22910978.1674
 00  5  3  1 41 30.0000000  0  7 09 23 03 29 21 15 31
  23453035.917    -7795625.963 8  -6059831.17945  23453035.602    23453042.9134
  21928771.951   -18173364.898 8 -13882937.78447  21928771.387    21928777.7154
  21652463.493   -20552281.280 9 -15495889.21847  21652463.222    21652470.0534
  20449787.701   -25914477.446 9 -19407789.34948  20449787.577    20449793.1124
  21122105.546   -22899076.663 9 -17161945.65747  21122105.081    21122111.2794
  22083500.127   -16297748.962 8 -12464704.02846  22083499.442    22083506.7304
  22903495.935   -12993467.117 8  -9618136.74246  22903495.380    22903502.7534
 00  5  3  1 42  0.0000000  0  7 09 23 03 29 21 15 31
  23454290.755    -7789031.420 8  -6054692.54745  23454290.502    23454297.7374
  21937168.589   -18129240.420 9 -13848555.08147  21937168.025    21937174.3354
  21656586.455   -20530614.745 9 -15479006.23847  21656586.207    21656593.0604
  20442888.234   -25950734.142 9 -19436041.28848  20442888.103    20442893.6434
  21119227.957   -22914198.312 9 -17173728.75347  21119227.493    21119233.6924
  22067053.052   -16384178.724 8 -12532051.84246  22067052.338    22067059.5734
  22896123.536   -13032209.305 8  -9648325.44346  22896123.064    22896130.2674
 00  5  3  1 42 30.0000000  0  7 09 23 03 29 21 15 31
  23455652.515    -7781875.504 8  -6049116.48445  23455652.180    23455659.4374
  21945580.495   -18085035.569 9 -13814109.75447  21945579.931    21945586.2214
  21660814.056   -20508398.583 9 -15461694.97347  21660813.811    21660820.6394
  20436082.100   -25986500.363 9 -19463911.03648  20436081.975    20436087.5144
  21116378.903   -22929170.163 9 -17185395.12247  21116378.435    21116384.6334
  22050633.528   -16470463.589 8 -12599286.75046  22050632.845    22050640.0404
  22888854.543   -13070408.813 8  -9678091.27746  22888854.006    22888861.0024
 00  5  3  1 43  0.0000000  0  7 09 23 03 29 21 15 31
  23457121.077    -7774158.151 8  -6043102.94045  23457120.753    23457127.9604
  21954007.557   -18040751.016 9 -13779602.31847  21954007.007    21954013.3094
  21665145.979   -20485634.298 9 -15443956.59447  21665145.712    21665152.5304
  20429369.320   -26021776.091 9 -19491398.58548  20429369.212    20429374.7404
  21113558.246   -22943992.832 9 -17196945.24047  21113557.768    21113563.9724
  22034241.829   -16556602.030 8 -12666407.56446  22034241.182    22034248.3454
  22881688.866   -13108065.073 8  -9707433.79846  22881688.307    22881695.1474
 00  5  3  1 43 30.0000000  0  7 09 23 03 29 21 15 31
  23458696.575    -7765878.561 8  -6036651.28145  23458696.242    23458703.5424
  21962449.780   -17996386.835 9 -13745032.84047  21962449.223    21962455.5344
  21669582.027   -20462322.715 9 -15425791.73947  21669581.761    21669588.5804
  20422750.069   -26056560.341 9 -19518503.16648  20422749.945    20422755.4864
  21110766.008   -22958666.016 9 -17208378.88047  21110765.541    21110771.7154
  22017878.530   -16642591.539 8 -12733412.33046  22017877.900    22017885.0454
  22874626.860   -13145176.668 8  -9736351.91346  22874626.296    22874632.9174
 00  5  3  1 44  0.0000000  0  7 09 23 03 29 21 15 31
  23460379.256    -7757036.203 8  -6029761.10445  23460378.898    23460386.1824
  21970907.100   -17951943.214 9 -13710401.45847  21970906.558    21970912.8524
  21674121.966   -20438465.295 9 -15407201.56947  21674121.688    21674128.4894
  20416224.372   -26090852.870 9 -19545224.58648  20416224.252    20416229.7834
  21108002.211   -22973189.837 9 -17219696.13147  21108001.735    21108007.9034
  22001544.017   -16728429.792 8 -12800299.22046  22001543.359    22001550.5504
  22867668.570   -13181742.575 8  -9764844.81946  22867668.003    22867674.5664
 00  5  3  1 44 30.0000000  0  7 09 23 03 29 21 15 31
  23462169.050    -7747630.452 8  -6022431.93345  23462168.699    23462176.0124
  21979379.503   -17907420.453 9 -13675708.40947  21979378.952    21979385.2834
  21678765.593   -20414063.043 9 -15388186.85747  21678765.313    21678772.1114
  20409792.375   -26124653.108 9 -19571562.40248  20409792.265    20409797.7934
  21105266.777   -22987564.659 9 -17230897.27747  21105266.298    21105272.4824
  21985238.721   -16814114.508 8 -12867066.48646  21985238.057    21985245.2014
  22860814.421   -13217761.060 8  -9792911.15346  22860813.888    22860820.4284
 00  5  3  1 45  0.0000000  0  7 09 23 03 29 21 15 31
  23464066.014    -7737661.848 8  -6014664.16045  23464065.705    23464072.9384
  21987866.788   -17862819.620 9 -13640954.53147  21987866.237    21987872.5384
  21683512.501   -20389117.967 9 -15368749.17547  21683512.227    21683519.0044
  20403453.953   -26157961.648 9 -19597517.07848  20403453.843    20403459.3504
  21102559.444   -23001791.670 9 -17241983.24547  21102558.973    21102565.1574
  21968962.916   -16899644.405 8 -12933713.10546  21968962.214    21968969.3694
  22854064.413   -13253232.253 8  -9820551.02446  22854063.861    22854070.4654
 00  5  3  1 45 30.0000000  0  7 09 23 03 29 21 15 31
  23466070.219    -7727129.530 8  -6006457.13945  23466069.968    23466077.1604
  21996368.913   -17818140.698 9 -13606139.80647  21996368.351    21996374.6524
  21688362.548   -20363631.137 9 -15348889.34347  21688362.279    21688369.0264
  20397209.224   -26190777.737 9 -19623088.02948  20397209.116    20397214.6284
  21099880.374   -23015870.277 9 -17252953.57647  21099879.897    21099886.0714
  21952717.053   -16985016.899 8 -13000237.08246  21952716.360    21952723.4754
  22847418.749   -13288154.592 8  -9847763.21646  22847418.232    22847425.0094
 00  5  3  1 46  0.0000000  0  7 09 23 03 29 21 15 31
  23468181.778    -7716033.164 8  -5997810.60045  23468181.476    23468188.6784
  22004885.923   -17773383.740 9 -13571264.27547  22004885.355    22004891.6504
  21693315.438   -20337603.609 9 -15328608.18947  21693315.190    21693321.9244
  20391058.259   -26223101.163 9 -19648275.08948  20391058.154    20391063.6434
  21097229.480   -23029800.780 9 -17263808.50247  21097229.002    21097235.1724
  21936501.529   -17070229.720 8 -13066636.63446  21936500.807    21936507.9004
  22840877.810   -13322526.888 8  -9874546.79846  22840877.260    22840884.2664
 00  5  3  1 46 30.0000000  0  7 09 23 03 29 21 15 31
  23470400.594    -7704373.066 8  -5988724.77645  23470400.339    23470407.5094
  22013417.536   -17728549.817 9 -13536328.76547  22013416.948    22013423.2834
  21698370.812   -20311037.580 9 -15307907.41347  21698370.551    21698377.3004
  20385001.004   -26254932.176 9 -19673078.44248  20385000.878    20385006.3654
  21094606.645   -23043583.777 9 -17274548.48447  21094606.178    21094612.3494
  21920316.658   -17155281.470 8 -13132910.66946  21920315.961    21920323.0534
  22834441.460   -13356349.151 8  -9900901.78546  22834440.956    22834448.1514
 00  5  3  1 47  0.0000000  0  7 09 23 03 29 21 15 31
  23472726.951    -7692148.178 8  -5979198.87145  23472726.680    23472733.8274
  22021963.858   -17683638.623 8 -13501333.04747  22021963.272    22021969.6004
  21703528.474   -20283933.786 9 -15286787.60747  21703528.220    21703535.0214
  20379037.575   -26286270.014 9 -19697497.50648  20379037.456    20379042.9454
  21092011.935   -23057219.075 9 -17285173.38447  21092011.444    21092017.6084
  21904163.004   -17240169.245 8 -13199056.94346  21904162.264    21904169.3434
  22828110.224   -13389619.676 8  -9926826.84046  22828109.669    22828117.0374
 00  5  3  1 47 30.0000000  0  7 09 23 03 29 21 15 31
  23475160.689    -7679358.447 8  -5969232.82645  23475160.325    23475167.5654
  22030524.850   -17638650.387 9 -13466277.29747  22030524.265    22030530.6084
  21708788.260   -20256293.649 9 -15265249.86447  21708787.999    21708794.8324
  20373168.055   -26317114.373 9 -19721532.04448  20373167.949    20373173.4214
  21089445.249   -23070707.061 9 -17295683.49747  21089444.761    21089450.9074
  21888040.988   -17324890.870 8 -13265073.73846  21888040.225    21888047.3144
  22821884.202   -13422337.523 8  -9952321.25846  22821883.698    22821891.1054
 00  5  3  1 48  0.0000000  0  7 09 23 03 29 21 15 31
  23477701.842    -7666004.444 8  -5958827.07345  23477701.455    23477708.8364
  22039100.277   -17593586.563 9 -13431162.64647  22039099.659    22039106.0114
  21714149.602   -20228119.755 9 -15243296.21147  21714149.317    21714156.1684
  20367392.293   -26347466.011 9 -19745182.64248  20367392.188    20367397.6614
  21086906.501   -23084048.278 9 -17306079.24547  21086905.999    21086912.1654
  21871950.739   -17409445.508 8 -13330960.42446  21871949.964    21871957.0564
  22815763.372   -13454502.813 8  -9977385.09846  22815762.856    22815770.2674
 00  5  3  1 48 30.0000000  0  7 09 23 03 29 21 15 31
  23480350.568    -7652085.295 8  -5947980.96245  23480350.271    23480357.4824
  22047690.198   -17548446.234 8 -13395988.38447  22047689.592    22047695.9444
  21719612.413   -20199412.540 9 -15220926.98247  21719612.135    21719619.0354
  20361710.490   -26377323.970 9 -19768448.56048  20361710.391    20361715.8504
  21084395.741   -23097242.328 9 -17316360.31447  21084395.247    21084401.4034
  21855892.892   -17493829.725 8 -13396714.31847  21855892.141    21855899.2494
  22809748.085   -13486113.545 8 -10002016.82846  22809747.570    22809755.0224
 00  5  3  1 49  0.0000000  0  7 09 23 03 29 21 15 31
  23483106.837    -7637600.933 8  -5936694.42445  23483106.554    23483113.6984
  22056294.554   -17503230.069 9 -13360755.02547  22056293.915    22056300.3014
  21725176.387   -20170173.703 9 -15198143.49947  21725176.104    21725183.0634
  20356122.579   -26406688.506 9 -19791329.99048  20356122.470    20356127.9224
  21081912.912   -23110289.571 9 -17326526.98847  21081912.416    21081918.5564
  21839867.872   -17578041.541 8 -13462333.87147  21839867.145    21839874.2104
  22803838.467   -13517169.205 8 -10026216.04446  22803837.951    22803845.3184
 00  5  3  1 49 30.0000000  0  7 09 23 03 29 21 15 31
  23485970.639    -7622551.488 8  -5924967.57645  23485970.411    23485977.4614
  22064913.236   -17457938.549 8 -13325462.94747  22064912.619    22064918.9694
  21730841.207   -20140404.873 9 -15174947.02947  21730840.912    21730847.9254
  20350628.646   -26435559.321 9 -19813826.70448  20350628.523    20350633.9934
  21079457.939   -23123190.510 9 -17336579.66047  21079457.455    21079463.5854
  21823876.022   -17662078.979 8 -13527817.53747  21823875.316    21823882.3724
  22798034.561   -13547669.356 8 -10049982.38346  22798034.039    22798041.2984
 00  5  3  1 50  0.0000000  0  7 09 23 03 29 21 15 31
  23488942.036    -7606936.575 8  -5912800.08245  23488941.794    23488948.9734
  22073546.290   -17412571.637 8 -13290112.12247  22073545.672    22073552.0344
  21736606.607   -20110107.517 9 -15151338.73047  21736606.311    21736613.3204
  20345228.630   -26463936.282 9 -19835938.59548  20345228.521    20345233.9914
  21077030.733   -23135945.394 9 -17346518.52747  21077030.246    21077036.3694
  21807917.805   -17745939.683 8 -13593163.49747  21807917.083    21807924.1484
  22792336.587   -13577613.058 8 -10073315.13646  22792335.994    22792343.1684
 00  5  3  1 50 30.0000000  0  7 09 23 03 29 21 15 31
  23492020.794    -7590756.708 8  -5900192.37445  23492020.633    23492027.7814
  22082193.491   -17367130.207 8 -13254703.23247  22082192.896    22082199.2434
  21742472.220   -20079283.673 9 -15127320.18047  21742471.930    21742478.9394
  20339922.535   -26491820.009 9 -19857666.14448  20339922.415    20339927.8764
  21074631.249   -23148554.666 9 -17356343.92947  21074630.757    21074636.9174
  21791993.558   -17829621.987 8 -13658370.44147  21791992.837    21791999.8824
  22786744.438   -13607000.081 8 -10096214.10846  22786743.886    22786750.9304
 00  5  3  1 51  0.0000000  0  7 09 23 03 29 21 15 31
  23495207.458    -7574010.845 8  -5887143.63545  23495207.287    23495214.3994
  22090855.033   -17321613.495 8 -13219235.68347  22090854.440    22090860.8024
  21748437.843   -20047934.032 9 -15102891.91747  21748437.550    21748444.5824
  20334710.495   -26519209.310 9 -19879008.43248  20334710.373    20334715.8354
  21072259.728   -23161017.225 9 -17366055.01448  21072259.219    21072265.3694
  21776103.923   -17913122.841 8 -13723436.00247  21776103.168    21776110.1654
  22781258.584   -13635828.595 8 -10118677.88446  22781258.023    22781265.0424
 00  5  3  1 51 30.0000000  0  7 09 23 03 29 21 15 31
  23498501.559    -7556699.706 8  -5873654.42245  23498501.396    23498508.5574
  22099530.741   -17276022.488 8 -13183710.24147  22099530.134    22099536.5034
  21754503.132   -20016060.787 9 -15078055.64947  21754502.851    21754509.8634
  20329592.440   -26546104.759 9 -19899965.89948  20329592.326    20329597.7774
  21069915.921   -23173333.928 9 -17375652.44448  21069915.421    21069921.5434
  21760249.041   -17996440.641 8 -13788358.92247  21760248.293    21760255.2664
  22775878.989   -13664098.598 8 -10140706.46346  22775878.447    22775885.3774
 00  5  3  1 52  0.0000000  0  7 09 23 03 29 21 15 31
  23501903.441    -7538822.622 8  -5859724.20845  23501903.321    23501910.4474
  22108220.636   -17230356.878 9 -13148126.66347  22108220.008    22108226.3784
  21760667.806   -19983665.024 9 -15052812.23247  21760667.563    21760674.5954
  20324568.430   -26572505.997 9 -19920538.26648  20324568.304    20324573.7524
  21067599.957   -23185504.484 9 -17385135.98948  21067599.444    21067605.5784
  21744429.458   -18079572.846 8 -13853137.22447  21744428.715    21744435.6954
  22770605.912   -13691808.808 8 -10162298.83146  22770605.388    22770612.2334
 00  5  3  1 52 30.0000000  0  7 09 23 03 29 21 15 31
  23505412.941    -7520380.360 8  -5845353.60745  23505412.731    23505419.8364
  22116924.505   -17184617.547 8 -13112485.64747  22116923.892    22116930.2664
  21766931.456   -19950749.347 9 -15027163.68247  21766931.227    21766938.2784
  20319638.361   -26598413.547 9 -19940725.93848  20319638.227    20319643.6564
  21065311.538   -23197529.948 9 -17394506.47347  21065311.049    21065317.1934
  21728645.519   -18162517.773 8 -13917769.58947  21728644.762    21728651.7804
  22765439.381   -13718959.046 8 -10183454.86146  22765438.805    22765445.6264
 00  5  3  1 53  0.0000000  0  7 09 23 03 29 21 15 31
  23509029.907    -7501372.779 8  -5830542.48545  23509029.707    23509036.8104
  22125642.467   -17138804.394 8 -13076787.10047  22125641.877    22125648.2634
  21773293.831   -19917314.973 9 -15001110.96447  21773293.592    21773300.6114
  20314802.310   -26623827.220 9 -19960528.77248  20314802.165    20314807.5894
  21063050.859   -23209409.907 9 -17403763.57848  21063050.374    21063056.5084
  21712897.721   -18245272.933 8 -13982254.09547  21712896.964    21712903.9854
  22760379.489   -13745548.719 8 -10204174.08746  22760378.927    22760385.7194
 00  5  3  1 53 30.0000000  0  7 09 23 03 29 21 15 31
  23512754.501    -7481799.652 8  -5815290.68945  23512754.379    23512761.4694
  22134374.482   -17092917.529 8 -13041031.12047  22134373.872    22134380.2574
  21779754.644   -19883363.398 9 -14974655.22547  21779754.380    21779761.4144
  20310060.222   -26648746.884 9 -19979946.66248  20310060.078    20310065.4934
  21060817.853   -23221144.444 9 -17412907.36348  21060817.340    21060823.4824
  21697186.497   -18327835.679 8 -14046588.66547  21697185.731    21697192.7554
  22755426.440   -13771577.022 8 -10224455.87346  22755425.896    22755432.6404
 00  5  3  1 54  0.0000000  0  7 09 23 03 29 21 15 31
  23516586.722    -7461661.451 8  -5799598.56645  23516586.546    23516593.5974
  22143120.405   -17046957.653 8 -13005218.24747  22143119.787    22143126.1384
  21786313.486   -19848896.712 9 -14947798.10547  21786313.219    21786320.2124
  20305412.083   -26673172.880 9 -19998979.88048  20305411.926    20305417.3384
  21058612.387   -23232734.194 9 -17421938.32947  21058611.886    21058618.0204
  21681512.177   -18410204.468 8 -14110772.10447  21681511.432    21681518.4744
  22750580.269   -13797043.750 8 -10244300.07746  22750579.682    22750586.4134
 00  5  3  1 54 30.0000000  0  7 09 23 03 29 21 15 31
  23520526.363    -7440958.374 8  -5783466.28945  23520526.118    23520533.2274
  22151880.167   -17000924.783 8 -12969348.49647  22151879.573    22151885.9074
  21792970.064   -19813916.400 9 -14920540.75547  21792969.791    21792976.7784
  20300857.843   -26697105.382 9 -20017628.55248  20300857.689    20300863.0814
  21056434.476   -23244178.996 9 -17430856.35248  21056433.974    21056440.1264
  21665875.242   -18492376.705 8 -14174802.39147  21665874.547    21665881.5464
  22745841.073   -13821948.020 8 -10263706.00046  22745840.473    22745847.2164
 00  5  3  1 55  0.0000000  0  7 09 23 03 29 21 15 31
  23524573.474    -7419690.634 8  -5766893.99745  23524573.267    23524580.3574
  22160653.747   -16954819.251 8 -12933422.12947  22160653.169    22160659.4824
  21799723.907   -19778424.710 9 -14892884.93647  21799723.655    21799730.6214
  20296397.547   -26720544.425 9 -20035892.71248  20296397.387    20296402.7684
  21054284.046   -23255479.544 9 -17439661.96848  21054283.543    21054289.6834
  21650276.149   -18574350.391 8 -14238677.95547  21650275.466    21650282.4524
  22741208.970   -13846289.626 8 -10282673.48246  22741208.359    22741215.1094
 00  5  3  1 55 30.0000000  0  7 09 23 03 29 21 15 31
  23528728.110    -7397857.896 8  -5749881.47845  23528727.821    23528735.0284
  22169441.251   -16908640.786 8 -12897438.92547  22169440.665    22169446.9904
  21806574.831   -19742423.191 9 -14864831.84447  21806574.572    21806581.5134
  20292031.140   -26743489.863 9 -20053772.24948  20292030.979    20292036.3514
  21052161.227   -23266635.126 9 -17448354.62648  21052160.722    21052166.8414
  21634715.352   -18656122.790 9 -14302396.67547  21634714.679    21634721.6294
  22736684.165   -13870067.489 8 -10301201.68346  22736683.532    22736690.3604
 00  5  3  1 56  0.0000000  0  7 09 23 03 29 21 15 31
  23532990.063    -7375461.066 8  -5732429.38445  23532989.761    23532997.0024
  22178242.451   -16862390.196 8 -12861399.51947  22178241.843    22178248.1664
  21813522.339   -19705914.014 9 -14836383.16947  21813522.063    21813529.0114
  20287758.550   -26765942.339 9 -20071267.65548  20287758.397    20287763.7554
  21050065.754   -23277646.729 9 -17456935.08748  21050065.253    21050071.3774
  21619193.198   -18737692.237 8 -14365957.24847  21619192.485    21619199.4424
  22732266.531   -13893281.612 8 -10319290.60746  22732265.930    22732272.8624
 00  5  3  1 56 30.0000000  0  7 09 23 03 29 21 15 31
  23537359.486    -7352499.516 8  -5714537.25845  23537359.156    23537366.3354
  22187057.501   -16816066.972 8 -12825303.51447  22187056.870    22187063.2004
  21820566.220   -19668898.135 8 -14807539.66447  21820565.957    21820572.9144
  20283579.871   -26787901.365 9 -20088378.55548  20283579.720    20283585.0664
  21047997.928   -23288513.251 9 -17465402.49548  21047997.425    21048003.5544
  21603710.208   -18819055.601 8 -14429357.24747  21603709.533    21603716.4704
  22727956.447   -13915930.842 8 -10336939.35246  22727955.853    22727962.8714
 00  5  3  1 57  0.0000000  0  7 09 23 03 29 21 15 31
  23541836.102    -7328974.516 8  -5696206.07445  23541835.777    23541843.0544
  22195886.163   -16769672.072 8 -12789151.66247  22195885.528    22195891.8924
  21827706.075   -19631378.165 9 -14778303.36347  21827705.814    21827712.7764
  20279494.893   -26809367.950 9 -20105105.73848  20279494.758    20279500.0904
  21045957.463   -23299235.835 9 -17473757.74948  21045956.987    21045963.1084
  21588266.716   -18900211.560 8 -14492595.62347  21588266.034    21588272.9584
  22723753.782   -13938015.739 8 -10354148.36646  22723753.173    22723760.2874
 00  5  3  1 57 30.0000000  0  7 09 23 03 29 21 15 31
  23546420.106    -7304885.522 8  -5677435.40645  23546419.752    23546427.0544
  22204728.574   -16723204.929 8 -12752943.51147  22204727.927    22204734.2914
  21834941.606   -19593355.247 8 -14748675.15547  21834941.325    21834948.3364
  20275503.714   -26830341.547 9 -20121448.77448  20275503.571    20275508.9104
  21043944.483   -23309814.125 9 -17482000.56348  21043943.991    21043950.1194
  21572863.347   -18981157.056 8 -14555670.00547  21572862.638    21572869.5134
  22719658.733   -13959535.033 8 -10370916.63946  22719658.188    22719665.3454
 00  5  3  1 58  0.0000000  0  7 09 23 03 29 21 15 31
  23551111.231    -7280233.750 8  -5658226.22945  23551110.915    23551118.1424
  22213584.478   -16676666.696 8 -12716679.97147  22213583.866    22213590.2344
  21842272.268   -19554832.528 9 -14718657.49747  21842271.990    21842279.0014
  20271606.201   -26850822.879 9 -20137408.22948  20271606.069    20271611.3924
  21041958.822   -23320248.790 9 -17490131.46448  21041958.335    21041964.4424
  21557500.155   -19061890.902 9 -14618579.45147  21557499.464    21557506.3304
  22715671.279   -13980489.508 8 -10387244.80246  22715670.718    22715677.8684
 00  5  3  1 58 30.0000000  0  7 09 23 03 29 21 15 31
  23555909.455    -7255018.654 8  -5638578.09745  23555909.183    23555916.4334
  22222454.090   -16630056.579 8 -12680360.41447  22222453.495    22222459.8854
  21849697.874   -19515810.891 8 -14688251.06747  21849697.559    21849704.6014
  20267802.428   -26870811.766 9 -20152983.95548  20267802.282    20267807.5984
  21040000.657   -23330539.087 9 -17498149.87148  21040000.171    21040006.2664
  21542177.957   -19142409.620 9 -14681321.27547  21542177.261    21542184.0964
  22711791.638   -14000877.481 8 -10403131.53146  22711791.044    22711798.1894
 00  5  3  1 59  0.0000000  0  7 09 23 03 29 21 15 31
  23560814.752    -7229241.081 8  -5618491.66445  23560814.468    23560821.7124
  22231337.263   -16583375.349 8 -12643985.44747  22231336.646    22231343.0484
  21857217.954   -19476292.591 8 -14657457.62547  21857217.633    21857224.7394
  20264092.254   -26890308.773 9 -20168176.40248  20264092.111    20264097.4204
  21038069.767   -23340685.871 9 -17506056.44948  21038069.288    21038075.3534
  21526896.964   -19222711.514 8 -14743894.13547  21526896.250    21526903.1044
  22708019.752   -14020699.227 8 -10418577.04746  22708019.175    22708026.2564
 00  5  3  1 59 30.0000000  0  7 09 23 03 29 21 15 31
  23565827.092    -7202901.230 8  -5597967.10145  23565826.777    23565834.0464
  22240234.007   -16536622.773 8 -12607554.88147  22240233.397    22240239.8044
  21864832.248   -19436279.390 8 -14626278.55447  21864831.922    21864839.0654
  20260475.672   -26909313.935 9 -20182985.59648  20260475.515    20260480.8164
  21036166.346   -23350688.593 9 -17513850.77748  21036165.845    21036171.9054
  21511657.754   -19302793.957 9 -14806296.00447  21511657.030    21511663.8764
  22704355.677   -14039954.413 8 -10433581.08846  22704355.042    22704362.1034
 00  5  3  2  0  0.0000000  0  7 09 23 03 29 21 15 31
  23570946.207    -7175999.758 8  -5577004.91245  23570945.913    23570953.1464
  22249144.247   -16489799.114 8 -12571068.92247  22249143.648    22249150.0294
  21872540.286   -19395773.670 8 -14594715.70347  21872539.936    21872547.0984
  20256952.589   -26927827.857 9 -20197412.00348  20256952.434    20256957.7264
  21034290.156   -23360547.883 9 -17521533.33748  21034289.654    21034295.6924
  21496460.638   -19382655.140 9 -14868525.45247  21496459.910    21496466.7714
  22700799.397   -14058642.905 8 -10448143.55246  22700798.764    22700805.9014
 00  5  3  2  0 30.0000000  0  7 09 23 03 29 21 15 31
  23576172.189    -7148536.679 8  -5555605.10345  23576171.926    23576179.1814
  22258068.003   -16442904.441 8 -12534527.63147  22258067.410    22258073.7644
  21880341.685   -19354776.935 8 -14562770.23747  21880341.375    21880348.5574
  20253522.922   -26945850.710 9 -20211455.76048  20253522.778    20253528.0594
  21032441.381   -23370263.191 9 -17529103.69748  21032440.874    21032446.9264
  21481306.109   -19462292.514 9 -14930580.51047  21481305.382    21481312.2444
  22697351.022   -14076764.159 8 -10462264.00446  22697350.421    22697357.5454
 00  5  3  2  1  0.0000000  0  7 09 23 03 29 21 15 31
  23581504.979    -7120512.793 8  -5533768.30145  23581504.694    23581511.9134
  22267005.225   -16395938.780 8 -12497931.02747  22267004.644    22267011.0624
  21888236.151   -19313291.481 8 -14530443.95747  21888235.850    21888243.0344
  20250186.676   -26963382.582 9 -20225116.93748  20250186.538    20250191.8184
  21030619.990   -23379834.659 9 -17536561.97548  21030619.485    21030625.5414
  21466194.602   -19541703.576 9 -14992459.21647  21466193.893    21466200.7544
  22694010.705   -14094318.034 8 -10475942.36246  22694010.044    22694017.1974
 00  5  3  2  1 30.0000000  0  7 09 23 03 29 21 15 31
  23586944.364    -7091928.595 8  -5511494.90245  23586944.098    23586951.3184
  22275955.960   -16348902.231 8 -12461279.18447  22275955.377    22275961.8464
  21896223.202   -19271319.306 8 -14497738.40947  21896222.900    21896230.1064
  20246943.751   -26980424.019 9 -20238395.95348  20246943.613    20246948.8934
  21028825.875   -23389262.648 9 -17543908.45348  21028825.357    21028831.4404
  21451126.658   -19620886.119 9 -15054159.85247  21451125.954    21451132.7844
  22690778.345   -14111304.367 8 -10489178.45746  22690777.691    22690784.8274
 00  5  3  2  2  0.0000000  0  7 09 23 03 29 21 15 31
  23592490.353    -7062784.339 8  -5488785.08745  23592490.019    23592497.3084
  22284920.181   -16301794.901 8 -12424572.18447  22284919.591    22284926.0914
  21904302.509   -19228862.251 9 -14464655.03647  21904302.217    21904309.4394
  20243794.168   -26996975.119 9 -20251292.88748  20243794.043    20243799.3254
  21027059.102   -23398547.073 9 -17551143.05748  21027058.610    21027064.6884
  21436102.655   -19699837.687 9 -15115680.51347  21436101.935    21436108.7324
  22687654.061   -14127722.575 8 -10501971.85246  22687653.434    22687660.5874
 00  5  3  2  2 30.0000000  0  7 09 23 03 29 21 15 31
  23598142.733    -7033080.755 8  -5465639.44045  23598142.436    23598149.7524
  22293897.838   -16254617.036 8 -12387810.22347  22293897.246    22293903.7534
  21912473.720   -19185922.668 8 -14431195.67047  21912473.400    21912480.6044
  20240737.726   -27013036.664 9 -20263808.35648  20240737.609    20240742.8834
  21025319.619   -23407688.082 9 -17558265.91348  21025319.125    21025325.2024
  21421122.999   -19778555.929 9 -15177019.36147  21421122.296    21421129.1014
  22684637.880   -14143572.660 8 -10514322.57946  22684637.272    22684644.4434
 00  5  3  2  3  0.0000000  0  7 09 23 03 29 21 15 31
  23603901.480    -7002818.471 8  -5442058.42645  23603901.129    23603908.4694
  22302888.906   -16207368.731 8 -12350993.36847  22302888.322    22302894.7964
  21920736.324   -19142502.424 8 -14397361.75847  21920736.040    21920743.2464
  20237774.438   -27028608.747 9 -20275942.42448  20237774.301    20237779.5824
  21023607.482   -23416685.278 9 -17565276.70948  21023606.990    21023613.0724
  21406188.192   -19857038.588 9 -15238174.63747  21406187.505    21406194.3224
  22681729.852   -14158854.477 8 -10526230.48746  22681729.275    22681736.3874
 00  5  3  2  3 30.0000000  0  7 09 23 03 29 21 15 31
  23609766.380    -6971998.042 8  -5418042.49145  23609766.019    23609773.4534
  22311893.362   -16160050.027 8 -12314121.66447  22311892.768    22311899.2264
  21929090.054   -19098603.505 8 -14363154.85347  21929089.747    21929096.9384
  20234904.172   -27043691.897 9 -20287695.50248  20234904.038    20234909.3214
  21021922.695   -23425538.911 9 -17572175.62648  21021922.186    21021928.2804
  21391298.675   -19935283.245 9 -15299144.46047  21391297.983    21391304.8074
  22678929.969   -14173568.019 8 -10537695.58146  22678929.404    22678936.5024
 00  5  3  2  4  0.0000000  0  7 09 23 03 29 21 15 31
  23615737.438    -6940620.235 8  -5393592.24945  23615737.095    23615744.4724
  22320911.111   -16112661.367 8 -12277195.45847  22320910.525    22320917.0024
  21937534.385   -19054228.399 8 -14328576.89547  21937534.071    21937541.2634
  20232126.841   -27058286.858 9 -20299068.17548  20232126.700    20232131.9734
  21020265.134   -23434249.128 9 -17578962.79648  21020264.644    21020270.7474
  21376454.855   -20013287.911 9 -15359927.28147  21376454.169    21376460.9654
  22676238.186   -14187713.549 8 -10548718.07546  22676237.558    22676244.6744
 00  5  3  2  4 30.0000000  0  7 09 23 03 29 21 15 31
  23621814.449    -6908685.391 8  -5368707.95345  23621814.109    23621821.4484
  22329942.277   -16065202.357 8 -12240214.41847  22329941.703    22329948.1864
  21946069.021   -19009378.896 8 -14293629.27747  21946068.713    21946075.8934
  20229442.371   -27072393.649 9 -20310060.45548  20229442.229    20229447.5014
  21018634.947   -23442815.770 9 -17585638.09048  21018634.462    21018640.5594
  21361657.174   -20091049.964 9 -15420521.04847  21361656.493    21361663.2994
  22673654.577   -14201290.470 8 -10559297.50346  22673653.966    22673661.0634
 00  5  3  2  5  0.0000000  0  7 09 23 03 29 21 15 31
  23627997.250    -6876194.371 8  -5343390.27245  23627996.968    23628004.2864
  22338986.781   -16017673.181 8 -12203178.70747  22338986.192    22338992.6764
  21954693.451   -18964057.428 8 -14258313.89247  21954693.122    21954700.3334
  20226850.626   -27086013.318 9 -20320673.16048  20226850.473    20226855.7374
  21017032.045   -23451239.003 9 -17592201.64248  21017031.562    21017037.6454
  21346906.115   -20168567.091 9 -15480923.96547  21346905.445    21346912.2544
  22671179.125   -14214299.051 8 -10569434.06546  22671178.489    22671185.5944
 00  5  3  2  5 30.0000000  0  7 09 23 03 29 21 15 31
  23634285.883    -6843147.542 8  -5317639.49846  23634285.664    23634292.8434
  22348044.655   -15970073.696 8 -12166088.21747  22348044.071    22348050.5754
  21963407.324   -18918265.766 8 -14222632.12047  21963407.010    21963414.2434
  20224351.641   -27099145.407 9 -20330905.93148  20224351.503    20224356.7424
  21015456.519   -23459518.640 9 -17598653.30448  21015456.013    21015462.0894
  21332202.157   -20245836.625 9 -15541133.95447  21332201.504    21332208.2774
  22668811.915   -14226738.896 8 -10579127.46646  22668811.268    22668818.3734
 00  5  3  2  6  0.0000000  0  7 09 23 03 29 21 15 31
  23640680.002    -6809546.070 8  -5291456.53746  23640679.788    23640686.9354
  22357115.855   -15922404.314 8 -12128943.25047  22357115.271    22357121.7874
  21972210.145   -18872006.606 8 -14186586.05947  21972209.855    21972217.1414
  20221945.215   -27111791.155 9 -20340759.73548  20221945.079    20221950.3074
  21013908.162   -23467655.122 9 -17604993.40748  21013907.645    21013913.7374
  21317545.770   -20322856.538 9 -15601149.43247  21317545.071    21317551.8324
  22666552.838   -14238610.356 8 -10588377.95846  22666552.163    22666559.3034
 00  5  3  2  6 30.0000000  0  7 09 23 03 29 21 15 31
  23647179.555    -6775390.539 8  -5264841.82846  23647179.398    23647186.5234
  22366200.388   -15874664.793 8 -12091743.63847  22366199.812    22366206.3124
  21981101.615   -18825281.865 8 -14150177.21547  21981101.300    21981108.5654
  20219631.268   -27123950.914 9 -20350234.84848  20219631.131    20219636.3664
  21012387.232   -23475647.567 9 -17611221.28048  21012386.707    21012392.8274
  21302937.371   -20399624.220 9 -15660968.36447  21302936.654    21302943.4044
  22664401.973   -14249913.580 8 -10597185.66246  22664401.281    22664408.4094
 00  5  3  2  7  0.0000000  0  7 09 23 03 29 21 15 31
  23653784.169    -6740683.165 8  -5237797.12346  23653783.996    23653791.1674
  22375297.966   -15826856.782 8 -12054490.65846  22375297.344    22375303.8854
  21990080.941   -18778095.304 8 -14113408.50847  21990080.634    21990087.8914
  20217409.420   -27135626.725 9 -20359332.86348  20217409.279    20217414.5124
  21010893.359   -23483498.006 9 -17617338.50148  21010892.832    21010898.9304
  21288377.033   -20476138.949 9 -15720590.19847  21288376.334    21288383.0484
  22662358.884   -14260649.856 8 -10605551.59646  22662358.216    22662365.3664
 00  5  3  2  7 30.0000000  0  7 09 23 03 29 21 15 31
  23660493.976    -6705422.957 8  -5210321.64346  23660493.711    23660500.9664
  22384408.896   -15778978.521 8 -12017182.92946  22384408.286    22384414.8184
  21999148.005   -18730447.536 8 -14076280.42247  21999147.717    21999155.0044
  20215279.927   -27146817.152 9 -20368052.64848  20215279.783    20215285.0254
  21009426.812   -23491204.472 9 -17623343.52448  21009426.307    21009432.3914
  21273865.711   -20552396.334 9 -15780011.49747  21273865.010    21273871.7334
  22660424.054   -14270817.441 8 -10613474.40046  22660423.395    22660430.4884
 00  5  3  2  8  0.0000000  0  7 09 23 03 29 21 15 31
  23667308.934    -6669610.058 8  -5182415.47046  23667308.663    23667315.9724
  22393533.284   -15731029.529 8 -11979820.09246  22393532.710    22393539.2174
  22008302.567   -18682340.172 8 -14038794.20547  22008302.259    22008309.5974
  20213242.742   -27157522.556 9 -20376394.50348  20213242.603    20213247.8204
  21007987.756   -23498766.707 9 -17629236.17148  21007987.243    21007993.3374
  21259403.850   -20628393.699 9 -15839230.18547  21259403.142    21259409.8624
  22658597.572   -14280415.795 8 -10620953.64546  22658596.919    22658603.9724
 00  5  3  2  8 30.0000000  0  7 09 23 03 29 21 15 31
  23674228.807    -6633245.872 8  -5154079.74746  23674228.583    23674235.8344
  22402671.077   -15683010.315 8 -11942402.53646  22402670.464    22402676.9864
  22017544.115   -18633775.768 8 -14000951.86047  22017543.821    22017551.1504
  20211297.678   -27167743.821 9 -20384359.10648  20211297.530    20211302.7344
  21006576.085   -23506185.069 9 -17635016.71148  21006575.560    21006581.6744
  21244991.807   -20704129.427 9 -15898245.00247  21244991.079    21244997.7934
  22656879.269   -14289445.625 8 -10627989.89246  22656878.649    22656885.6584
 00  5  3  2  9  0.0000000  0  7 09 23 03 29 21 15 31
  23681253.294    -6596332.150 8  -5125315.79946  23681253.049    23681260.2314
  22411821.959   -15634921.883 8 -11904931.04446  22411821.349    22411827.9034
  22026871.993   -18584757.549 8 -13962755.88747  22026871.714    22026879.0174
  20209444.441   -27177482.440 9 -20391947.61448  20209444.303    20209449.5014
  21005191.594   -23513460.416 9 -17640685.80548  21005191.089    21005197.2164
  21230629.904   -20779601.532 9 -15957054.39847  21230629.191    21230635.8764
  22655268.913   -14297908.022 8 -10634583.97346  22655268.304    22655275.3214
 00  5  3  2  9 30.0000000  0  7 09 23 03 29 21 15 31
  23688382.251    -6558869.052 8  -5096123.77046  23688382.025    23688389.1714
  22420986.222   -15586763.474 8 -11867405.02046  22420985.605    22420992.1364
  22036285.913   -18535287.391 8 -13924207.75447  22036285.637    22036292.9394
  20207683.094   -27186738.384 9 -20399160.01748  20207682.962    20207688.1424
  21003834.485   -23520592.021 9 -17646242.89848  21003833.998    21003840.1084
  21216318.777   -20854806.940 9 -16015655.97647  21216318.049    21216324.7484
  22653766.586   -14305802.611 8 -10640735.60146  22653766.014    22653773.0554
 00  5  3  2 10  0.0000000  0  7 09 23 03 29 21 15 31
  23695615.656    -6520857.338 8  -5066504.24746  23695615.407    23695622.6024
  22430163.854   -15538534.913 8 -11829824.33246  22430163.221    22430169.7424
  22045785.398   -18485367.272 8 -13885309.00547  22045785.111    22045792.4584
  20206013.472   -27195512.169 9 -20405996.71248  20206013.328    20206018.5024
  21002504.799   -23527579.670 9 -17651687.81048  21002504.279    21002510.3854
  21202058.843   -20929743.239 9 -16074047.86247  21202058.111    21202064.8254
  22652372.377   -14313129.300 8 -10646444.73246  22652371.809    22652378.8484
 00  5  3  2 10 30.0000000  0  7 09 23 03 29 21 15 31
  23702953.100    -6482298.860 8  -5036458.66946  23702952.828    23702960.0024
  22439354.537   -15490237.137 8 -11792189.71846  22439353.949    22439360.4974
  22055369.983   -18435000.211 8 -13846061.98247  22055369.685    22055377.0344
  20204435.291   -27203805.457 9 -20412458.99748  20204435.151    20204440.3124
  21001202.428   -23534423.866 9 -17657020.94448  21001201.890    21001207.9894
  21187850.413   -21004408.791 9 -16132228.77147  21187849.707    21187856.3884
  22651086.016   -14319889.298 8 -10651712.26846  22651085.440    22651092.4804
 00  5  3  2 11  0.0000000  0  7 09 23 03 29 21 15 31
  23710394.521    -6443194.054 8  -5005987.38946  23710394.195    23710401.4134
  22448558.587   -15441869.485 8 -11754500.65246  22448558.006    22448564.5524
  22065039.259   -18384188.157 8 -13806468.22347  22065038.981    22065046.2874
  20202948.548   -27211618.244 9 -20418546.86348  20202948.400    20202953.5564
  20999927.415   -23541124.115 9 -17662241.90948  20999926.883    20999932.9854
  21173694.096   -21078800.415 9 -16190196.23447  21173693.387    21173700.0674
  22649907.524   -14326082.132 8 -10656537.86446  22649906.966    22649914.0424
 00  5  3  2 11 30.0000000  0  7 09 23 03 29 21 15 31
  23717939.700    -6403543.810 8  -4975091.08846  23717939.363    23717946.5854
  22457775.999   -15393431.889 8 -11716757.07946  22457775.386    22457781.9394
  22074792.734   -18332933.562 8 -13766529.61247  22074792.439    22074799.7644
  20201553.193   -27218950.791 9 -20424260.51648  20201553.046    20201558.1844
  20998679.902   -23547679.766 9 -17667350.19948  20998679.377    20998685.4574
  21159590.428   -21152915.834 9 -16247948.47547  21159589.701    21159596.3474
  22648836.941   -14331708.105 8 -10660921.75246  22648836.367    22648843.4364
 00  5  3  2 12  0.0000000  0  7 09 23 03 29 21 15 31
  23725588.414    -6363349.115 8  -4943770.54145  23725588.136    23725595.4024
  22467006.633   -15344924.484 8 -11678959.11446  22467006.005    22467012.5884
  22084629.919   -18281238.764 8 -13726247.99747  22084629.619    22084636.9624
  20200248.999   -27225804.295 9 -20429600.88748  20200248.839    20200253.9824
  20997459.760   -23554091.613 9 -17672346.43448  20997459.231    20997465.3094
  21145539.684   -21226752.791 9 -16305483.73347  21145538.958    21145545.5744
  22647874.123   -14336767.804 8 -10664864.37946  22647873.533    22647880.6434
 00  5  3  2 12 30.0000000  0  7 09 23 03 29 21 15 31
  23733340.704    -6322610.423 8  -4912026.09745  23733340.440    23733347.7104
  22476250.657   -15296346.854 8 -11641106.42946  22476250.045    22476256.6384
  22094550.503   -18229105.944 8 -13685625.06647  22094550.201    22094557.5714
  20199035.914   -27232179.084 9 -20434568.24048  20199035.759    20199040.9004
  20996267.150   -23560358.812 9 -17677229.95548  20996266.607    20996272.6924
  21131542.522   -21300308.306 9 -16362799.69047  21131541.778    21131548.3704
  22647019.139   -14341260.789 8 -10668365.42546  22647018.545    22647025.6354
 00  5  3  2 13  0.0000000  0  7 09 23 03 29 21 15 31
  23741196.166    -6281329.447 8  -4879859.10345  23741195.902    23741203.2064
  22485508.023   -15247699.260 8 -11603199.22146  22485507.407    22485513.9784
  22104553.895   -18176537.723 8 -13644662.85547  22104553.616    22104560.9864
  20197913.701   -27238076.196 9 -20439163.37048  20197913.546    20197918.6874
  20995101.970   -23566481.864 9 -17682001.15748  20995101.444    20995107.5094
  21117599.269   -21373580.478 9 -16419894.86347  21117598.531    21117605.1104
  22646271.796   -14345188.147 8 -10671425.71546  22646271.203    22646278.2784
 00  5  3  2 13 30.0000000  0  7 09 23 03 29 21 15 31
  23749154.539    -6239507.756 8  -4847270.76445  23749154.243    23749161.5154
  22494778.612   -15198981.857 8 -11565237.61746  22494777.989    22494784.6114
  22114639.699   -18123536.760 8 -13603363.44147  22114639.384    22114646.7874
  20196882.139   -27243496.876 9 -20443387.25648  20196881.990    20196887.1304
  20993964.231   -23572460.676 9 -17686659.96148  20993963.691    20993969.7554
  21103710.398   -21446566.960 9 -16476767.42047  21103709.666    21103716.2084
  22645632.023   -14348550.337 8 -10674045.61446  22645631.465    22645638.4464
 00  5  3  2 14  0.0000000  0  7 09 23 03 29 21 15 31
  23757215.773    -6197146.028 8  -4814261.62545  23757215.481    23757222.6424
  22504062.575   -15150194.461 8 -11527221.47346  22504061.972    22504068.5664
  22124807.350   -18070105.534 8 -13561728.75547  22124807.045    22124814.4744
  20195941.217   -27248441.413 9 -20447240.12048  20195941.051    20195946.1924
  20992853.935   -23578295.255 9 -17691206.37548  20992853.400    20992859.4704
  21089876.307   -21519265.438 9 -16533415.54847  21089875.573    21089882.0914
  22645099.766   -14351347.547 8 -10676225.28546  22645099.174    22645106.1454
 00  5  3  2 14 30.0000000  0  7 09 23 03 29 21 15 31
  23765379.453    -6154244.940 8  -4780832.20445  23765379.210    23765386.4714
  22513359.876   -15101336.826 8 -11489150.59146  22513359.276    22513365.8354
  22135056.471   -18016246.027 8 -13519760.34747  22135056.160    22135063.6134
  20195090.745   -27252910.576 9 -20450722.56248  20195090.580    20195095.7164
  20991771.239   -23583984.883 9 -17695639.83848  20991770.710    20991776.7584
  21076097.631   -21591672.778 9 -16589836.81947  21076096.882    21076103.3954
  22644674.878   -14353580.370 8 -10677965.15746  22644674.278    22644681.2614
 00  5  3  2 15  0.0000000  0  7 09 23 03 29 21 15 31
  23773645.608    -6110805.921 8  -4746983.62645  23773645.428    23773652.6034
  22522670.475   -15052409.272 8 -11451025.23146  22522669.850    22522676.4314
  22145386.567   -17961961.014 8 -13477460.37947  22145386.288    22145393.7354
  20194330.558   -27256905.415 9 -20453835.40348  20194330.386    20194335.5224
  20990716.049   -23589529.902 9 -17699960.61748  20990715.510    20990721.5504
  21062374.679   -21663787.165 9 -16646029.81747  21062373.972    21062380.4574
  22644357.322   -14355249.250 8 -10679265.59346  22644356.738    22644363.6984
 00  5  3  2 15 30.0000000  0  7 09 23 03 29 21 15 31
  23782013.939    -6066829.960 8  -4712716.62345  23782013.745    23782020.9744
  22531994.472   -15003411.362 8 -11412845.04146  22531993.865    22532000.4314
  22155797.270   -17907252.620 8 -13434830.49347  22155796.981    22155804.4454
  20193660.523   -27260426.337 9 -20456578.95748  20193660.360    20193665.4644
  20989688.466   -23594929.928 9 -17704168.41248  20989687.921    20989693.9494
  21048708.016   -21735605.738 9 -16701992.30647  21048707.323    21048713.7854
  22644146.991   -14356354.413 8 -10680126.76346  22644146.414    22644153.4134
 00  5  3  2 16  0.0000000  0  7 09 23 03 29 21 15 31
  23790484.119    -6022318.459 8  -4678032.34445  23790483.931    23790491.2074
  22541331.876   -14954343.218 8 -11374610.12646  22541331.231    22541337.8234
  22166287.917   -17852123.933 8 -13391873.11647  22166287.618    22166295.0844
  20193080.470   -27263474.545 9 -20458954.16648  20193080.301    20193085.4104
  20988688.461   -23600184.794 9 -17708263.10048  20988687.914    20988693.9294
  21035098.061   -21807126.465 9 -16757722.71447  21035097.335    21035103.8004
  22644043.880   -14356896.306 8 -10680549.03046  22644043.285    22644050.2944
 00  5  3  2 16 30.0000000  0  7 09 23 03 29 21 15 31
  23799056.039    -5977272.853 8  -4642931.86845  23799055.766    23799063.0754
  22550682.570   -14905204.982 8 -11336320.59246  22550681.938    22550688.4764
  22176858.087   -17796577.339 8 -13348590.09146  22176857.781    22176865.2584
  20192590.154   -27266051.058 9 -20460961.81348  20192589.991    20192595.0734
  20987716.046   -23605294.917 9 -17712244.99948  20987715.507    20987721.5054
  21021545.228   -21878346.962 9 -16813219.16747  21021544.508    21021550.9844
  22644047.829   -14356875.588 8 -10680532.89946  22644047.222    22644054.2304
 00  5  3  2 17  0.0000000  0  7 09 23 03 29 21 15 31
  23807729.295    -5931694.288 7  -4607416.10445  23807729.032    23807736.4644
  22560046.634   -14855996.599 8 -11297976.38746  22560045.996    22560052.5324
  22187507.399   -17740615.115 8 -13304983.19846  22187507.069    22187514.5784
  20192189.442   -27268156.809 9 -20462602.63248  20192189.288    20192194.3394
  20986771.155   -23610260.179 9 -17716114.01648  20986770.601    20986776.6114
  21008049.968   -21949264.848 9 -16868479.81547  21008049.240    21008055.7184
  22644158.679   -14356293.055 8 -10680078.97546  22644158.105    22644165.0894
 00  5  3  2 17 30.0000000  0  7 09 23 03 29 21 15 31
  23816503.773    -5885583.976 8  -4571485.98845  23816503.588    23816510.9084
  22569424.044   -14806717.826 8 -11259577.34546  22569423.413    22569429.9484
  22198235.255   -17684240.106 8 -13261054.65646  22198234.922    22198242.4354
  20191878.157   -27269792.539 9 -20463877.21048  20191877.974    20191883.0434
  20985853.926   -23615080.176 9 -17719869.84348  20985853.376    20985859.3754
  20994612.739   -22019877.800 9 -16923502.86147  20994612.013    20994618.5184
  22644376.324   -14355149.391 8 -10679187.82946  22644375.755    22644382.6914
 00  5  3  2 18  0.0000000  0  7 09 23 03 29 21 15 31
  23825379.132    -5838943.274 7  -4535142.59445  23825378.953    23825386.2484
  22578814.867   -14757368.701 8 -11221123.48146  22578814.192    22578820.8084
  22209041.172   -17627454.874 8 -13216806.45946  22209040.841    22209048.3194
  20191656.121   -27270959.155 9 -20464786.23948  20191655.948    20191661.0104
  20984964.410   -23619754.565 9 -17723512.21048  20984963.862    20984969.8634
  20981234.044   -22090183.102 9 -16978286.17147  20981233.324    20981239.8464
  22644700.611   -14353445.298 8 -10677859.97646  22644700.041    22644706.9714
 00  5  3  2 18 30.0000000  0  7 09 23 03 29 21 15 31
  23834355.335    -5791773.093 8  -4498386.60645  23834355.040    23834362.4074
  22588219.165   -14707948.633 8 -11182614.33446  22588218.532    22588225.1514
  22219924.750   -17570261.532 8 -13172240.25746  22219924.446    22219931.9204
  20191523.284   -27271657.193 9 -20465330.14548  20191523.119    20191528.1784
  20984102.556   -23624283.543 9 -17727041.26848  20984102.018    20984108.0044
  20967914.429   -22160177.997 9 -17032827.61347  20967913.725    20967920.2134
  22645131.477   -14351180.966 8 -10676095.57546  22645130.872    22645137.8284
 00  5  3  2 19  0.0000000  0  7 09 23 03 29 21 15 31
  23843432.094    -5744074.736 7  -4461219.05745  23843431.785    23843439.0974
  22597637.016   -14658457.674 8 -11144049.94846  22597636.352    22597642.9754
  22230885.410   -17512662.792 8 -13127358.15146  22230885.138    22230892.6264
  20191479.403   -27271887.694 9 -20465509.73348  20191479.230    20191484.2954
  20983268.502   -23628666.476 9 -17730456.52548  20983267.976    20983273.9624
  20954654.343   -22229859.981 9 -17087125.21847  20954653.625    20954660.1284
  22645668.904   -14348356.838 8 -10673894.97546  22645668.340    22645675.2424
 00  5  3  2 19 30.0000000  0  7 09 23 03 29 21 15 31
  23852608.862    -5695850.122 7  -4423641.43545  23852608.603    23852616.0214
  22607068.206   -14608896.420 8 -11105430.78246  22607067.543    22607074.1354
  22241922.628   -17454662.198 8 -13082162.92046  22241922.337    22241929.8004
  20191524.157   -27271652.305 9 -20465326.29248  20191523.999    20191529.0574
  20982462.172   -23632903.602 9 -17733758.16648  20982461.634    20982467.6304
  20941454.104   -22299227.510 9 -17141177.79547  20941453.394    20941459.8674
  22646312.640   -14344974.177 8 -10671259.14946  22646312.054    22646318.9714
 00  5  3  2 20  0.0000000  0  7 09 23 03 29 21 15 31
  23861885.683    -5647100.387 7  -4385654.62645  23861885.520    23861892.6964
  22616512.874   -14559264.382 8 -11066756.46146  22616512.214    22616518.8144
  22253035.913   -17396261.716 8 -13036656.07546  22253035.584    22253043.0564
  20191657.461   -27270951.696 9 -20464780.33848  20191657.297    20191662.3584
  20981683.678   -23636994.569 9 -17736945.91748  20981683.133    20981689.1224
  20928314.260   -22368277.661 9 -17194983.06247  20928313.550    20928320.0354
  22647062.418   -14341033.916 8 -10668188.82946  22647061.855    22647068.7794
 00  5  3  2 20 30.0000000  0  8 09 23 25 03 29 21 15 31
  23871261.678    -5597828.525 7  -4347260.96945  23871261.350    23871268.8514
  22625970.672   -14509563.111 8 -11028028.19346  22625970.037    22625976.6514
  24666165.306    -4566162.749 7  -3306571.65045  24666165.020    24666179.1664
  22264224.513   -17337465.252 8 -12990840.68046  22264224.198    22264231.6964
  20191878.791   -27269788.464 9 -20463873.90348  20191878.633    20191883.6924
  20980932.711   -23640940.832 9 -17740020.91348  20980932.173    20980938.1514
  20915234.971   -22437009.666 9 -17248540.42747  20915234.255    20915240.7254
  22647917.940   -14336538.199 8 -10664685.69146  22647917.373    22647924.2934
 00  5  3  2 21  0.0000000  0  8 09 23 25 03 29 21 15 31
  23880735.291    -5548044.064 7  -4308467.87145  23880735.001    23880742.4934
  22635440.112   -14459800.691 8 -10989252.27846  22635439.481    22635446.1574
  24647503.929    -4664226.791 7  -3382984.64045  24647503.739    24647517.6164
  22275486.310   -17278284.107 8 -12944725.53046  22275485.992    22275493.5024
  20192186.450   -27268171.672 9 -20462614.04548  20192186.280    20192191.3524
  20980207.779   -23644750.254 9 -17742989.28048  20980207.245    20980213.2224
  20902215.127   -22505429.132 9 -17301854.25047  20902214.398    20902220.8744
  22648877.540   -14331495.672 8 -10660756.47346  22648876.959    22648883.8384
 00  5  3  2 21 30.0000000  0  8 09 23 25 03 29 21 15 31
  23890309.316    -5497732.244 7  -4269263.86045  23890308.973    23890316.4134
  22644924.363   -14409960.609 8 -10950415.84546  22644923.736    22644930.4054
  24628830.153    -4762355.823 7  -3459448.25745  24628830.007    24628843.7364
  22286823.984   -17218704.398 8 -12898299.80646  22286823.673    22286831.1714
  20192583.281   -27266086.233 9 -20460989.00548  20192583.116    20192588.1634
  20979511.962   -23648406.623 9 -17745838.38748  20979511.416    20979517.4224
  20889258.366   -22573517.386 9 -17354909.98747  20889257.628    20889264.0904
  22649944.063   -14325891.248 8 -10656389.41346  22649943.470    22649950.3774
 00  5  3  2 22  0.0000000  0  8 09 23 25 03 29 21 15 31
  23899982.721    -5446898.130 7  -4229652.85345  23899982.356    23899989.9234
  22654422.702   -14360046.361 8 -10911521.63646  22654422.120    22654428.7474
  24610144.066    -4860550.629 7  -3535963.17845  24610143.832    24610157.4484
  22298236.294   -17158732.407 8 -12851568.40946  22298235.973    22298243.5094
  20193068.398   -27263536.738 9 -20459002.36948  20193068.230    20193073.2724
  20978844.657   -23651913.362 9 -17748570.89748  20978844.108    20978850.1234
  20876364.314   -22641275.801 9 -17407708.71247  20876363.564    20876370.0274
  22651116.692   -14319728.968 8 -10651587.66646  22651116.099    22651123.0334
 00  5  3  2 22 30.0000000  0  8 09 23 25 03 29 21 15 31
  23909755.114    -5395544.271 7  -4189636.84845  23909754.691    23909762.2004
  22663934.925   -14310059.141 8 -10872570.55046  22663934.394    22663940.9824
  24591445.550    -4958809.858 8  -3612528.28045  24591445.337    24591458.6914
  22309722.531   -17098371.924 8 -12804534.28846  22309722.191    22309729.7624
  20193641.448   -27260525.311 9 -20456655.77648  20193641.283    20193646.3234
  20978205.664   -23655271.111 9 -17751187.31348  20978205.131    20978211.1484
  20863533.327   -22708702.972 9 -17460249.32247  20863532.577    20863539.0294
  22652395.114   -14313010.971 8 -10646352.88446  22652394.504    22652401.4944
 00  5  3  2 23  0.0000000  0  8 09 23 25 03 29 21 15 31
  23919626.038    -5343672.411 7  -4149217.22645  23919625.848    23919633.0674
  22673461.038   -14259999.053 8 -10833562.70046  22673460.460    22673467.0574
  24572735.138    -5057131.656 8  -3689142.16045  24572734.871    24572748.1354
  22321282.055   -17037626.019 8 -12757199.83946  22321281.738    22321289.3664
  20194302.080   -27257053.519 9 -20453950.45948  20194301.906    20194306.9424
  20977594.929   -23658480.571 9 -17753688.17748  20977594.394    20977600.4064
  20850765.772   -22775796.701 9 -17512530.10947  20850765.046    20850771.4814
  22653779.006   -14305738.526 8 -10640686.06446  22653778.396    22653785.4104
 00  5  3  2 23 30.0000000  0  8 09 23 25 03 29 21 15 31
  23929595.201    -5291284.505 8  -4108395.45245  23929595.076    23929602.1974
  22683001.004   -14209866.328 8 -10794498.22946  22683000.386    22683007.0044
  24554013.259    -5155513.751 8  -3765803.04645  24554013.031    24554026.1404
  22332914.396   -16976497.843 8 -12709567.51446  22332914.055    22332921.7014
  20195050.070   -27253122.833 9 -20450887.56448  20195049.888    20195054.9164
  20977012.393   -23661541.714 9 -17756073.47048  20977011.857    20977017.8624
  20838062.046   -22842555.093 9 -17564549.59347  20838061.300    20838067.7184
  22655268.198   -14297912.913 8 -10634588.19746  22655267.614    22655274.6174
 00  5  3  2 24  0.0000000  0  8 09 23 25 03 29 21 15 31
  23939661.996    -5238383.283 7  -4067173.71245  23939661.827    23939668.9594
  22692554.595   -14159661.981 8 -10755377.96846  22692553.972    22692560.5564
  24535280.076    -5253955.264 8  -3842510.20945  24535279.860    24535292.8124
  22344618.663   -16914991.503 8 -12661640.52046  22344618.343    22344625.9634
  20195884.943   -27248735.490 9 -20447468.83248  20195884.760    20195889.7804
  20976458.009   -23664454.905 9 -17758343.47748  20976457.451    20976463.4674
  20825422.306   -22908976.958 9 -17616306.84547  20825421.571    20825428.0054
  22656862.200   -14289536.465 8 -10628061.11446  22656861.611    22656868.6424
 00  5  3  2 24 30.0000000  0  8 09 23 25 03 29 21 15 31
  23949826.252    -5184969.273 8  -4025552.40345  23949826.030    23949833.2234
  22702122.032   -14109384.771 8 -10716200.91946  22702121.448    22702127.9994
  24516536.259    -5352452.508 8  -3919260.81845  24516536.136    24516548.8564
  22356394.646   -16853108.466 8 -12613419.99346  22356394.311    22356401.9064
  20196806.720   -27243891.403 9 -20443694.19548  20196806.542    20196811.5554
  20975931.926   -23667219.543 9 -17760497.72748  20975931.365    20975937.3734
  20812847.364   -22975058.620 9 -17667799.00847  20812846.636    20812853.0374
  22658561.106   -14280608.609 8 -10621104.37146  22658560.495    22658567.5664
 00  5  3  2 25  0.0000000  0  8 09 23 25 03 29 21 15 31
  23960087.868    -5131044.495 8  -3983533.07545  23960087.697    23960094.6314
  22711703.346   -14059034.844 8 -10676967.21846  22711702.716    22711709.2874
  24497782.362    -5451003.064 8  -3996052.96245  24497782.150    24497794.7754
  22368241.757   -16790851.830 8 -12564908.35046  22368241.409    22368248.9454
  20197815.087   -27238592.198 9 -20439564.92648  20197814.924    20197819.9194
  20975434.164   -23669835.095 9 -17762535.80648  20975433.610    20975439.6244
  20800337.536   -23040797.957 9 -17719024.42247  20800336.816    20800343.2074
  22660364.717   -14271130.823 8 -10613719.11146  22660364.066    22660371.1394
 00  5  3  2 25 30.0000000  0  8 09 23 25 03 29 21 15 31
  23970446.208    -5076611.298 8  -3941117.59245  23970445.946    23970452.9484
  22721298.327   -14008612.946 8 -10637677.42446  22721297.713    22721304.2654
  24479018.499    -5549605.634 8  -4072885.64645  24479018.150    24479030.8564
  22380159.290   -16728224.826 8 -12516108.10646  22380158.939    22380166.4514
  20198909.809   -27232839.558 9 -20435082.32348  20198909.606    20198914.5984
  20974964.667   -23672302.312 9 -17764458.29548  20974964.105    20974970.1134
  20787893.167   -23106193.429 9 -17769981.88747  20787892.432    20787898.8134
  22662272.570   -14261105.181 8 -10605906.93946  22662271.936    22662279.0194
 00  5  3  2 26  0.0000000  0  8 09 23 25 03 29 21 15 31
  23980901.175    -5021670.077 8  -3898306.25345  23980900.837    23980907.8974
  22730907.237   -13958117.842 8 -10598330.59646  22730906.621    22730913.1884
  24460245.454    -5648256.277 8  -4149755.80645  24460245.145    24460257.8554
  22392146.879   -16665229.486 8 -12467020.85746  22392146.550    22392154.0944
  20200090.682   -27226633.760 9 -20430246.61748  20200090.498    20200095.4684
  20974523.635   -23674619.863 9 -17766264.16648  20974523.070    20974529.0864
  20775514.902   -23171241.356 9 -17820668.54447  20775514.191    20775520.5614
  22664284.789   -14250531.018 8 -10597667.34546  22664284.143    22664291.2394
 00  5  3  2 26 30.0000000  0  8 09 23 25 03 29 21 15 31
  23991452.519    -4966222.608 8  -3855100.42545  23991452.173    23991459.2504
  22740529.996   -13907549.621 8 -10558926.79346  22740529.399    22740535.9704
  24441463.616    -5746953.094 8  -4226661.96745  24441463.259    24441475.9714
  22404203.998   -16601868.684 8 -12417648.82846  22404203.712    22404211.2824
  20201357.598   -27219976.102 9 -20425058.81348  20201357.391    20201362.3744
  20974111.089   -23676787.817 9 -17767953.46648  20974110.535    20974116.5424
  20763203.207   -23235939.626 9 -17871082.74047  20763202.494    20763208.8454
  22666401.138   -14239409.622 8 -10589001.34046  22666400.497    22666407.5744
 00  5  3  2 27  0.0000000  0  8 09 23 25 03 29 21 15 31
  24002099.667    -4910271.741 8  -3811502.33345  24002099.363    24002106.3954
  22750166.662   -13856908.956 8 -10519466.53146  22750166.018    22750172.6154
  24422673.360    -5845694.403 8  -4303602.84945  24422673.026    24422685.5864
  22416330.007   -16538146.125 8 -12367994.90946  22416329.748    22416337.3244
  20202709.981   -27212868.975 9 -20419520.76648  20202709.785    20202714.7764
  20973726.851   -23678806.837 9 -17769526.70948  20973726.311    20973732.3294
  20750958.359   -23300286.618 9 -17921223.20847  20750957.631    20750963.9904
  22668621.263   -14227743.135 8 -10579910.58446  22668620.590    22668627.6744
 00  5  3  2 27 30.0000000  0  8 09 23 25 03 29 21 15 31
  24012842.470    -4853818.463 8  -3767512.75445  24012842.115    24012849.0784
  22759817.182   -13806195.011 8 -10479949.17146  22759816.517    22759823.1734
  24403875.301    -5944476.862 7  -4380575.79945  24403874.999    24403887.0754
  22428524.463   -16474063.989 8 -12318060.79846  22428524.176    22428531.8074
  20204147.893   -27205312.620 9 -20413632.67848  20204147.700    20204152.6824
  20973371.181   -23680675.826 9 -17770983.04548  20973370.628    20973376.6654
  20738780.933   -23364279.299 9 -17971087.59247  20738780.191    20738786.5514
  22670944.963   -14215532.178 8 -10570395.57146  22670944.291    22670951.3744
 00  5  3  2 28  0.0000000  0  8 09 23 25 03 29 21 15 31
  24023680.503    -4796864.183 8  -3723132.78345  24023680.153    24023687.1154
  22769481.652   -13755407.455 8 -10440374.46046  22769481.066    22769487.7254
  24385069.976    -6043298.192 7  -4457579.02545  24385069.599    24385081.3884
  22440786.804   -16409624.837 8 -12267848.50046  22440786.547    22440794.1904
  20205671.079   -27197308.095 9 -20407395.36348  20205670.885    20205675.8664
  20973044.085   -23682394.633 9 -17772322.35648  20973043.514    20973049.5584
  20726671.425   -23427915.201 9 -18020673.97247  20726670.665    20726676.9924
  22673372.045   -14202777.706 8 -10560457.03046  22673371.402    22673378.4924
 00  5  3  2 28 30.0000000  0  8 09 23 25 03 29 21 15 31
  24034613.604    -4739410.673 8  -3678363.79345  24034613.243    24034620.2324
  22779160.262   -13704546.148 8 -10400742.26646  22779159.676    22779166.3314
  24366257.574    -6142155.833 7  -4534610.51845  24366257.121    24366269.0834
  22453116.580   -16344831.593 8 -12217360.29546  22453116.291    22453123.9864
  20207279.298   -27188856.795 9 -20400809.90948  20207279.102    20207284.0754
  20972745.665   -23683962.840 9 -17773544.31348  20972745.101    20972751.1274
  20714630.211   -23491191.922 9 -18069980.46347  20714629.461    20714635.8034
  22675902.378   -14189480.864 8 -10550095.87346  22675901.700    22675908.8394
 00  5  3  2 29  0.0000000  0  8 09 23 25 03 29 21 15 31
  24045641.312    -4681459.518 8  -3633207.04145  24045640.989    24045647.9384
  22788852.958   -13653610.645 8 -10361052.26046  22788852.376    22788859.0104
  24347438.883    -6241046.891 7  -4611668.07145  24347438.461    24347450.4424
  22465513.245   -16279686.871 8 -12166598.20346  22465512.959    22465520.6504
  20208972.295   -27179959.745 9 -20393877.12048  20208972.110    20208977.0764
  20972475.903   -23685380.311 9 -17774648.81548  20972475.348    20972481.3504
  20702657.866   -23554106.808 9 -18119005.01047  20702657.129    20702663.4374
  22678535.698   -14175642.536 8 -10539312.77446  22678535.037    22678542.2004
 00  5  3  2 29 30.0000000  0  8 09 23 25 03 29 21 15 31
  24056763.366    -4623012.823 8  -3587664.16145  24056762.999    24056769.9504
  22798559.675   -13602601.443 8 -10321304.82346  22798559.096    22798565.7164
  24328614.090    -6339969.461 7  -4688750.17145  24328613.822    24328625.7404
  22477976.179   -16214194.055 8 -12115564.87846  22477975.881    22477983.5134
  20210749.780   -27170618.845 9 -20386598.47748  20210749.599    20210754.5664
  20972234.924   -23686646.508 9 -17775635.44048  20972234.374    20972240.3804
  20690754.732   -23616658.203 9 -18167746.31747  20690753.969    20690760.2754
  22681271.810   -14161264.229 8 -10528108.91546  22681271.153    22681278.3154
 00  5  3  2 30  0.0000000  0  8 09 23 25 03 29 21 15 31
  24067979.404    -4564072.098 8  -3541736.31145  24067979.065    24067985.9684
  22808280.530   -13551517.999 8 -10281499.54146  22808279.936    22808286.5194
  24309783.972    -6438921.049 7  -4765854.90845  24309783.757    24309795.5054
  22490504.899   -16148355.431 8 -12064262.09346  22490504.587    22490512.1864
  20212611.590   -27160835.063 9 -20378974.73148  20212611.410    20212616.3584
  20972022.763   -23687761.372 9 -17776504.14248  20972022.231    20972028.2244
  20678921.293   -23678843.173 9 -18216202.09847  20678920.531    20678926.8314
  22684110.406   -14146347.190 8 -10516485.25946  22684109.788    22684116.9154
 00  5  3  2 30 30.0000000  0  8 09 23 25 03 29 21 15 31
  24079289.143    -4504639.173 8  -3495424.93145  24079288.765    24079295.7024
  22818015.549   -13500359.997 8 -10241636.15046  22818014.947    22818021.5564
  24290948.885    -6537898.702 7  -4842979.99045  24290948.707    24290960.1624
  22503098.866   -16082173.862 8 -12012692.07646  22503098.539    22503106.1244
  20214557.465   -27150609.345 9 -20371006.61948  20214557.283    20214562.2284
  20971839.419   -23688724.749 9 -17777254.80248  20971838.878    20971844.8724
  20667158.017   -23740659.267 9 -18264370.44047  20667157.275    20667163.5604
  22687051.328   -14130892.326 8 -10504442.51746  22687050.732    22687057.8804
 00  5  3  2 31  0.0000000  0  8 09 23 25 03 29 21 15 31
  24090692.132    -4444716.039 8  -3448731.57545  24090691.801    24090698.7094
  22827764.766   -13449127.391 8 -10201714.62946  22827764.157    22827770.8024
  24272109.218    -6636900.288 8  -4920123.71445  24272109.019    24272120.4094
  22515757.468   -16015652.399 8 -11960857.21446  22515757.175    22515764.7354
  20216587.149   -27139943.177 9 -20362695.29948  20216586.968    20216591.9024
  20971685.018   -23689536.010 9 -17777886.93348  20971684.485    20971690.4624
  20655465.456   -23802104.010 9 -18312249.42047  20655464.719    20655470.9744
  22690094.370   -14114901.121 8 -10491981.85146  22690093.765    22690100.9474
 00  5  3  2 31 30.0000000  0  8 09 23 25 03 29 21 15 31
  24102188.104    -4384304.145 8  -3401657.35345  24102187.753    24102194.6634
  22837528.331   -13397819.554 8 -10161734.49046  22837527.719    22837534.3054
  24253265.609    -6735922.527 8  -4997283.55445  24253265.445    24253276.6854
  22528480.335   -15948793.471 8 -11908759.39146  22528480.028    22528487.5914
  20218700.477   -27128837.464 9 -20354041.47748  20218700.275    20218705.2194
  20971559.668   -23690194.642 9 -17778400.13548  20971559.132    20971565.1224
  20643844.057   -23863174.587 9 -18359836.84247  20643843.325    20643849.5834
  22693239.322   -14098374.318 8 -10479103.83146  22693238.757    22693245.9544
 00  5  3  2 32  0.0000000  0  8 09 23 25 03 29 21 15 31
  24113776.722    -4323405.421 8  -3354203.79145  24113776.341    24113783.3284
  22847306.206   -13346436.822 8 -10121695.98246  22847305.569    22847312.1144
  24234418.412    -6834963.553 8  -5074458.01745  24234418.213    24234429.4574
  22541266.753   -15881600.486 8 -11856401.26246  22541266.456    22541274.0534
  20220897.067   -27117294.158 9 -20345046.67248  20220896.874    20220901.7984
  20971463.297   -23690700.909 9 -17778794.60448  20971462.758    20971468.7284
  20632294.233   -23923869.216 9 -18407131.31847  20632293.500    20632299.7204
  22696485.859   -14081313.647 8 -10465809.81446  22696485.280    22696492.5254
 00  5  3  2 32 30.0000000  0  8 09 23 25 03 29 21 15 31
  24125457.555    -4262022.099 8  -3306372.64145  24125457.253    24125464.2484
  22857098.288   -13294979.053 8 -10081599.01146  22857097.660    22857104.2064
  24215568.105    -6934020.982 8  -5151645.25645  24215567.922    24215579.0114
  22554116.172   -15814076.686 8 -11803785.36046  22554115.841    22554123.4174
  20223176.669   -27105314.601 9 -20335711.93448  20223176.486    20223181.4214
  20971396.051   -23691054.398 9 -17779070.02848  20971395.485    20971401.4264
  20620816.249   -23984186.011 9 -18454131.37847  20620815.526    20620821.7474
  22699833.655   -14063720.889 8 -10452101.17946  22699833.082    22699840.3184
 00  5  3  2 33  0.0000000  0  8 09 23 25 03 29 21 15 31
  24137230.358    -4200155.446 8  -3258164.85145  24137230.063    24137237.0624
  22866904.838   -13243445.227 8 -10041442.77046  22866904.182    22866910.7404
  24196715.319    -7033091.422 8  -5228842.64445  24196715.193    24196726.2154
  22567028.189   -15746223.770 8 -11750913.00146  22567027.872    22567035.3974
  20225539.209   -27092899.306 9 -20326037.66048  20225539.031    20225543.9784
  20971357.974   -23691254.484 9 -17779225.92248  20971357.401    20971363.3634
  20609410.969   -24044121.203 9 -18500834.09147  20609410.232    20609416.4314
  22703282.593   -14045596.766 8 -10437978.48946  22703282.005    22703289.2144
 00  5  3  2 33 30.0000000  0  8 09 23 25 03 29 21 15 31
  24149094.700    -4137807.544 8  -3209582.06845  24149094.410    24149101.4784
  22876725.856   -13191835.546 8 -10001227.43446  22876725.193    22876731.7094
  24177860.494    -7132172.890 8  -5306048.64045  24177860.396    24177871.3014
  22580002.205   -15678045.183 8 -11697786.87146  22580001.870    22580009.4284
  20227984.291   -27080050.192 9 -20316025.34848  20227984.118    20227989.0374
  20971349.138   -23691300.696 9 -17779261.91648  20971348.587    20971354.5274
  20598078.586   -24103673.014 9 -18547238.06448  20598077.847    20598084.0414
  22706832.304   -14026943.037 8 -10423443.12446  22706831.688    22706838.8984
 00  5  3  2 34  0.0000000  0  8 09 23 25 03 29 21 15 31
  24161050.266    -4074980.263 8  -3160625.73745  24161049.974    24161057.1384
  22886561.289   -13140149.777 8  -9960952.79346  22886560.664    22886567.1564
  24159004.157    -7231262.627 8  -5383261.07745  24159004.010    24159014.7834
  22593037.594   -15609543.741 8 -11644409.17246  22593037.276    22593044.9014
  20230511.702   -27066768.460 9 -20305675.92748  20230511.518    20230516.4434
  20971369.673   -23691192.764 9 -17779177.79848  20971369.113    20971375.0514
  20586819.640   -24162839.128 9 -18593341.49048  20586818.892    20586825.0844
  22710482.519   -14007760.765 8 -10408495.90246  22710481.920    22710489.1624
 00  5  3  2 34 30.0000000  0  8 09 23 25 03 29 21 15 31
  24173096.864    -4011675.180 8  -3111297.11545  24173096.534    24173103.7154
  22896411.264   -13088387.557 8  -9920618.59346  22896410.645    22896417.2104
  24140146.763    -7330357.940 8  -5460477.87845  24140146.575    24140157.2024
  22606133.801   -15540722.576 8 -11590782.34446  22606133.510    22606141.1374
  20233121.204   -27053055.293 9 -20294990.32348  20233121.022    20233125.9394
  20971419.635   -23690930.105 9 -17778973.11148  20971419.079    20971425.0034
  20575634.548   -24221616.949 9 -18639142.35648  20575633.805    20575640.0114
  22714233.225   -13988050.962 8 -10393137.62446  22714232.594    22714239.8254
 00  5  3  2 35  0.0000000  0  8 09 23 25 03 29 21 15 31
  24185233.883    -3947894.775 8  -3061598.10345  24185233.532    24185240.7574
  22906275.809   -13036548.930 8  -9880224.84046  22906275.186    22906281.7924
  24121288.507    -7429457.027 8  -5537697.60445  24121288.410    24121298.8294
  22619290.467   -15471584.262 8 -11536908.37646  22619290.151    22619297.7854
  20235812.468   -27038912.472 9 -20283969.92348  20235812.299    20235817.2024
  20971499.037   -23690512.852 9 -17778647.96248  20971498.494    20971504.4134
  20564523.783   -24280004.288 9 -18684638.94048  20564523.037    20564529.2414
  22718083.896   -13967815.540 8 -10377369.76346  22718083.268    22718090.4804
 00  5  3  2 35 30.0000000  0  8 09 23 25 03 29 21 15 31
  24197460.984    -3883640.481 7  -3011529.82245  24197460.587    24197467.8544
  22916155.025   -12984632.963 8  -9839770.83746  22916154.446    22916161.0324
  24102430.286    -7528556.390 8  -5614917.54945  24102430.046    24102440.4274
  22632506.940   -15402131.466 8 -11482789.36446  22632506.592    22632514.2754
  20238585.372   -27024340.760 9 -20272615.32348  20238585.189    20238590.0914
  20971607.964   -23689940.336 9 -17778201.83048  20971607.398    20971613.3164
  20553487.915   -24337997.892 9 -18729828.72448  20553487.187    20553493.3824
  22722034.501   -13947055.192 8 -10361192.87546  22722033.863    22722041.1104
 00  5  3  2 36  0.0000000  0  8 09 23 25 03 29 21 15 31
  24209777.877    -3818914.806 7  -2961094.24145  24209777.420    24209784.7924
  22926048.973   -12932640.011 8  -9799256.83946  22926048.357    22926054.9034
  24083572.358    -7627654.156 8  -5692136.25845  24083572.101    24083582.3464
  22645782.558   -15332367.534 8 -11428427.91446  22645782.211    22645789.9414
  20241439.440   -27009342.366 9 -20260928.24548  20241439.253    20241444.1554
  20971746.484   -23689212.394 9 -17777634.59148  20971745.922    20971751.8184
  20542527.328   -24395596.190 9 -18774710.47548  20542526.565    20542532.7544
  22726084.522   -13925772.405 8 -10344608.89046  22726083.859    22726091.0794
 00  5  3  2 36 30.0000000  0  8 09 23 25 03 29 21 15 31
  24222183.888    -3753719.729 7  -2910292.90845  24222183.591    24222190.8694
  22935957.625   -12880569.681 8  -9758682.53946  22935957.027    22935963.5794
  24064715.231    -7726747.628 8  -5769351.63045  24064714.915    24064725.0714
  22659116.880   -15262295.414 8 -11373826.29846  22659116.530    22659124.2784
  20244374.512   -26993918.402 9 -20248909.55148  20244374.321    20244379.2284
  20971914.741   -23688328.151 9 -17776945.55648  20971914.176    20971920.0654
  20531642.288   -24452797.051 9 -18819282.53348  20531641.530    20531647.7594
  22730233.640   -13903968.489 8 -10327618.81846  22730232.977    22730240.2504
 00  5  3  2 37  0.0000000  0  9 09 23 25 03 29 11 21 15 31
  24234678.607    -3688059.614 7  -2859129.20045  24234678.162    24234685.5464
  22945880.525   -12828424.184 8  -9718049.67846  22945879.938    22945886.5234
  24045859.035    -7825836.319 8  -5846563.28745  24045858.669    24045868.7374
  22672508.848   -15191920.410 8 -11318988.67246  22672508.469    22672516.2444
  20247389.845   -26978072.614 9 -20236562.16048  20247389.664    20247394.5614
  24619496.773    -4392415.700 7  -3146531.65745  24619496.117    24619504.1634
  20972112.292   -23687289.872 9 -17776136.49548  20972111.729    20972117.6174
  20520832.955   -24509600.352 9 -18863544.80648  20520832.204    20520838.4044
  22734481.185   -13881647.379 8 -10310225.75246  22734480.557    22734487.7684
 00  5  3  2 37 30.0000000  0  9 09 23 25 03 29 11 21 15 31
  24247261.904    -3621934.027 7  -2807602.78345  24247261.480    24247268.8984
  22955818.321   -12776200.856 8  -9677356.16746  22955817.698    22955824.2694
  24027004.676    -7924915.410 8  -5923767.46745  24027004.361    24027014.2714
  22685958.259   -15121243.110 8 -11263915.49946  22685957.928    22685965.7604
  20250485.629   -26961804.172 9 -20223885.43348  20250485.431    20250490.3264
  24599941.761    -4495177.330 7  -3226605.59345  24599941.245    24599949.1604
  20972339.635   -23686095.015 9 -17775205.42548  20972339.082    20972344.9734
  20510100.163   -24566001.266 9 -18907493.52848  20510099.414    20510105.6214
  22738827.391   -13858807.997 8 -10292428.83746  22738826.758    22738833.9624
 00  5  3  2 38  0.0000000  0  9 09 23 25 03 29 11 21 15 31
  24259933.707    -3555343.671 7  -2755714.22145  24259933.169    24259940.5984
  22965771.214   -12723898.089 8  -9636600.74546  22965770.568    22965777.1634
  24008152.901    -8023980.904 8  -6000961.05245  24008152.632    24008162.4504
  22699464.918   -15050265.057 8 -11208607.97846  22699464.627    22699472.4634
  20253661.810   -26945113.088 9 -20210879.37248  20253661.612    20253666.5134
  24580396.714    -4597886.243 7  -3306638.45345  24580396.176    24580404.2674
  20972597.204   -23684741.380 9 -17774150.62848  20972596.653    20972602.5654
  20499444.679   -24621996.098 9 -18951125.82348  20499443.930    20499450.1084
  22743272.098   -13835450.666 8 -10274228.31846  22743271.490    22743278.6964
 00  5  3  2 38 30.0000000  0  9 09 23 25 03 29 11 21 15 31
  24272693.297    -3488290.363 7  -2703464.90845  24272692.755    24272700.2524
  22975739.298   -12671515.543 8  -9595783.16346  22975738.657    22975745.1704
  23989304.140    -8123030.253 8  -6078142.05245  23989303.872    23989313.7704
  22713028.277   -14978989.475 8 -11153068.60546  22713027.968    22713035.8354
  20256918.146   -26928000.764 9 -20197545.07248  20256917.948    20256922.8294
  24560862.146    -4700540.513 7  -3386628.73145  24560861.739    24560869.8244
  20972884.974   -23683228.923 9 -17772972.07448  20972884.424    20972890.3224
  20488866.940   -24677582.349 9 -18994439.74048  20488866.183    20488872.3474
  22747815.128   -13811576.898 8 -10255625.38846  22747814.526    22747821.7514
 00  5  3  2 39  0.0000000  0  9 09 23 25 03 29 11 21 15 31
  24285540.715    -3420777.383 7  -2650857.40745  24285540.161    24285547.6824
  22985722.359   -12619054.041 8  -9554904.05646  22985721.736    22985728.2394
  23970458.775    -8222061.702 8  -6155309.10945  23970458.457    23970468.3184
  22726647.591   -14907420.042 8 -11097300.25746  22726647.239    22726655.1174
  20260254.156   -26910469.784 9 -20183884.54448  20260253.958    20260258.8424
  24541338.374    -4803139.305 7  -3466575.76945  24541338.005    24541345.9744
  20973202.889   -23681558.348 9 -17771670.31048  20973202.324    20973208.2264
  20478367.127   -24732758.947 9 -19037434.44348  20478366.372    20478372.5334
  22752455.902   -13787189.361 8 -10236622.11046  22752455.313    22752462.5514
 00  5  3  2 39 30.0000000  0  9 09 23 25 03 29 11 21 15 31
  24298475.037    -3352806.681 7  -2597893.23545  24298474.596    24298482.1744
  22995720.594   -12566513.213 8  -9513963.14746  22995719.944    22995726.4484
  23951617.297    -8321072.837 8  -6232460.37345  23951617.051    23951626.8034
  22740322.185   -14835559.428 8 -11041305.01046  22740321.843    22740329.7664
  20263669.578   -26892521.588 9 -20169898.91548  20263669.394    20263674.2464
  24521825.532    -4905680.379 8  -3546477.84845  24521825.174    24521833.0154
  20973550.927   -23679729.198 9 -17770244.98148  20973550.363    20973556.2724
  20467945.780   -24787523.411 9 -19080108.01248  20467945.017    20467951.1604
  22757194.145   -13762289.553 8 -10217219.66146  22757193.573    22757200.8194
 00  5  3  2 40  0.0000000  0  9 09 23 25 03 29 11 21 15 31
  24311496.112    -3284380.223 7  -2544573.94045  24311495.642    24311503.3014
  23005733.901   -12513892.794 8  -9472960.21446  23005733.222    23005739.7204
  23932780.197    -8420061.073 8  -6309593.77845  23932780.022    23932789.7014
  22754051.609   -14763410.798 8 -10985085.33646  22754051.318    22754059.2324
  20267164.072   -26874157.766 9 -20155589.42248  20267163.884    20267168.7444
  24502323.982    -5008161.863 8  -3626333.48745  24502323.495    24502331.4204
  20973929.324   -23677740.723 9 -17768695.50348  20973928.761    20973934.6644
  20457603.272   -24841873.385 9 -19122458.60248  20457602.527    20457608.6514
  22762029.586   -13736878.969 8 -10197419.21746  22762029.015    22762036.2754
 00  5  3  2 40 30.0000000  0  9 09 23 25 03 29 11 21 15 31
  24324603.504    -3215500.987 7  -2490901.79845  24324602.948    24324610.4264
  23015762.276   -12461193.194 8  -9431895.56946  23015761.610    23015768.1384
  23913947.954    -8519024.343 8  -6386707.73245  23913947.729    23913957.3374
  22767835.232   -14690977.893 8 -10928644.14446  22767834.896    22767842.8204
  20270737.285   -26855380.400 9 -20140957.68848  20270737.091    20270741.9494
  24482834.103    -5110582.229 8  -3706141.51645  24482833.567    24482841.3594
  20974337.971   -23675593.297 9 -17767022.16148  20974337.398    20974343.2944
  20447340.024   -24895806.954 9 -19164484.72348  20447339.272    20447345.3874
  22766961.825   -13710960.088 8 -10177222.68846  22766961.261    22766968.4854
 00  5  3  2 41  0.0000000  0  9 09 23 25 03 29 11 21 15 31
  24337796.833    -3146170.067 7  -2436877.71045  24337796.294    24337803.6544
  23025806.022   -12408413.041 8  -9390768.16946  23025805.367    23025811.8734
  23895121.061    -8617959.400 8  -6463799.70045  23895120.832    23895130.3004
  22781672.454   -14618262.786 8 -10871983.05746  22781672.116    22781680.0484
  20274389.102   -26836189.758 9 -20126003.92248  20274388.903    20274393.7764
  24463356.278    -5212938.494 8  -3785899.56745  24463355.782    24463363.6204
  20974777.143   -23673285.299 9 -17765223.70548  20974776.574    20974782.4794
  20437156.655   -24949320.734 9 -19206183.73648  20437155.911    20437162.0224
  22771990.549   -13684533.984 8 -10156630.93046  22771989.949    22771997.1804
 00  5  3  2 41 30.0000000  0  9 09 23 25 03 29 11 21 15 31
  24351075.408    -3076390.323 7  -2382503.88145  24351074.971    24351082.3904
  23035864.911   -12355552.925 8  -9349578.45746  23035864.243    23035870.8024
  23876299.858    -8716864.120 8  -6540868.01745  23876299.631    23876309.1214
  22795562.681   -14545269.330 8 -10815105.06746  22795562.380    22795570.2924
  20278119.096   -26816588.376 9 -20110730.09748  20278118.901    20278123.7694
  24443890.939    -5315229.286 8  -3865606.58345  24443890.477    24443898.2234
  20975246.765   -23670817.278 9 -17763300.55148  20975246.189    20975252.1034
  20427053.414   -25002413.549 9 -19247554.72248  20427052.686    20427058.7734
  22777115.390   -13657602.762 8 -10135645.57246  22777114.781    22777122.0364
 00  5  3  2 42  0.0000000  0  9 09 23 25 03 29 11 21 15 31
  24364439.240    -3006162.997 8  -2327781.28045  24364438.949    24364446.1674
  23045939.331   -12302611.284 8  -9308325.21946  23045938.668    23045945.2644
  23857485.135    -8815734.656 8  -6617909.70445  23857484.917    23857494.3234
  22809505.591   -14471999.102 8 -10758011.42046  22809505.228    22809513.1864
  20281927.184   -26796576.698 9 -20095136.56348  20281926.984    20281931.8474
  24424438.571    -5417451.449 8  -3945260.11245  24424438.204    24424445.8164
  20975747.184   -23668187.516 9 -17761251.36748  20975746.603    20975752.4994
  20417030.927   -25055082.014 9 -19288595.04548  20417030.174    20417036.2644
  22782336.277   -13630167.223 8 -10114267.24046  22782335.587    22782342.8434
 00  5  3  2 42 30.0000000  0  9 09 23 25 03 29 11 21 15 31
  24377887.715    -2935491.122 8  -2272712.26645  24377887.330    24377894.5134
  23056029.134   -12249588.944 8  -9267009.09946  23056028.464    23056035.0674
  23838677.359    -8914569.205 8  -6694923.35945  23838677.157    23838686.4704
  22823500.276   -14398456.554 8 -10700705.56846  22823499.890    22823507.8824
  20285812.840   -26776157.223 9 -20079225.26648  20285812.644    20285817.5094
  24404999.507    -5519604.060 8  -4024859.46645  24404999.161    24405006.7584
  20976278.204   -23665396.834 9 -17759076.78748  20976277.625    20976283.5244
  20407089.425   -25107324.736 9 -19329303.61948  20407088.676    20407094.7414
  22787652.610   -13602229.689 8 -10092497.74746  22787651.897    22787659.1614
 00  5  3  2 43  0.0000000  0  9 09 23 25 03 29 11 21 15 31
  24391420.367    -2864376.677 8  -2217298.39045  24391419.981    24391427.1894
  23066134.391   -12196485.568 8  -9225629.83846  23066133.767    23066140.3334
  23819876.873    -9013365.367 8  -6771907.11345  23819876.673    23819885.8904
  22837546.376   -14324643.975 8 -10643189.30246  22837545.946    22837553.9284
  20289775.839   -26755331.543 9 -20062997.44548  20289775.641    20289780.4824
  24385574.111    -5621684.759 8  -4104402.77145  24385573.689    24385581.2264
  20976839.954   -23662444.661 9 -17756776.37148  20976839.376    20976845.2734
  20397229.432   -25159139.194 9 -19369678.48348  20397228.682    20397234.7464
  22793064.071   -13573792.102 8 -10070338.60246  22793063.391    22793070.6454
 00  5  3  2 43 30.0000000  0  9 09 23 25 03 29 11 21 15 31
  24405036.842    -2792821.643 8  -2161541.19345  24405036.365    24405043.5834
  23076255.114   -12143300.535 8  -9184186.94746  23076254.512    23076261.0814
  23801084.304    -9112119.920 8  -6848858.44145  23801084.133    23801093.2244
  22851643.244   -14250564.486 8 -10585465.04746  22851642.847    22851650.8854
  20293815.967   -26734100.435 9 -20046453.70948  20293815.764    20293820.6134
  24366162.898    -5723691.180 8  -4183888.20445  24366162.457    24366169.8554
  20977432.703   -23659329.585 9 -17754349.02048  20977432.136    20977438.0174
  20387451.397   -25210522.819 9 -19409717.63348  20387450.652    20387456.7104
  22798570.439   -13544856.028 8 -10047791.02346  22798569.739    22798577.0054
 00  5  3  2 44  0.0000000  0  9 09 23 25 03 29 11 21 15 31
  24418736.712    -2720828.470 8  -2105442.58345  24418736.270    24418743.3984
  23086391.433   -12090033.711 8  -9142680.31946  23086390.834    23086397.3824
  23782299.981    -9210831.066 8  -6925775.94545  23782299.827    23782308.8534
  22865790.301   -14176221.213 8 -10527535.25046  22865789.913    22865797.9144
  20297932.857   -26712466.070 9 -20029595.74248  20297932.654    20297937.4934
  24346766.194    -5825621.558 8  -4263314.41045  24346765.666    24346773.1204
  20978056.402   -23656051.892 9 -17751794.95148  20978055.824    20978061.7144
  20377755.752   -25261473.597 9 -19449419.50048  20377755.004    20377761.0604
  22804171.236   -13515423.302 8 -10024856.44346  22804170.561    22804177.8344
 00  5  3  2 44 30.0000000  0  9 09 23 25 03 29 11 21 15 31
  24432519.569    -2648398.978 8  -2049004.00245  24432519.249    24432526.1674
  23096543.461   -12036684.469 8  -9101109.46546  23096542.866    23096549.4114
  23763524.543    -9309495.470 8  -7002657.02745  23763524.374    23763533.4204
  22879987.112   -14101616.802 8 -10469401.96746  22879986.675    22879994.6894
  20302126.207   -26690429.645 9 -20012424.48648  20302126.011    20302130.8504
  24327384.459    -5927473.414 8  -4342679.43445  24327383.783    24327391.1334
  20978711.240   -23652610.718 9 -17749113.49748  20978710.651    20978716.5454
  20368142.977   -25311988.981 9 -19488782.10348  20368142.229    20368148.2734
  22809866.375   -13485495.356 8 -10001535.98646  22809865.688    22809872.9804
 00  5  3  2 45  0.0000000  0  9 09 23 25 03 29 11 21 15 31
  24446384.895    -2575535.564 8  -1992227.28145  24446384.611    24446391.5344
  23106711.177   -11983252.672 8  -9059474.29846  23106710.618    23106717.1064
  23744758.503    -9408110.418 8  -7079499.55445  23744758.426    23744767.4034
  22894232.972   -14026754.503 8 -10411067.72746  22894232.533    22894240.5234
  20306395.724   -26667993.019 9 -19994941.38048  20306395.525    20306400.3654
  24308017.979    -6029244.796 8  -4421981.69945  24308017.190    24308024.6714
  20979397.177   -23649005.935 9 -17746304.55248  20979396.586    20979402.4594
  20358613.440   -25362066.940 9 -19527803.85048  20358612.686    20358618.7114
  22815655.296   -13455074.375 8  -9977831.33946  22815654.621    22815661.9114
 00  5  3  2 45 30.0000000  0  9 09 23 25 03 29 11 21 15 31
  24460332.474    -2502241.107 8  -1935114.69845  24460332.285    24460338.9534
  23116894.576   -11929738.743 8  -9017775.11446  23116893.968    23116900.4574
  23726002.285    -9506674.230 8  -7156302.25345  23726002.131    23726011.0904
  22908527.196   -13951638.138 8 -10352535.52546  22908526.757    22908534.6684
  20310741.020   -26645158.291 9 -19977148.07148  20310740.837    20310745.6614
  24288667.029    -6130934.149 7  -4501220.05845  24288666.236    24288673.8894
  20980114.210   -23645237.882 9 -17743368.39248  20980113.640    20980119.5104
  20349167.444   -25411705.787 9 -19566483.43548  20349166.685    20349172.7014
  22821537.513   -13424162.969 8  -9953744.54846  22821536.859    22821544.1164
 00  5  3  2 46  0.0000000  0  9 09 23 25 03 29 11 21 15 31
  24474361.815    -2428516.453 8  -1877666.87145  24474361.483    24474368.2214
  23127093.934   -11876140.673 8  -8976010.38446  23127093.316    23127099.8534
  23707256.613    -9605182.395 8  -7233061.59446  23707256.378    23707265.3284
  22922869.535   -13876268.864 8 -10293806.23746  22922869.098    22922876.9904
  20315162.063   -26621925.560 9 -19959044.62248  20315161.866    20315166.6764
  24269332.393    -6232537.760 7  -4580391.57945  24269331.661    24269339.2794
  20980862.817   -23641303.866 9 -17740302.90048  20980862.241    20980868.1024
  20339805.751   -25460901.804 9 -19604817.95548  20339804.996    20339811.0034
  22827513.010   -13392761.362 8  -9929275.77046  22827512.372    22827519.6604
 00  5  3  2 46 30.0000000  0  9 09 23 25 03 29 11 21 15 31
  24488472.459    -2354364.922 8  -1819886.44545  24488472.133    24488478.8684
  23137309.177   -11822459.107 8  -8934180.57946  23137308.555    23137315.1224
  23688521.615    -9703633.945 8  -7309776.82845  23688521.418    23688530.3384
  22937259.144   -13800650.830 8 -10234883.10746  22937258.736    22937266.5954
  20319658.360   -26598297.420 9 -19940633.06748  20319658.153    20319662.9494
  24250014.247    -6334054.652 7  -4659495.53945  24250013.585    24250021.1704
  20981642.788   -23637204.981 9 -17737108.94248  20981642.221    20981648.0694
  20330528.518   -25509653.770 9 -19642806.46648  20330527.749    20330533.7584
  22833581.229   -13360872.396 8  -9904427.24146  22833580.601    22833587.9064
 00  5  3  2 47  0.0000000  0  9 09 23 25 03 29 11 21 15 31
  24502663.870    -2279788.226 8  -1761774.71845  24502663.519    24502670.3894
  23147540.429   -11768693.428 8  -8892285.24546  23147539.811    23147546.3564
  23669798.102    -9802025.699 8  -7386445.46145  23669797.910    23669806.7484
  22951695.629   -13724786.534 8 -10175768.08646  22951695.222    22951703.0924
  20324229.595   -26574275.261 9 -19921914.48148  20324229.399    20324234.2134
  24230713.078    -6435482.447 8  -4738530.07945  24230712.457    24230719.8374
  20982454.355   -23632940.075 9 -17733785.61848  20982453.780    20982459.6264
  20321336.332   -25557958.888 9 -19680446.78448  20321335.562    20321341.5574
  22839741.834   -13328498.000 8  -9879200.46146  22839741.216    22839748.5224
 00  5  3  2 47 30.0000000  0  9 09 23 25 03 29 11 21 15 31
  24516935.687    -2204789.140 8  -1703333.84845  24516935.389    24516942.3354
  23157787.691   -11714843.719 8  -8850324.42546  23157787.097    23157793.6074
  23651086.470    -9900354.883 8  -7463065.34645  23651086.304    23651095.0064
  22966178.270   -13648679.623 8 -10116464.01246  22966177.926    22966185.8024
  20328875.491   -26549860.826 9 -19902890.22248  20328875.293    20328880.0914
  24211429.264    -6536819.231 8  -4817493.70045  24211428.687    24211436.0034
  20983297.516   -23628509.128 9 -17730332.91348  20983296.936    20983302.7714
  20312229.566   -25605815.270 9 -19717737.43748  20312228.787    20312234.7634
  22845994.435   -13295640.454 8  -9853597.18646  22845993.798    22846001.1254
 00  5  3  2 48  0.0000000  0  8 23 25 03 29 11 21 15 31
  23168051.305   -11660908.283 8  -8808296.80846  23168050.702    23168057.1634
  23632387.533    -9998617.424 8  -7539633.29845  23632387.369    23632395.9884
  22980706.848   -13572331.753 8 -10056972.18546  22980706.468    22980714.3374
  20333595.938   -26525054.542 9 -19883560.62648  20333595.725    20333600.5304
  24192163.467    -6638061.306 8  -4896383.54645  24192162.855    24192170.1334
  20984172.696   -23623909.964 9 -17726749.12948  20984172.110    20984177.9424
  20303208.819   -25653219.385 9 -19754675.67048  20303208.052    20303214.0084
  22852338.894   -13262299.965 8  -9827617.61046  22852338.265    22852345.6124
 00  5  3  2 48 30.0000000  0  8 23 25 03 29 11 21 15 31
  23178330.877   -11606888.528 8  -8766203.47346  23178330.276    23178336.7354
  23613701.418   -10096812.535 8  -7616148.72046  23613701.255    23613709.7624
  22995280.343   -13495747.676 8  -9997296.29446  22995279.969    22995287.8334
  20338390.383   -26499859.491 9 -19863928.09448  20338390.176    20338394.9804
  24172915.805    -6739208.238 8  -4975199.25145  24172915.229    24172922.4224
  20985079.635   -23619143.924 9 -17723035.31248  20985079.062    20985084.8954
  20294274.232   -25700170.807 9 -19791261.15548  20294273.467    20294279.4154
  22858774.602   -13228480.237 8  -9801264.59246  22858773.960    22858781.3004
 00  5  3  2 49  0.0000000  0  8 23 25 03 29 11 21 15 31
  23188626.706   -11552783.521 8  -8724043.72446  23188626.118    23188632.5424
  23595028.700   -10194937.277 8  -7692609.31046  23595028.552    23595036.9904
  23009898.212   -13418930.036 8  -9937438.40846  23009897.879    23009905.6964
  20343258.547   -26474277.122 9 -19843993.75748  20343258.345    20343263.1404
  24153686.655    -6840257.516 8  -5053938.85045  24153686.061    24153693.3674
  20986018.564   -23614209.642 9 -17719190.39848  20986018.002    20986023.8404
  20285426.286   -25746666.948 9 -19827491.88048  20285425.532    20285431.4684
  22865301.112   -13194183.245 8  -9774539.67446  22865300.471    22865307.8114
 00  5  3  2 49 30.0000000  0  8 23 25 03 29 11 21 15 31
  23198938.826   -11498592.927 8  -8681817.26946  23198938.199    23198944.7144
  23576369.954   -10292988.844 8  -7769012.88746  23576369.710    23576378.1454
  23024560.087   -13341881.567 8  -9877400.66846  23024559.739    23024567.5944
  20348200.054   -26448309.231 9 -19823759.01648  20348199.854    20348204.6314
  24134476.547    -6941206.821 8  -5132600.55245  24134475.960    24134483.3634
  20986989.516   -23609107.202 9 -17715214.45148  20986988.950    20986994.7804
  20276665.450   -25792705.359 9 -19863365.93548  20276664.687    20276670.6024
  22871918.145   -13159410.683 8  -9747444.19846  22871917.451    22871924.8504
 00  5  3  2 50  0.0000000  0  8 23 25 03 29 11 21 15 31
  23209267.295   -11444316.457 8  -8639523.91046  23209266.669    23209273.1734
  23557725.564   -10390964.753 8  -7845357.51246  23557725.307    23557733.6674
  23039265.292   -13264605.739 8  -9817185.77546  23039264.919    23039272.7494
  20353214.663   -26421957.044 9 -19803224.82448  20353214.473    20353219.2294
  24115285.850    -7042054.158 8  -5211182.80445  24115285.276    24115292.6834
  20987992.496   -23603836.356 9 -17711107.28448  20987991.936    20987997.7494
  20267992.107   -25838283.957 9 -19898881.69748  20267991.342    20267997.2394
  22878625.288   -13124164.315 8  -9719979.52046  22878624.628    22878632.0324
 00  5  3  2 50 30.0000000  0  8 23 25 03 29 11 21 15 31
  23219612.170   -11389953.576 8  -8597163.21846  23219611.527    23219618.0714
  23539096.150   -10488861.956 8  -7921640.81146  23539095.853    23539104.2104
  23054013.149   -13187105.025 8  -9756795.63346  23054012.819    23054020.6774
  20358302.092   -26395222.343 9 -19782392.56948  20358301.901    20358306.6534
  24096115.060    -7142796.949 8  -5289683.59545  24096114.517    24096121.9444
  20989027.731   -23598396.017 9 -17706868.04047  20989027.169    20989032.9844
  20259406.730   -25883400.285 9 -19934037.24948  20259405.955    20259411.8424
  22885422.233   -13088446.128 8  -9692147.18446  22885421.592    22885428.9774
 00  5  3  2 51  0.0000000  0  8 23 25 03 29 11 21 15 31
  23229973.577   -11335504.125 8  -8554735.06446  23229972.935    23229979.4974
  23520482.239   -10586678.046 8  -7997860.91446  23520481.940    23520490.1844
  23068803.261   -13109382.507 8  -9696232.66346  23068802.990    23068810.8604
  20363461.998   -26368106.797 9 -19761263.55248  20363461.819    20363466.5414
  24076964.697    -7243433.007 8  -5368101.22145  24076964.144    24076971.4494
  20990095.386   -23592785.370 9 -17702496.09147  20990094.830    20990100.6384
  20250909.645   -25928052.488 9 -19968831.14448  20250908.878    20250914.7764
  22892308.490   -13052258.617 8  -9663949.15446  22892307.855    22892315.2384
 00  5  3  2 51 30.0000000  0  8 23 25 03 29 11 21 15 31
  23240351.444   -11280967.887 8  -8512239.28246  23240350.830    23240357.3114
  23501884.271   -10684410.251 8  -8074015.67146  23501883.965    23501892.1214
  23083634.941   -13031441.752 8  -9635499.63046  23083634.592    23083642.4734
  20368693.998   -26340612.431 9 -19739839.35148  20368693.797    20368698.5374
  24057834.940    -7343960.525 8  -5446434.29445  24057834.378    24057841.5494
  20991195.497   -23587004.230 9 -17697991.28547  20991194.918    20991200.7404
  20242501.295   -25972238.556 9 -20003261.81948  20242500.529    20242506.4244
  22899283.665   -13015603.916 8  -9635387.06846  22899283.036    22899290.3874
 00  5  3  2 52  0.0000000  0  8 23 25 03 29 11 21 15 31
  23250745.991   -11226344.011 8  -8469675.21146  23250745.354    23250751.9124
  23483302.759   -10782055.603 8  -8150102.73646  23483302.518    23483310.5234
  23098507.696   -12953285.148 8  -9574598.42046  23098507.326    23098515.2464
  20373997.854   -26312740.312 9 -19718120.79548  20373997.645    20374002.3914
  24038726.271    -7444376.827 8  -5524680.70045  24038725.707    24038732.8724
  20992328.217   -23581051.444 9 -17693352.73147  20992327.674    20992333.4974
  20234182.127   -26015955.975 9 -20037327.31248  20234181.348    20234187.2544
  22906347.447   -12978483.452 8  -9606462.05846  22906346.836    22906354.1634
 00  5  3  2 52 30.0000000  0  8 23 25 03 29 11 21 15 31
  23261157.261   -11171632.672 8  -8427042.99246  23261156.576    23261163.1364
  23464738.218   -10879612.092 8  -8226120.57846  23464738.020    23464745.8604
  23113420.841   -12874916.207 8  -9513531.74346  23113420.442    23113428.4214
  20379373.166   -26284492.748 9 -19696109.68648  20379372.964    20379377.6894
  24019639.124    -7544679.906 8  -5602838.85445  24019638.571    24019645.7334
  20993493.615   -23574927.181 9 -17688580.55347  20993493.057    20993498.8714
  20225952.466   -26059203.008 9 -20071026.26848  20225951.695    20225957.5864
  22913499.417   -12940899.536 8  -9577175.89846  22913498.795    22913506.1594
 00  5  3  2 53  0.0000000  0  8 23 25 03 29 11 21 15 31
  23271585.281   -11116833.034 8  -8384341.96146  23271584.597    23271591.0814
  23446191.206   -10977076.296 8  -8302066.50746  23446191.100    23446198.7864
  23128373.751   -12796338.099 8  -9452302.09246  23128373.400    23128381.4174
  20384819.712   -26255870.829 9 -19673806.87448  20384819.503    20384824.2374
  24000574.080    -7644867.151 8  -5680906.77245  24000573.519    24000580.6664
  20994691.860   -23568630.317 9 -17683673.88947  20994691.298    20994697.1194
  20217812.795   -26101977.065 9 -20104356.67248  20217812.030    20217817.9084
  22920739.220   -12902854.279 8  -9547530.25846  22920738.603    22920745.9494
 00  5  3  2 53 30.0000000  0  8 23 25 03 29 11 21 15 31
  23282030.167   -11061944.769 8  -8341571.86546  23282029.476    23282035.9714
  23427662.175   -11074445.980 8  -8377938.79746  23427662.078    23427669.6974
  23143365.900   -12717553.754 8  -9390911.73446  23143365.512    23143373.5694
  20390337.175   -26226876.388 9 -19651213.78748  20390336.973    20390341.6904
  23981531.313    -7744936.599 8  -5758882.88245  23981530.822    23981537.9824
  20995923.098   -23562160.038 9 -17678632.09147  20995922.545    20995928.3474
  20209763.552   -26144275.977 9 -20137316.83448  20209762.792    20209768.6654
  22928066.301   -12864350.302 8  -9517527.18346  22928065.661    22928073.0404
 00  5  3  2 54  0.0000000  0  8 23 25 03 29 11 21 15 31
  23292491.971   -11006967.527 8  -8298732.44646  23292491.334    23292497.8124
  23409151.832   -11171717.733 8  -8453734.77346  23409151.722    23409159.3154
  23158396.870   -12638565.508 8  -9329362.49046  23158396.506    23158404.5104
  20395925.179   -26197511.092 9 -19628331.72248  20395924.975    20395929.6864
  23962511.517    -7844885.830 8  -5836765.32645  23962511.049    23962518.2184
  20997187.423   -23555515.911 9 -17673454.82847  20997186.860    20997192.6584
  20201805.117   -26186097.718 9 -20169905.17648  20201804.352    20201810.2164
  22935480.359   -12825389.091 8  -9487167.82146  22935479.748    22935487.1234
 00  5  3  2 54 30.0000000  0  8 23 25 03 29 11 21 15 31
  23302970.775   -10951901.058 8  -8255823.49846  23302970.119    23302976.5684
  23390660.499   -11268889.352 8  -8529452.73146  23390660.433    23390667.9694
  23173466.043   -12559376.570 8  -9267656.86446  23173465.684    23173473.6914
  20401583.434   -26167776.672 9 -19605162.03048  20401583.228    20401587.9364
  23943515.044    -7944712.671 8  -5914552.41045  23943514.599    23943521.7924
  20998484.842   -23548697.911 9 -17668142.08547  20998484.272    20998490.0644
  20193937.861   -26227440.326 9 -20202120.16348  20193937.098    20193942.9434
  22942980.986   -12785973.363 8  -9456454.28346  22942980.345    22942987.6804
 00  5  3  2 55  0.0000000  0  8 23 25 03 29 11 21 15 31
  23313466.592   -10896745.205 8  -8212844.89746  23313465.934    23313472.3344
  23372188.709   -11365958.547 8  -8605090.87746  23372188.601    23372196.1634
  23188572.711   -12479990.701 8  -9205797.78446  23188572.355    23188580.3804
  20407311.570   -26137675.115 9 -19581706.25348  20407311.362    20407316.0684
  23924542.312    -8044414.893 8  -5992242.36945  23924541.825    23924548.9834
  20999815.470   -23541705.228 9 -17662693.22047  20999814.901    20999820.6904
  20186162.133   -26268301.913 9 -20233960.33048  20186161.371    20186167.2034
  22950567.655   -12746105.559 8  -9425388.47146  22950566.983    22950574.3014
 00  5  3  2 55 30.0000000  0  8 23 25 03 29 11 21 15 31
  23323979.615   -10841498.863 8  -8169795.78546  23323978.975    23323985.2714
  23353737.084   -11462921.754 8  -8680646.43546  23353736.965    23353744.5304
  23203716.303   -12400410.400 8  -9143787.20046  23203715.941    23203724.0364
  20413109.362   -26107207.390 9 -19557965.15248  20413109.159    20413113.8644
  23905593.715    -8143989.971 8  -6069833.26545  23905593.212    23905600.3284
  21001179.588   -23534536.771 9 -17657107.38547  21001179.006    21001184.7794
  20178478.457   -26308679.874 9 -20265423.64648  20178477.691    20178483.5204
  22958239.891   -12705787.274 8  -9393971.65046  22958239.282    22958246.6594
 00  5  3  2 56  0.0000000  0  8 23 25 03 29 11 21 15 31
  23334509.902   -10786161.903 8  -8126676.06446  23334509.235    23334515.5974
  23335306.119   -11559776.547 8  -8756117.51946  23335305.904    23335313.5044
  23218896.429   -12320638.807 8  -9081627.55046  23218896.043    23218904.1364
  20418976.423   -26076375.698 9 -19533940.44248  20418976.217    20418980.9224
  23886669.758    -8243435.560 8  -6147323.24645  23886669.244    23886676.2514
  21002577.149   -23527192.295 9 -17651384.39447  21002576.579    21002582.3394
  20170887.145   -26348572.387 9 -20296508.69248  20170886.386    20170892.1954
  22965997.501   -12665020.810 8  -9362205.59046  22965996.861    22966004.2604
 00  5  3  2 56 30.0000000  0  8 23 25 03 29 11 21 15 31
  23345057.322   -10730734.433 8  -8083485.81646  23345056.693    23345063.0674
  23316896.104   -11656520.645 8  -8831502.35446  23316895.900    23316903.5214
  23234112.229   -12240679.491 8  -9019321.62046  23234111.789    23234119.9284
  20424912.339   -26045182.175 9 -19509633.78448  20424912.128    20424916.8284
  23867770.776    -8342749.820 8  -6224710.92545  23867770.236    23867777.2974
  21004008.370   -23519671.010 9 -17645523.62947  21004007.828    21004013.5634
  20163388.504   -26387977.929 9 -20327214.28148  20163387.737    20163393.5184
  22973839.875   -12623808.705 8  -9330092.28246  22973839.272    22973846.6474
 00  5  3  2 57  0.0000000  0  8 23 25 03 29 11 21 15 31
  23355622.252   -10675215.672 8  -8040224.44246  23355621.550    23355627.9704
  23298507.709   -11753151.018 8  -8906798.56046  23298507.579    23298515.1784
  23249363.269   -12160534.776 8  -8956871.23546  23249362.890    23249370.9804
  20430916.869   -26013628.110 9 -19485046.18848  20430916.651    20430921.3324
  23848897.288    -8441930.227 8  -6301994.29245  23848896.792    23848903.8104
  21005473.435   -23511972.144 9 -17639524.49247  21005472.864    21005478.5964
  20155983.074   -26426893.733 9 -20357538.25248  20155982.284    20155988.0744
  22981766.715   -12582152.834 8  -9297633.17646  22981766.104    22981773.5264
 00  5  3  2 57 30.0000000  0  8 23 25 03 29 11 21 15 31
  23366204.512   -10619605.384 8  -7996891.73746  23366203.843    23366210.1844
  23280141.583   -11849664.909 8  -8982004.01746  23280141.474    23280149.0104
  23264648.884   -12080207.962 8  -8894278.94446  23264648.559    23264656.6954
  20436989.645   -25981715.442 9 -19460179.15348  20436989.437    20436994.1144
  23830049.700    -8540974.603 8  -6379171.66445  23830049.211    23830056.1114
  21006972.236   -23504095.722 9 -17633387.00147  21006971.686    21006977.3924
  20148671.122   -26465318.144 9 -20387479.32348  20148670.346    20148676.1184
  22989777.532   -12540055.734 8  -9264830.24846  22989776.919    22989784.3384
 00  5  3  2 58  0.0000000  0  8 23 25 03 29 11 21 15 31
  23376804.301   -10563903.068 8  -7953487.32346  23376803.596    23376809.9844
  23261798.199   -11946059.607 8  -9057116.58346  23261798.073    23261805.5204
  23279968.567   -11999702.248 8  -8831547.26546  23279968.283    23279976.4204
  20443130.341   -25949445.620 9 -19435033.82148  20443130.136    20443134.8104
  23811228.545    -8639880.612 8  -6456241.22445  23811227.960    23811234.8884
  21008505.001   -23496040.996 9 -17627110.56647  21008504.445    21008510.1544
  20141453.013   -26503249.308 9 -20417036.04348  20141452.233    20141458.0054
  22997871.904   -12497519.659 8  -9231685.26546  22997871.275    22997878.6834
 00  5  3  2 58 30.0000000  0  8 23 25 03 29 11 21 15 31
  23387421.619   -10508108.567 8  -7910011.08346  23387420.976    23387427.3334
  23243477.916   -12042332.764 8  -9132134.44146  23243477.706    23243485.1974
  23295321.829   -11919020.749 8  -8768678.59346  23295321.505    23295329.6074
  20449338.632   -25916820.843 9 -19409611.89848  20449338.418    20449343.0744
  23792434.101    -8738645.846 8  -6533201.08245  23792433.591    23792440.4794
  21010071.806   -23487807.148 9 -17620694.56247  21010071.240    21010076.9614
  20134329.160   -26540685.227 9 -20446206.86148  20134328.375    20134334.1514
  23006049.302   -12454546.969 8  -9198200.06446  23006048.664    23006056.0964
 00  5  3  2 59  0.0000000  0  8 23 25 03 29 11 21 15 31
  23398056.587   -10452221.309 8  -7866462.55646  23398055.943    23398062.3204
  23225181.335   -12138481.072 8  -9207055.02146  23225181.122    23225188.5544
  23310707.949   -11838166.281 8  -8705675.15146  23310707.603    23310715.7164
  20455614.193   -25883842.604 9 -19383914.55648  20455613.963    20455618.6154
  23773666.897    -8837267.890 8  -6610049.36345  23773666.333    23773673.2664
  21011672.930   -23479393.103 9 -17614138.14847  21011672.362    21011678.1014
  20127300.010   -26577623.578 9 -20474989.95948  20127299.221    20127304.9994
  23014309.405   -12411139.838 8  -9164376.33046  23014308.756    23014316.1924
 00  5  3  2 59 30.0000000  0  8 23 25 03 29 11 21 15 31
  23408709.271   -10396241.018 8  -7822841.54446  23408708.649    23408715.0184
  23206909.008   -12234502.377 8  -9281876.65346  23206908.781    23206916.0814
  23326126.411   -11757142.196 8  -8642539.54446  23326126.059    23326134.1664
  20461956.636   -25850512.674 9 -19357943.16648  20461956.422    20461961.0844
  23754927.418    -8935744.395 8  -6686784.23445  23754926.856    23754933.7304
  21013308.289   -23470799.136 9 -17607441.52947  21013307.710    21013313.4514
  20120365.875   -26614062.537 9 -20503383.92348  20120365.101    20120370.8614
  23022651.680   -12367300.548 8  -9130215.84346  23022651.090    23022658.5574
 00  5  3  3  0  0.0000000  0  8 23 25 03 29 11 21 15 31
  23419379.713   -10340167.299 8  -7779147.71746  23419379.081    23419385.4484
  23188661.399   -12330393.906 8  -9356597.14646  23188661.135    23188668.3514
  23341576.500   -11675951.609 8  -8579274.18946  23341576.153    23341584.2684
  20468365.662   -25816832.972 9 -19331699.22548  20468365.445    20468370.0844
  23736215.999    -9034073.409 8  -6763404.19445  23736215.379    23736222.3014
  21014978.133   -23462024.165 9 -17600603.87347  21014977.554    21014983.2674
  20113527.127   -26650000.259 9 -20531387.31048  20113526.355    20113532.1064
  23031075.714   -12323031.969 8  -9095720.84846  23031075.108    23031082.6064
 00  5  3  3  0 30.0000000  0  8 23 25 03 29 11 21 15 31
  23430068.112   -10283999.516 8  -7735380.61346  23430067.482    23430073.8774
  23170439.063   -12426152.529 8  -9431214.08746  23170438.750    23170445.9474
  23357057.751   -11594597.220 8  -8515881.19546  23357057.406    23357065.5104
  20474840.979   -25782804.907 9 -19305183.83248  20474840.763    20474845.4174
  23717533.049    -9132252.290 8  -6839907.14745  23717532.484    23717539.4264
  21016682.499   -23453067.570 9 -17593624.68447  21016681.914    21016687.6264
  20106784.169   -26685434.586 9 -20558998.44648  20106783.394    20106789.1324
  23039581.098   -12278336.060 8  -9060892.88346  23039580.480    23039587.9874
 00  5  3  3  1  0.0000000  0  8 23 25 03 29 11 21 15 31
  23440774.406   -10227737.451 8  -7691540.03746  23440773.800    23440780.2024
  23152242.373   -12521775.760 8  -9505725.52446  23152242.116    23152249.3074
  23372569.564   -11513082.082 8  -8452362.95246  23372569.237    23372577.2964
  20481382.200   -25748430.492 9 -19278398.56048  20481381.994    20481386.6304
  23698879.226    -9230278.499 8  -6916291.14645  23698878.707    23698885.5624
  21018421.563   -23443928.502 9 -17586503.30947  21018420.980    21018426.6874
  20100137.363   -26720363.611 9 -20586215.83548  20100136.595    20100142.3324
  23048167.384   -12233215.095 8  -9025733.68546  23048166.736    23048174.2124
 00  5  3  3  1 30.0000000  0  8 23 25 03 29 11 21 15 31
  23451498.687   -10171380.656 8  -7647625.64646  23451498.076    23451504.5324
  23134072.017   -12617261.048 8  -9580129.49546  23134071.796    23134078.9064
  23388111.399   -11431409.444 8  -8388721.96946  23388111.038    23388119.1184
  20487988.974   -25713711.484 9 -19251344.76948  20487988.771    20487993.3994
  23680254.901    -9328149.844 8  -6992554.46145  23680254.341    23680261.2164
  21020195.449   -23434606.648 9 -17579239.50647  21020194.872    21020200.5704
  20093587.122   -26754785.355 9 -20613037.94048  20093586.340    20093592.0894
  23056834.033   -12187671.571 8  -8990245.22746  23056833.416    23056840.8184
 00  5  3  3  2  0.0000000  0  8 23 25 03 29 11 21 15 31
  23462241.073   -10114928.924 8  -7603637.26946  23462240.499    23462246.9004
  23115928.472   -12712605.590 8  -9654423.77746  23115928.236    23115935.2734
  23403682.608   -11349582.450 8  -8324960.72146  23403682.228    23403690.3534
  20494661.009   -25678649.617 9 -19224023.81648  20494660.812    20494665.4334
  23661660.470    -9425864.045 8  -7068695.32145  23661659.894    23661666.7554
  21022004.320   -23425100.872 9 -17571832.38947  21022003.740    21022009.4434
  20087133.646   -26788698.276 9 -20639463.56748  20087132.877    20087138.6184
  23065580.644   -12141707.859 8  -8954429.35946  23065579.982    23065587.3584
 00  5  3  3  2 30.0000000  0  8 23 25 03 29 11 21 15 31
  23473001.625   -10058381.793 8  -7559574.57346  23473000.990    23473007.4404
  23097812.195   -12807806.695 8  -9728606.30546  23097811.918    23097818.9474
  23419282.667   -11267603.753 8  -8261081.24546  23419282.258    23419290.4054
  20501397.946   -25643246.681 9 -19196437.10048  20501397.748    20501402.3764
  23643096.395    -9523418.729 8  -7144711.88445  23643095.866    23643102.6564
  21023848.287   -23415410.598 9 -17564281.50647  21023847.713    21023853.3954
  20080777.471   -26822100.151 9 -20665490.97348  20080776.698    20080782.4244
  23074406.722   -12095326.476 8  -8918288.01646  23074406.061    23074413.4374
 00  5  3  3  3  0.0000000  0  8 23 25 03 29 11 21 15 31
  23483780.466   -10001738.570 8  -7515436.98446  23483779.818    23483786.2664
  23079723.796   -12902861.259 8  -9802674.63546  23079723.530    23079730.4684
  23434911.013   -11185476.452 8  -8197085.98646  23434910.659    23434918.7484
  20508199.417   -25607504.539 9 -19168586.06348  20508199.219    20508203.8464
  23624563.159    -9620811.144 8  -7220601.99145  23624562.685    23624569.4694
  21025727.534   -23405534.995 9 -17556586.21047  21025726.942    21025732.6234
  20074518.899   -26854989.058 9 -20691118.65948  20074518.130    20074523.8474
  23083311.890   -12048529.582 8  -8881822.91546  23083311.226    23083318.6144
 00  5  3  3  3 30.0000000  0  8 23 25 03 29 11 21 15 31
  23494577.606    -9944999.266 8  -7471224.54046  23494577.032    23494583.4234
  23061663.675   -12997767.000 8  -9876627.00346  23061663.443    23061670.3494
  23450566.937   -11103203.894 8  -8132977.54845  23450566.560    23450574.7374
  20515065.161   -25571424.823 9 -19140471.98348  20515064.956    20515069.5724
  23606061.197    -9718039.405 8  -7296364.17945  23606060.745    23606067.4264
  21027642.130   -23395473.596 9 -17548746.13947  21027641.537    21027647.2254
  20068358.221   -26887363.617 9 -20716345.55948  20068357.445    20068363.1404
  23092295.531   -12001320.183 8  -8845036.37546  23092294.927    23092302.2534
 00  5  3  3  4  0.0000000  0  8 23 25 03 29 11 21 15 31
  23505393.108    -9888163.351 8  -7426936.80646  23505392.486    23505398.9314
  23043632.441   -13092521.042 8  -9950461.17246  23043632.216    23043639.1334
  23466249.922   -11020789.265 8  -8068758.40245  23466249.573    23466257.7604
  20521994.722   -25535009.649 9 -19112096.51048  20521994.509    20521999.1254
  23587590.977    -9815100.828 8  -7371996.36045  23587590.551    23587597.1914
  21029592.153   -23385226.062 9 -17540761.02447  21029591.577    21029597.2494
  20062295.768   -26919221.797 9 -20741170.08448  20062294.992    20062300.6764
  23101357.284   -11953700.292 8  -8807929.96346  23101356.733    23101364.0244
 00  5  3  3  4 30.0000000  0  8 23 25 03 29 11 21 15 31
  23516226.956    -9831230.992 8  -7382573.92346  23516226.335    23516232.8464
  23025630.484   -13187121.039 8 -10024175.30946  23025630.289    23025637.1734
  23481959.363   -10938235.791 8  -8004431.04845  23481959.058    23481967.1934
  20528987.718   -25498261.139 9 -19083461.29448  20528987.498    20528992.1174
  23569152.731    -9911993.969 8  -7447497.42345  23569152.346    23569158.9584
  21031577.693   -23374791.902 9 -17532630.48847  21031577.112    21031582.7934
  20056331.841   -26950562.310 9 -20765591.23648  20056331.051    20056336.7304
  23110496.578   -11905673.204 8  -8770506.27646  23110495.977    23110503.3544
 00  5  3  3  5  0.0000000  0  8 23 25 03 29 11 21 15 31
  23527079.566    -9774200.383 8  -7338134.48446  23527078.892    23527085.4694
  23007658.526   -13281563.619 8 -10097766.79046  23007658.320    23007665.1694
  23497694.917   -10855545.193 8  -7939996.86045  23497694.644    23497702.7364
  20536044.067   -25461179.655 9 -19054566.61548  20536043.843    20536048.4644
  23550747.235   -10008714.833 8  -7522864.22545  23550746.847    23550753.4884
  21033599.141   -23364169.037 9 -17524352.90747  21033598.553    21033604.2364
  20050467.077   -26981381.817 9 -20789606.40748  20050466.301    20050471.9734
  23119713.115   -11857239.982 8  -8732766.09646  23119712.486    23119719.8544
 00  5  3  3  5 30.0000000  0  8 23 25 03 29 11 21 15 31
  23537950.807    -9717071.476 8  -7293618.44346  23537950.146    23537956.7224
  22989716.994   -13375845.993 8 -10171233.42546  22989716.830    22989723.6444
  23513455.877   -10772720.960 8  -7875458.53545  23513455.563    23513463.7604
  20543163.323   -25423767.670 9 -19025414.40748  20543163.104    20543167.7224
  23532374.988   -10105261.486 8  -7598095.28646  23532374.576    23532381.2704
  21035656.462   -23353357.516 9 -17515928.32347  21035655.888    21035661.5524
  20044701.666   -27011679.058 9 -20813214.62048  20044700.882    20044706.5634
  23129006.308   -11808403.648 8  -8694711.82046  23129005.672    23129013.0844
 00  5  3  3  6  0.0000000  0  8 23 25 03 29 11 21 15 31
  23548840.685    -9659844.491 8  -7249025.98046  23548840.087    23548846.6434
  22971806.464   -13469965.721 8 -10244573.32646  22971806.349    22971813.1514
  23529241.491   -10689766.751 8  -7810818.95045  23529241.175    23529249.4504
  20550345.057   -25386027.364 9 -18996006.36348  20550344.842    20550349.4494
  23514036.148   -10201632.018 8  -7673189.09945  23514035.712    23514042.4144
  21037749.899   -23342356.514 9 -17507356.09347  21037749.319    21037754.9644
  20039035.925   -27041452.718 9 -20836414.85248  20039035.135    20039040.8024
  23138375.729   -11759167.118 8  -8656345.69346  23138375.086    23138382.5284
 00  5  3  3  6 30.0000000  0  8 23 25 03 29 11 21 15 31
  23559749.475    -9602518.611 8  -7204356.45746  23559748.806    23559755.3824
  22953927.385   -13563920.337 8 -10317784.57146  22953927.237    22953934.0094
  23545051.473   -10606685.166 8  -7746080.09445  23545051.110    23545059.3654
  20557589.002   -25347960.143 9 -18966343.57648  20557588.778    20557593.3974
  23495731.405   -10297823.550 8  -7748143.44545  23495731.034    23495737.7104
  21039879.458   -23331165.630 9 -17498635.89847  21039878.875    21039884.5024
  20033470.179   -27070700.579 9 -20859205.36948  20033469.408    20033475.0764
  23147820.877   -11709532.443 8  -8617669.33946  23147820.227    23147827.6884
 00  5  3  3  7  0.0000000  0  8 23 25 03 29 11 21 15 31
  23570676.918    -9545094.650 8  -7159610.50946  23570676.220    23570682.7754
  22936080.098   -13657707.803 8 -10390865.57346  22936079.963    22936086.6754
  23560884.835   -10523480.485 8  -7681245.33345  23560884.409    23560892.6524
  20564894.565   -25309568.921 9 -18936428.32448  20564894.350    20564898.9624
  23477461.014   -10393834.873 8  -7822957.37145  23477460.633    23477467.2114
  21042045.085   -23319785.104 9 -17489767.93247  21042044.486    21042050.1214
  20028004.587   -27099422.417 9 -20881585.99748  20028003.812    20028009.4704
  23157341.055   -11659503.693 8  -8578685.91146  23157340.397    23157347.8054
 00  5  3  3  7 30.0000000  0  8 23 25 03 29 11 21 15 31
  23581623.277    -9487570.825 8  -7114786.74746  23581622.593    23581629.1854
  22918265.295   -13751324.625 8 -10463813.60446  22918265.175    22918271.8404
  23576741.295   -10440154.447 8  -7616316.00345  23576740.872    23576749.1594
  20572261.693   -25270854.382 9 -18906261.13648  20572261.470    20572266.0904
  23459225.626   -10489662.227 8  -7897627.92845  23459225.166    23459231.7764
  21044247.231   -23308212.580 9 -17480750.35847  21044246.641    21044252.2714
  20022639.653   -27127615.087 9 -20903554.29248  20022638.876    20022644.5254
  23166936.017   -11609082.056 8  -8539396.33546  23166935.335    23166942.7404
 00  5  3  3  8  0.0000000  0  8 23 25 03 29 11 21 15 31
  23592588.666    -9429947.318 8  -7069885.31546  23592588.021    23592594.5144
  22900483.526   -13844768.121 8 -10536626.58346  22900483.376    22900489.9784
  23592620.140   -10356710.596 8  -7551294.87145  23592619.739    23592628.0694
  20579689.858   -25231818.865 9 -18875843.83248  20579689.647    20579694.2954
  23441025.569   -10585303.967 8  -7972153.85945  23441025.086    23441031.6044
  21046485.859   -23296448.355 9 -17471583.40947  21046485.281    21046490.8894
  20017375.683   -27155277.429 9 -20925109.33748  20017374.900    20017380.5554
  23176605.171   -11558270.251 8  -8499802.74946  23176604.471    23176611.8554
 00  5  3  3  8 30.0000000  0  8 23 25 03 29 11 21 15 31
  23603573.322    -9372222.723 8  -7024905.10446  23603572.657    23603579.1394
  22882735.410   -13938034.617 8 -10609301.63646  22882735.232    22882741.8334
  23608521.002   -10273150.834 8  -7486183.42945  23608520.652    23608529.0224
  20587179.036   -25192463.036 9 -18845176.93848  20587178.823    20587183.4444
  23422861.433   -10680756.552 8  -8046532.39945  23422860.961    23422867.4834
  21048761.318   -23284490.748 9 -17462265.77547  21048760.726    21048766.3274
  20012213.207   -27182406.376 9 -20946248.75448  20012212.424    20012218.0644
  23186348.209   -11507070.067 8  -8459906.51046  23186347.586    23186354.9814
 00  5  3  3  9  0.0000000  0  8 23 25 03 29 11 21 15 31
  23614576.975    -9314398.100 8  -6979846.95046  23614576.269    23614582.8414
  22865021.177   -14031123.189 8 -10681838.04946  22865020.965    22865027.5464
  23624443.162   -10189479.544 8  -7420985.07745  23624442.848    23624451.2064
  20594728.492   -25152790.256 9 -18814263.06948  20594728.276    20594732.9084
  23404733.530   -10776019.076 8  -8120762.84545  23404733.011    23404739.5494
  21051073.412   -23272340.607 9 -17452798.10847  21051072.826    21051078.4204
  20007152.223   -27209001.887 9 -20966972.50848  20007151.437    20007157.0614
  23196164.468   -11455485.440 8  -8419710.71646  23196163.809    23196171.2094
 00  5  3  3  9 30.0000000  0  8 23 25 03 29 11 21 15 31
  23625599.991    -9256471.489 8  -6934709.32945  23625599.308    23625605.9654
  22847341.511   -14124029.790 8 -10754232.67646  22847341.295    22847347.8444
  23640386.114   -10105698.766 8  -7355701.42545  23640385.752    23640394.2084
  20602338.149   -25112801.060 9 -18783102.64148  20602337.948    20602342.5824
  23386642.494   -10871087.515 8  -8194842.04945  23386642.005    23386648.5534
  21053422.597   -23259995.502 9 -17443178.52347  21053422.029    21053427.6034
  20002193.354   -27235060.904 9 -20987278.21648  20002192.580    20002198.1934
  23206053.664   -11403517.603 8  -8379216.31646  23206053.014    23206060.4204
 00  5  3  3 10  0.0000000  0  8 23 25 03 29 11 21 15 31
  23636642.206    -9198444.087 8  -6889493.17345  23636641.504    23636648.1394
  22829696.836   -14216752.639 8 -10826484.11346  22829696.630    22829703.1484
  23656349.154   -10021812.759 8  -7290335.74645  23656348.790    23656357.2964
  20610007.465   -25072498.674 9 -18751698.16748  20610007.239    20610011.8734
  23368588.665   -10965960.923 8  -8268769.27545  23368588.143    23368594.6444
  21055808.708   -23247456.270 9 -17433407.67047  21055808.117    21055813.6734
  19997336.609   -27260583.190 9 -21007165.68548  19997335.842    19997341.4344
  23216014.930   -11351170.813 8  -8338426.62646  23216014.328    23216021.6994
 00  5  3  3 10 30.0000000  0  8 23 25 03 29 11 21 15 31
  23647704.012    -9140313.909 8  -6844196.91745  23647703.346    23647709.9154
  22812087.938   -14309287.601 8 -10898589.14846  22812087.731    22812094.1764
  23672331.964    -9937822.951 8  -7224889.19645  23672331.566    23672340.0734
  20617736.315   -25031883.149 9 -18720049.69348  20617736.108    20617740.7394
  23350572.623   -11060635.563 8  -8342541.64346  23350572.185    23350578.5384
  21058232.288   -23234720.234 9 -17423483.46647  21058231.710    21058237.2584
  19992582.603   -27285565.697 9 -21026632.54948  19992581.814    19992587.4144
  23226048.173   -11298446.101 8  -8297342.45846  23226047.581    23226054.8894
 00  5  3  3 11  0.0000000  0  8 23 25 03 29 11 21 15 31
  23658785.168    -9082082.376 8  -6798821.68145  23658784.484    23658791.0454
  22794514.877   -14401634.292 8 -10970547.48546  22794514.646    22794521.0224
  23688333.614    -9853733.890 8  -7159365.31045  23688333.189    23688341.7354
  20625524.041   -24990958.297 9 -18688160.18348  20625523.817    20625528.4444
  23332594.576   -11155110.614 8  -8416158.46646  23332594.052    23332600.4524
  21060693.027   -23221788.891 9 -17413407.06947  21060692.436    21060697.9624
  19987931.217   -27310008.611 9 -21045678.95248  19987930.444    19987936.0284
  23236152.496   -11245347.756 8  -8255967.14746  23236151.887    23236159.1934
 00  5  3  3 11 30.0000000  0  8 23 25 03 29 11 21 15 31
  23669885.957    -9023747.284 8  -6753365.76445  23669885.320    23669891.8214
  22776978.467   -14493788.275 8 -11042355.65646  22776978.217    22776984.5924
  23704353.956    -9769546.958 8  -7093765.15745  23704353.507    23704362.0184
  20633370.627   -24949724.108 9 -18656029.63148  20633370.405    20633375.0354
  23314655.237   -11249381.778 8  -8489616.41846  23314654.751    23314661.1324
  21063191.404   -23208659.773 9 -17403176.56247  21063190.817    21063196.3424
  19983383.181   -27333908.631 9 -21064302.32148  19983382.402    19983387.9824
  23246327.755   -11191876.443 8  -8214301.20346  23246327.192    23246334.5044
 00  5  3  3 12  0.0000000  0  8 23 25 03 29 11 21 15 31
  23681006.242    -8965309.463 8  -6707829.80145  23681005.621    23681012.1964
  22759479.045   -14585747.766 8 -11114012.28446  22759478.820    22759485.1604
  23720392.021    -9685266.507 8  -7028092.13245  23720391.605    23720400.0734
  20641275.490   -24908183.698 9 -18623660.47048  20641275.273    20641279.9074
  23296755.100   -11343447.350 8  -8562914.17746  23296754.642    23296761.0154
  21065727.367   -23195333.164 9 -17392792.17647  21065726.781    21065732.3054
  19978938.533   -27357265.363 9 -21082502.35048  19978937.759    19978943.3224
  23256573.175   -11138036.436 8  -8172347.96846  23256572.600    23256579.9434
 00  5  3  3 12 30.0000000  0  8 23 25 03 29 11 21 15 31
  23692146.364    -8906767.988 8  -6662213.05345  23692145.709    23692152.2514
  22742017.353   -14677508.952 8 -11185514.39446  22742017.149    22742023.4484
  23736447.433    -9600894.979 8  -6962348.13445  23736447.000    23736455.4724
  20649238.426   -24866338.119 9 -18591053.51548  20649238.230    20649242.8384
  23278894.644   -11437304.492 8  -8636049.52746  23278894.207    23278900.4564
  21068301.166   -23181807.733 9 -17382252.85947  21068300.569    21068306.1044
  19974597.710   -27380076.595 9 -21100277.30848  19974596.934    19974602.4854
  23266888.407   -11083829.614 8  -8130108.90646  23266887.839    23266895.1714
 00  5  3  3 13  0.0000000  0  8 23 25 03 29 11 21 15 31
  23703306.106    -8848123.108 8  -6616515.74645  23703305.393    23703312.0064
  22724593.700   -14769070.295 8 -11256860.78246  22724593.481    22724599.7214
  23752519.444    -9516435.943 8  -6896535.95545  23752519.033    23752527.5174
  20657258.977   -24824190.006 9 -18558210.82148  20657258.757    20657263.3574
  23261074.077   -11530951.836 8  -8709021.39546  23261073.654    23261079.8424
  21070912.752   -23168083.549 9 -17371558.66947  21070912.171    21070917.6924
  19970360.799   -27402341.578 9 -21117626.62048  19970360.027    19970365.5604
  23277272.864   -11029259.287 8  -8087586.58746  23277272.220    23277279.6344
 00  5  3  3 13 30.0000000  0  8 23 25 03 29 11 21 15 31
  23714485.796    -8789373.312 8  -6570736.67445  23714485.143    23714491.6554
  22707208.764   -14860428.292 8 -11328048.72346  22707208.537    22707214.7624
  23768607.774    -9431891.424 8  -6830657.16945  23768607.346    23768615.7994
  20665336.818   -24781740.485 9 -18525133.25848  20665336.595    20665341.2084
  23243294.065   -11624385.887 8  -8781827.06046  23243293.613    23243299.8524
  21073562.484   -23154159.045 9 -17360708.38347  21073561.897    21073567.4134
  19966228.297   -27424058.031 9 -21134548.50848  19966227.508    19966233.0474
  23287726.102   -10974327.264 8  -8044782.42946  23287725.483    23287732.8914
 00  5  3  3 14  0.0000000  0  8 23 25 03 29 11 21 15 31
  23725685.412    -8730519.201 8  -6524876.31745  23725684.710    23725691.1734
  22689862.834   -14951581.040 8 -11399076.73446  22689862.635    22689868.8524
  23784711.691    -9347265.441 8  -6764714.89845  23784711.276    23784719.7274
  20673471.580   -24738992.109 9 -18491822.82548  20673471.364    20673475.9534
  23225555.000   -11717605.148 8  -8854465.36046  23225554.464    23225560.7294
  21076250.345   -23140034.109 9 -17349701.92247  21076249.756    21076255.2904
  19962200.275   -27445225.319 9 -21151042.47848  19962199.497    19962205.0144
  23298247.502   -10919037.281 8  -8001699.34446  23298246.820    23298254.2564
 00  5  3  3 14 30.0000000  0  8 23 25 03 29 11 21 15 31
  23736905.015    -8671559.774 8  -6478933.90345  23736904.322    23736910.7504
  22672556.621   -15042525.121 8 -11469942.14346  22672556.416    22672562.6404
  23800830.627    -9262560.652 8  -6698711.22145  23800830.168    23800838.5364
  20681662.969   -24695946.005 9 -18458280.39248  20681662.743    20681667.3274
  23207857.393   -11810606.300 8  -8926933.69546  23207856.836    23207863.1764
  21078976.553   -23125707.651 9 -17338538.43147  21078975.979    21078981.4854
  19958277.174   -27465841.199 9 -21167106.77548  19958276.383    19958281.9034
  23308836.603   -10863391.386 8  -7958338.91846  23308835.918    23308843.3454
 00  5  3  3 15  0.0000000  0  8 23 25 03 29 11 21 15 31
  23748144.699    -8612494.686 8  -6432909.16045  23748144.022    23748150.4524
  22655290.652   -15133258.027 8 -11540643.00946  22655290.479    22655296.6484
  23816963.871    -9177779.864 8  -6632648.33145  23816963.439    23816971.7884
  20689910.637   -24652604.203 9 -18424507.55448  20689910.413    20689915.0014
  23190201.762   -11903387.009 8  -8999230.27646  23190201.208    23190207.3714
  21081741.302   -23111178.648 9 -17327217.10647  21081740.725    21081746.2414
  19954459.298   -27485904.163 9 -21182740.23448  19954458.516    19954464.0254
  23319492.813   -10807392.562 8  -7914703.47446  23319492.151    23319499.5754
 00  5  3  3 15 30.0000000  0  8 23 25 03 29 11 21 15 31
  23759404.448    -8553324.255 8  -6386802.31445  23759403.777    23759410.1884
  22638065.228   -15223777.884 8 -11611177.86046  22638065.044    22638071.1574
  23833110.988    -9092926.835 8  -6566529.14145  23833110.571    23833118.8764
  20698214.088   -24608969.187 9 -18390506.22948  20698213.865    20698218.4394
  23172588.360   -11995945.603 8  -9071353.76846  23172587.842    23172593.9954
  21084544.612   -23096447.170 9 -17315738.01247  21084544.044    21084549.5474
  19950746.758   -27505413.578 9 -21197942.35248  19950745.966    19950751.4734
  23330215.536   -10751044.149 8  -7870795.62846  23330214.898    23330222.3514
 00  5  3  3 16  0.0000000  0  8 23 25 03 29 11 21 15 31
  23770684.416    -8494047.105 8  -6340612.32845  23770683.848    23770690.2814
  22620881.050   -15314080.963 8 -11681543.80146  22620880.860    22620886.9354
  23849271.403    -9008003.463 8  -6500355.13945  23849270.933    23849279.3664
  20706573.177   -24565041.779 9 -18356277.07148  20706572.968    20706577.5564
  23155017.953   -12088278.605 8  -9143301.49846  23155017.415    23155023.5564
  21087386.806   -23081511.244 9 -17304099.61147  21087386.236    21087391.7234
  19947140.034   -27524367.010 9 -21212711.23848  19947139.253    19947144.7674
  23341004.586   -10694347.678 8  -7826616.57846  23341003.939    23341011.3724
 00  5  3  3 16 30.0000000  0  8 23 25 03 29 11 21 15 31
  23781984.788    -8434663.266 8  -6294339.20945  23781984.145    23781990.5634
  22603738.542   -15404165.081 8 -11751739.11546  22603738.348    22603744.3744
  23865444.588    -8923012.862 8  -6434128.75645  23865444.176    23865452.5544
  20714987.484   -24520824.200 9 -18321821.80448  20714987.283    20714991.8494
  23137490.790   -12180383.843 8  -9215071.72346  23137490.289    23137496.4714
  21090267.969   -23066370.552 9 -17292301.65047  21090267.392    21090272.8904
  19943639.259   -27542763.495 9 -21227046.13748  19943638.486    19943644.0034
  23351859.266   -10637306.154 8  -7782168.65846  23351858.595    23351865.9934
 00  5  3  3 17  0.0000000  0  8 23 25 03 29 11 21 15 31
  23793305.395    -8375172.775 8  -6247982.98745  23793304.738    23793311.2224
  22586638.127   -15494027.955 8 -11821762.03946  22586637.916    22586643.9594
  23881629.834    -8837958.669 8  -6367852.81845  23881629.393    23881637.8884
  20723456.606   -24476318.688 9 -18287142.17448  20723456.390    20723460.9494
  23120007.522   -12272259.160 8  -9286662.80546  23120006.933    23120013.1954
  21093188.131   -23051024.835 9 -17280343.93347  21093187.580    21093193.0684
  19940244.683   -27560602.067 9 -21240946.30448  19940243.896    19940249.3894
  23362778.931   -10579923.030 8  -7737454.56646  23362778.215    23362785.6754
 00  5  3  3 17 30.0000000  0  8 23 25 03 29 11 21 15 31
  23804646.686    -8315573.959 8  -6201542.34845  23804646.086    23804652.5064
  22569580.646   -15583665.443 8 -11891609.34246  22569580.405    22569586.4114
  23897826.879    -8752842.488 8  -6301528.59445  23897826.489    23897835.0424
  20731980.350   -24431525.979 9 -18252238.74948  20731980.119    20731984.7114
  23102568.492   -12363901.045 8  -9358071.99246  23102567.955    23102574.2024
  21096147.643   -23035472.573 9 -17268225.26647  21096147.071    21096152.5594
  19936956.767   -27577880.054 9 -21254409.64848  19936955.983    19936961.4704
  23373763.263   -10522199.835 8  -7692475.46946  23373762.581    23373770.0564
 00  5  3  3 18  0.0000000  0  8 23 25 03 29 11 21 15 31
  23816008.559    -8255867.062 8  -6155017.49645  23816007.972    23816014.3624
  22552566.308   -15673075.899 8 -11961279.73846  22552566.084    22552572.0674
  23914035.112    -8667668.063 8  -6235158.97045  23914034.639    23914043.0814
  20740558.290   -24386448.542 9 -18217113.46048  20740558.080    20740562.6704
  23085174.429   -12455307.523 8  -9429297.74846  23085173.807    23085180.0644
  21099146.455   -23019713.562 9 -17255945.50547  21099145.895    21099151.3894
  19933775.666   -27594596.872 9 -21267435.72348  19933774.875    19933780.3514
  23384811.662   -10464140.064 8  -7647234.10046  23384811.022    23384818.4634
 00  5  3  3 18 30.0000000  0  8 23 25 03 29 11 21 15 31
  23827390.764    -8196052.526 7  -6108408.77245  23827390.151    23827396.6054
  22535595.604   -15762257.191 8 -12030771.55946  22535595.372    22535601.3264
  23930253.743    -8582438.994 8  -6168746.77045  23930253.211    23930261.7494
  20749189.933   -24341088.913 9 -18181768.28248  20749189.715    20749194.3054
  23067825.400   -12546476.914 8  -9500338.74146  23067824.837    23067831.0444
  21102184.657   -23003747.497 9 -17243504.39447  21102184.092    21102189.5874
  19930701.401   -27610752.040 9 -21280024.14148  19930700.613    19930706.0954
  23395923.454   -10405747.430 8  -7601733.37346  23395922.780    23395930.2644
 00  5  3  3 19  0.0000000  0  8 23 25 03 29 11 21 15 31
  23838793.982    -8136128.341 8  -6061714.60645  23838793.357    23838799.7944
  22518669.304   -15851205.070 8 -12100081.50546  22518669.070    22518675.0174
  23946482.377    -8497156.909 8  -6102293.26345  23946481.886    23946490.3654
  20757875.175   -24295447.543 9 -18146203.56848  20757874.962    20757879.5474
  23050522.223   -12637405.064 8  -9571191.78246  23050521.696    23050527.8854
  21105262.654   -22987572.267 9 -17230900.30247  21105262.111    21105267.6054
  19927734.604   -27626342.716 9 -21292172.70348  19927733.807    19927739.2824
  23407098.330   -10347022.963 8  -7555974.05546  23407097.683    23407105.1944
 00  5  3  3 19 30.0000000  0  8 23 25 03 29 11 21 15 31
  23850217.866    -8076095.630 8  -6014935.87845  23850217.208    23850223.6284
  22501787.653   -15939918.460 8 -12169208.73646  22501787.437    22501793.3204
  23962720.315    -8411826.518 8  -6035802.12345  23962719.764    23962728.2864
  20766613.476   -24249527.580 9 -18110421.76548  20766613.263    20766617.8314
  23033265.153   -12728091.139 8  -9641856.18646  23033264.673    23033270.7724
  21108380.450   -22971188.196 9 -17218133.47247  21108379.883    21108385.3784
  19924875.152   -27641369.054 9 -21303881.51648  19924874.386    19924879.8374
  23418335.570   -10287970.943 8  -7509959.52646  23418334.835    23418342.4114
 00  5  3  3 20  0.0000000  0  8 23 25 03 29 11 21 15 31
  23861662.557    -8015953.238 8  -5968071.67545  23861661.935    23861668.3414
  22484951.280   -16028393.780 8 -12238150.45346  22484951.042    22484956.9194
  23978967.040    -8326449.582 8  -5969274.71845  23978966.567    23978975.0584
  20775404.547   -24203330.147 9 -18074423.75848  20775404.327    20775408.8584
  23016054.771   -12818531.612 8  -9712329.21346  23016054.327    23016060.3824
  21111538.270   -22954593.810 9 -17205202.76947  21111537.696    21111543.1774
  19922123.508   -27655829.046 9 -21315149.03448  19922122.721    19922128.1814
  23429634.698   -10228593.526 8  -7463691.42346  23429634.012    23429641.5294
 00  5  3  3 20 30.0000000  0  8 23 25 03 29 11 21 15 31
  23873128.135    -7955701.070 8  -5921121.93345  23873127.498    23873133.9414
  22468160.576   -16116629.218 8 -12306905.25446  22468160.346    22468166.2034
  23995221.967    -8241029.538 8  -5902713.72545  23995221.504    23995230.0824
  20784248.025   -24156857.457 9 -18038211.25848  20784247.795    20784252.3114
  22998891.630   -12908724.596 8  -9782609.39846  22998891.179    22998897.1744
  21114736.059   -22937789.264 9 -17192108.29447  21114735.483    21114740.9524
  19919479.724   -27669721.985 9 -21325974.68448  19919478.962    19919484.4114
  23440995.233   -10168893.709 8  -7417172.10746  23440994.547    23441002.0154
 00  5  3  3 21  0.0000000  0  8 23 25 03 29 11 21 15 31
  23884614.788    -7895338.751 8  -5874086.36645  23884614.146    23884620.4974
  22451416.081   -16204622.024 8 -12375470.99146  22451415.809    22451421.6544
  24011484.634    -8155568.898 8  -5836121.09845  24011484.125    24011492.8124
  20793143.528   -24110111.240 9 -18001785.62448  20793143.306    20793147.8144
  22981776.068   -12998667.380 8  -9852694.61846  22981775.547    22981781.5244
  21117974.060   -22920773.391 9 -17178849.15747  21117973.471    21117978.9484
  19916944.156   -27683046.416 9 -21336357.33948  19916943.387    19916948.8424
  23452416.495   -10108874.577 8  -7370403.98546  23452415.870    23452423.3044
 00  5  3  3 21 30.0000000  0  8 23 25 03 29 11 21 15 31
  23896122.428    -7834865.908 8  -5826964.68145  23896121.779    23896128.2044
  22434718.302   -16292369.111 8 -12443845.26146  22434718.028    22434723.8584
  24027754.375    -8070070.791 8  -5769499.27245  24027753.882    24027762.6374
  20802090.688   -24063093.315 9 -17965148.26948  20802090.482    20802094.9974
  22964708.651   -13088357.341 8  -9922582.84346  22964708.124    22964714.0994
  21121252.441   -22903545.218 9 -17165424.58747  21121251.872    21121257.3364
  19914517.046   -27695800.931 9 -21346295.90548  19914516.267    19914521.7164
  23463898.000   -10048538.768 8  -7323389.08946  23463897.371    23463904.8554
 00  5  3  3 22  0.0000000  0  8 23 25 03 29 11 21 15 31
  23907651.173    -7774282.304 8  -5779756.68045  23907650.548    23907656.9074
  22418067.680   -16379868.214 8 -12512026.29547  22418067.415    22418073.2334
  24044030.786    -7984538.333 8  -5702850.67845  24044030.363    24044038.9934
  20811089.253   -24015805.611 9 -17928300.70348  20811089.013    20811093.5404
  22947689.720   -13177792.309 8  -9992272.37346  22947689.186    22947695.0924
  21124571.288   -22886104.441 9 -17151834.35247  21124570.704    21124576.1904
  19912198.507   -27707984.819 9 -21355789.82648  19912197.742    19912203.1724
  23475439.257    -9987888.885 8  -7276129.45446  23475438.612    23475446.1394
 00  5  3  3 22 30.0000000  0  8 23 25 03 29 11 21 15 31
  23919201.289    -7713586.314 8  -5732461.11245  23919200.592    23919206.9774
  22401464.976   -16467115.689 8 -12580011.25747  22401464.719    22401470.4924
  24060313.261    -7898973.735 8  -5636177.04845  24060312.852    24060321.4714
  20820138.955   -23968249.102 9 -17891243.67048  20820138.718    20820143.2544
  22930719.881   -13266968.853 8 -10061760.52346  22930719.423    22930725.2964
  21127930.967   -22868449.142 9 -17138076.95547  21127930.368    21127935.8814
  19909989.055   -27719595.670 9 -21364837.22948  19909988.252    19909993.6664
  23487039.927    -9926927.103 8  -7228626.79546  23487039.261    23487046.8114
 00  5  3  3 23  0.0000000  0  8 23 25 03 29 11 21 15 31
  23930772.519    -7652779.104 8  -5685078.87345  23930771.871    23930778.2454
  22384910.364   -16554110.477 8 -12647799.32247  22384910.129    22384915.8274
  24076601.048    -7813380.873 8  -5569481.40345  24076600.716    24076609.3724
  20829239.209   -23920426.751 9 -17853979.48848  20829238.978    20829243.5304
  22913799.609   -13355885.661 8 -10131046.29246  22913799.097    22913804.9064
  21131331.423   -22850579.505 9 -17124152.55347  21131330.834    21131336.3644
  19907888.554   -27730633.809 9 -21373438.36248  19907887.746    19907893.1564
  23498699.146    -9865657.609 8  -7180884.35046  23498698.460    23498705.9914
 00  5  3  3 23 30.0000000  0  8 23 25 03 29 11 21 15 31
  23942365.197    -7591859.241 8  -5637608.86145  23942364.526    23942370.9424
  22368404.640   -16640848.623 8 -12715387.40247  22368404.366    22368410.0554
  24092893.901    -7727761.567 8  -5502765.13545  24092893.577    24092902.2724
  20838389.908   -23872339.611 9 -17816508.97048  20838389.683    20838394.1994
  22896929.297   -13444539.221 8 -10200126.92846  22896928.776    22896934.6564
  21134772.999   -22832493.822 9 -17110059.78547  21134772.392    21134777.9264
  19905897.397   -27741097.277 9 -21381591.68848  19905896.595    19905902.0054
  23510416.524    -9804082.401 8  -7132903.68146  23510415.848    23510423.3084
 00  5  3  3 24  0.0000000  0  8 23 25 03 29 11 21 15 31
  23953979.163    -7530827.104 8  -5590051.36645  23953978.525    23953984.9844
  22351948.005   -16727328.320 8 -12782774.10347  22351947.739    22351953.4244
  24109191.134    -7642119.630 8  -5436031.23445  24109190.774    24109199.4754
  20847590.466   -23823990.247 9 -17778834.13748  20847590.224    20847594.7334
  22880109.508   -13532927.657 8 -10269000.97846  22880109.000    22880114.8094
  21138255.595   -22814192.409 9 -17095798.92947  21138255.011    21138260.5404
  19904015.711   -27750985.527 9 -21389296.80248  19904014.917    19904020.3284
  23522191.456    -9742204.874 8  -7084687.45046  23522190.766    23522198.2534
 00  5  3  3 24 30.0000000  0  8 23 25 03 29 11 21 15 31
  23965614.732    -7469681.787 8  -5542405.66945  23965614.120    23965620.5644
  22335541.073   -16813546.684 8 -12849957.15847  22335540.887    22335546.5514
  24125492.161    -7556457.400 8  -5369281.52545  24125491.779    24125500.5884
  20856840.767   -23775379.639 9 -17740955.72848  20856840.520    20856845.0144
  22863340.726   -13621048.022 8 -10337666.11946  22863340.179    22863346.0714
  21141779.576   -22795673.755 9 -17081368.78847  21141778.981    21141784.5064
  19902243.789   -27760296.900 9 -21396552.39848  19902243.004    19902248.4134
  23534023.376    -9680027.639 8  -7036237.68646  23534022.695    23534030.1914
 00  5  3  3 25  0.0000000  0  8 23 25 03 29 11 21 15 31
  23977271.956    -7408422.911 8  -5494671.49545  23977271.361    23977277.7934
  22319184.514   -16899500.908 8 -12916934.40447  22319184.281    22319189.9144
  24141796.471    -7470777.844 8  -5302518.31345  24141796.092    24141804.9864
  20866140.334   -23726509.986 9 -17702875.47448  20866140.102    20866144.5824
  22846623.447   -13708897.925 8 -10406120.53646  22846622.872    22846628.7024
  21145344.978   -22776937.260 9 -17066768.90847  21145344.383    21145349.9094
  19900581.790   -27769030.644 9 -21403357.90548  19900580.994    19900586.4114
  23545911.824    -9617553.514 8  -6987556.58546  23545911.185    23545918.5504
 00  5  3  3 25 30.0000000  0  8 23 25 03 29 11 21 15 31
  23988950.713    -7347050.838 8  -5446849.09545  23988950.046    23988956.5314
  22302878.578   -16985188.940 8 -12983704.21647  22302878.319    22302883.9614
  24158103.422    -7385084.592 8  -5235744.44445  24158102.993    24158111.9814
  20875488.763   -23677383.576 9 -17664595.14448  20875488.550    20875493.0354
  22829957.868   -13796475.520 8 -10474362.75246  22829957.319    22829963.0894
  21148951.921   -22757982.609 9 -17051999.03447  21148951.336    21148956.8424
  19899029.790   -27777186.321 9 -21409712.95948  19899029.009    19899034.4254
  23557856.139    -9554786.003 8  -6938646.84646  23557855.456    23557862.8704
 00  5  3  3 26  0.0000000  0  8 23 25 03 29 11 21 15 31
  24000651.269    -7285564.349 8  -5398937.55545  24000650.535    24000657.0284
  22286623.919   -17070607.422 8 -13050263.99447  22286623.662    22286629.2954
  24174412.532    -7299379.766 8  -5168961.54945  24174412.063    24174421.0894
  20884885.868   -23628001.401 9 -17626115.52148  20884885.635    20884890.1574
  22813344.876   -13883777.225 8 -10542389.99446  22813344.410    22813350.1344
  21152600.645   -22738808.508 9 -17037058.15947  21152600.050    21152605.5594
  19897588.154   -27784762.209 9 -21415616.23648  19897587.377    19897592.7814
  23569855.887    -9491727.169 8  -6889510.11146  23569855.238    23569862.5554
 00  5  3  3 26 30.0000000  0  8 23 25 03 29 11 21 15 31
  24012373.697    -7223962.906 8  -5350936.44445  24012372.930    24012379.3514
  22270420.999   -17155753.925 8 -13116611.84447  22270420.768    22270426.3674
  24190723.330    -7213666.011 8  -5102171.70645  24190722.941    24190731.9634
  20894331.264   -23578365.310 9 -17587438.04148  20894331.036    20894335.5644
  22796784.863   -13970800.534 8 -10610200.30146  22796784.335    22796790.0964
  21156291.272   -22719413.975 9 -17021945.52347  21156290.665    21156296.1754
  19896257.061   -27791757.113 9 -21421066.79348  19896256.268    19896261.6584
  23581910.476    -9428379.865 8  -6840148.59446  23581909.853    23581917.1794
 00  5  3  3 27  0.0000000  0  8 23 25 03 29 11 21 15 31
  24024117.744    -7162247.167 8  -5302846.24045  24024117.080    24024123.4294
  22254270.173   -17240626.830 8 -13182746.49347  22254269.920    22254275.4984
  24207035.112    -7127947.372 8  -5035378.04145  24207034.718    24207043.7594
  20903824.442   -23528478.311 9 -17548565.04748  20903824.214    20903828.7454
  22780278.009   -14057543.974 8 -10677792.52346  22780277.502    22780283.2894
  21160023.884   -22699798.870 9 -17006661.00147  21160023.291    21160028.7804
  19895036.470   -27798171.143 9 -21426064.72248  19895035.703    19895041.0884
  23594019.188    -9364748.246 8  -6790565.54246  23594018.560    23594025.8444
 00  5  3  3 27 30.0000000  0  8 23 25 03 29 11 21 15 31
  24035883.903    -7100415.372 8  -5254665.62945  24035883.294    24035889.6024
  22238172.147   -17325221.998 8 -13248664.73447  22238171.924    22238177.4694
  24223347.575    -7042225.198 8  -4968581.64945  24223347.186    24223356.1664
  20913365.345   -23478340.423 9 -17509496.55048  20913365.109    20913369.6704
  22763825.226   -14144003.670 8 -10745163.65146  22763824.732    22763830.4654
  21163798.795   -22679961.400 9 -16991203.21447  21163798.177    21163803.6934
  19893926.889   -27804002.141 9 -21430608.34148  19893926.102    19893931.5024
  23606181.853    -9300833.558 8  -6740761.90846  23606181.160    23606188.4254
 00  5  3  3 28  0.0000000  0  8 23 25 03 29 11 21 15 31
  24047671.985    -7038468.645 8  -5206395.45645  24047671.324    24047677.6894
  22222127.166   -17409538.549 8 -13314365.86847  22222126.932    22222132.4624
  24239659.884    -6956503.759 8  -4901785.82345  24239659.473    24239668.4614
  20922953.344   -23427955.008 9 -17470235.17947  20922953.101    20922957.6714
  22747426.633   -14230178.553 8 -10812312.84646  22747426.135    22747431.8754
  21167615.917   -22659902.354 9 -16975572.77147  21167615.315    21167620.8004
  19892928.113   -27809250.574 9 -21434698.01548  19892927.313    19892932.7084
  23618397.497    -9236639.962 8  -6690740.94346  23618396.814    23618404.0614
 00  5  3  3 28 30.0000000  0  8 23 25 03 29 11 21 15 31
  24059482.271    -6976405.454 8  -5158034.54145  24059481.588    24059487.9924
  22206135.976   -17493572.606 8 -13379846.87547  22206135.732    22206141.2504
  24255971.797    -6870784.853 8  -4834991.98145  24255971.341    24255980.2464
  20932588.306   -23377322.838 9 -17430781.53647  20932588.081    20932592.6444
  22731082.918   -14316064.953 8 -10879237.24146  22731082.399    22731088.2184
  21171475.516   -22639619.789 9 -16959768.16047  21171474.913    21171480.3814
  19892040.581   -27813914.385 9 -21438332.13948  19892039.807    19892045.2054
  23630665.888    -9172169.464 8  -6640504.21146  23630665.221    23630672.4644
 00  5  3  3 29  0.0000000  0  8 23 25 03 29 11 21 15 31
  24071314.626    -6914225.951 8  -5109582.99345  24071313.916    24071320.3344
  22190198.984   -17577321.938 8 -13445106.02747  22190198.735    22190204.1934
  24272282.495    -6785071.752 8  -4768202.66145  24272282.059    24272291.0804
  20942269.812   -23326446.076 9 -17391137.29947  20942269.598    20942274.1564
  22714794.579   -14401660.661 8 -10945935.13746  22714794.076    22714799.8184
  21175377.869   -22619112.783 9 -16943788.65747  21175377.271    21175382.7404
  19891264.467   -27817992.944 9 -21441510.22348  19891263.685    19891269.0644
  23642986.193    -9107425.341 8  -6590054.27646  23642985.572    23642992.8984
 00  5  3  3 29 30.0000000  0  8 23 25 03 29 11 21 15 31
  24083168.968    -6851930.740 8  -5061041.28245  24083168.230    24083174.7404
  22174316.396   -17660785.137 9 -13510142.21247  22174316.170    22174321.5824
  24288591.492    -6699368.196 8  -4701420.78645  24288590.998    24288600.0634
  20951997.358   -23275327.391 9 -17351304.54647  20951997.124    20952001.7004
  22698561.848   -14486963.943 8 -11012405.16546  22698561.373    22698567.0754
  21179322.931   -22598381.301 9 -16927634.23747  21179322.340    21179327.7864
  19890599.671   -27821486.524 9 -21444232.47748  19890598.875    19890604.2684
  23655357.997    -9042411.441 8  -6539394.10746  23655357.326    23655364.6964
 00  5  3  3 30  0.0000000  0  8 23 25 03 29 11 21 15 31
  24095045.551    -6789518.493 8  -5012408.37945  24095044.897    24095051.4654
  22158488.957   -17743958.806 9 -13574952.79847  22158488.728    22158494.1104
  24304898.124    -6613676.095 7  -4634647.83445  24304897.619    24304906.8574
  20961770.707   -23223967.937 9 -17311284.18747  20961770.498    20961775.0604
  22682385.302   -14571971.782 8 -11078644.97446  22682384.822    22682390.6054
  21183310.920   -22577424.251 9 -16911304.05247  21183310.319    21183315.7634
  19890046.519   -27824393.295 9 -21446497.48648  19890045.718    19890051.1054
  23667780.596    -8977130.324 8  -6488525.72646  23667779.857    23667787.2684
 00  5  3  3 30 30.0000000  0  8 23 25 03 29 11 21 15 31
  24106944.712    -6726987.743 7  -4963683.14145  24106944.030    24106950.6414
  22142717.328   -17826838.964 8 -13639534.66947  22142717.066    22142722.4534
  24321202.377    -6527997.317 8  -4567885.26645  24321201.902    24321211.0344
  20971589.844   -23172368.196 9 -17271076.58547  20971589.631    20971594.1774
  22666265.721   -14656680.304 8 -11144651.54846  22666265.271    22666271.0804
  21187342.152   -22556239.966 9 -16894796.80247  21187341.549    21187347.0034
  19889605.347   -27826711.549 9 -21448303.90748  19889604.543    19889609.9194
  23680253.726    -8911583.401 8  -6437450.22545  23680252.992    23680260.4514
 00  5  3  3 31  0.0000000  0  8 23 25 03 29 11 21 15 31
  24118866.221    -6664339.645 8  -4914866.45645  24118865.597    24118872.0644
  22127001.715   -17909424.731 9 -13703887.14647  22127001.456    22127006.8564
  24337503.236    -6442335.981 7  -4501136.27245  24337502.658    24337512.0304
  20981454.017   -23120531.553 9 -17230684.38647  20981453.792    20981458.3344
  22650203.390   -14741088.561 8 -11210424.16246  22650202.941    22650208.6634
  21191416.590   -22534828.540 9 -16878112.56147  21191415.978    21191421.4374
  19889276.051   -27828441.883 9 -21449652.21448  19889275.271    19889280.6434
  23692776.683    -8845775.221 8  -6386171.15245  23692775.913    23692783.3694
 00  5  3  3 31 30.0000000  0  8 23 25 03 29 11 21 15 31
  24130810.234    -6601573.353 7  -4865957.66645  24130809.638    24130816.1414
  22111342.661   -17991713.373 9 -13768008.09647  22111342.416    22111347.7924
  24353800.457    -6356694.327 7  -4434402.64145  24353799.725    24353809.1314
  20991363.048   -23068459.332 9 -17190108.61847  20991362.822    20991367.3274
  22634198.669   -14825193.640 8 -11275960.53846  22634198.241    22634203.8374
  21195534.398   -22513189.230 9 -16861250.74747  21195533.807    21195539.2404
  19889058.871   -27829583.194 9 -21450541.53648  19889058.082    19889063.4624
  23705348.803    -8779708.169 8  -6334690.36245  23705348.039    23705355.5384
 00  5  3  3 32  0.0000000  0  8 23 25 03 29 11 21 15 31
  24142776.706    -6538688.897 7  -4816956.81845  24142776.054    24142782.6634
  22095740.522   -18073702.681 9 -13831895.80347  22095740.288    22095745.6534
  24370093.251    -6271075.549 8  -4367686.82645  24370092.585    24370101.8514
  21001316.455   -23016153.670 9 -17149350.95347  21001316.231    21001320.7424
  22618252.011   -14908993.621 8 -11341259.16246  22618251.580    22618257.1944
  21199695.725   -22491321.216 9 -16844210.72047  21199695.146    21199700.5654
  19888953.771   -27830135.405 9 -21450971.81948  19888952.984    19888958.3564
  23717969.484    -8713385.928 8  -6283010.72445  23717968.772    23717976.2784
 00  5  3  3 32 30.0000000  0  8 23 25 03 29 11 21 15 31
  24154765.915    -6475684.866 7  -4767862.79245  24154765.314    24154771.9704
  22080196.134   -18155388.933 9 -13895547.36147  22080195.858    22080201.2354
  24386381.343    -6185481.530 7  -4300990.29445  24386380.800    24386390.0374
  21011314.182   -22963615.247 9 -17108411.90947  21011313.960    21011318.4674
  22602364.232   -14992484.434 8 -11406316.88646  22602363.799    22602369.3564
  21203900.871   -22469222.937 9 -16826991.26947  21203900.285    21203905.7084
  19888961.160   -27830096.538 9 -21450941.52148  19888960.369    19888965.7374
  23730638.484    -8646809.899 8  -6231133.31945  23730637.802    23730645.2744
 00  5  3  3 33  0.0000000  0  8 23 25 03 29 11 21 15 31
  24166777.708    -6412563.089 7  -4718677.02245  24166777.088    24166783.6444
  22064709.406   -18236771.811 9 -13958962.52447  22064709.150    22064714.5174
  24402663.776    -6099917.216 7  -4234316.94545  24402663.227    24402672.3714
  21021355.448   -22910847.992 9 -17067294.56247  21021355.229    21021359.7334
  22586535.276   -15075665.876 8 -11471133.53746  22586534.818    22586540.3984
  21208149.702   -22446895.350 9 -16809593.13747  21208149.084    21208154.5124
  19889080.796   -27829467.793 9 -21450451.58248  19889079.997    19889085.3734
  23743354.788    -8579985.421 8  -6179062.34445  23743354.067    23743361.5334
 00  5  3  3 33 30.0000000  0  8 23 25 03 29 11 21 15 31
  24178812.236    -6349320.775 7  -4669397.33245  24178811.537    24178818.3014
  22049281.403   -18317846.194 9 -14022137.29847  22049281.160    22049286.5054
  24418940.401    -6014382.874 7  -4167666.93045  24418939.940    24418949.0754
  21031440.460   -22857851.024 9 -17025998.22047  21031440.237    21031444.7264
  22570766.101   -15158533.034 8 -11535705.29946  22570765.654    22570771.2564
  21212442.754   -22424335.102 9 -16792013.70947  21212442.152    21212447.5424
  19889313.268   -27828246.124 9 -21449499.62748  19889312.486    19889317.8564
  23756118.317    -8512912.846 8  -6126798.03745  23756117.602    23756125.1064
 00  5  3  3 34  0.0000000  0  8 23 25 03 29 11 21 15 31
  24190869.506    -6285959.353 7  -4620024.79445  24190868.711    24190875.5024
  22033912.216   -18398611.668 9 -14085071.37247  22033911.960    22033917.2854
  24435210.474    -5928883.251 7  -4101044.00145  24435210.066    24435219.3184
  21041568.379   -22804628.396 9 -16984526.03547  21041568.155    21041572.6474
  22555056.952   -15241085.198 8 -11600031.61746  22555056.469    22555062.0354
  21216779.842   -22401543.522 9 -16774254.02347  21216779.259    21216784.6234
  19889658.309   -27826432.793 9 -21448086.63548  19889657.537    19889662.8944
  23768928.116    -8445597.020 8  -6074344.16745  23768927.384    23768934.8834
 00  5  3  3 34 30.0000000  0  8 23 25 03 29 11 21 15 31
  24202949.761    -6222476.867 7  -4570557.93545  24202949.027    24202955.7384
  22018602.594   -18479063.911 9 -14147761.35847  22018602.349    22018607.6504
  24451473.906    -5843419.378 8  -4034448.92745  24451473.486    24451482.5914
  21051739.281   -22751179.945 9 -16942877.87647  21051739.064    21051743.5494
  22539408.482   -15323318.309 8 -11664109.30746  22539407.973    22539413.5634
  21221161.404   -22378518.187 9 -16756312.19247  21221160.806    21221166.2034
  19890116.386   -27824025.562 9 -21446210.85248  19890115.610    19890120.9514
  23781783.845    -8378039.330 8  -6021701.85145  23781783.164    23781790.7224
 00  5  3  3 35  0.0000000  0  8 23 25 03 29 11 21 15 31
  24215052.962    -6158874.328 7  -4520997.52445  24215052.098    24215058.8444
  22003352.781   -18559201.999 9 -14210206.55847  22003352.546    22003357.8254
  24467729.668    -5757995.504 8  -3967884.99345  24467729.244    24467738.3284
  21061952.580   -22697508.696 9 -16901056.11347  21061952.384    21061956.8604
  22523820.908   -15405231.065 8 -11727937.38146  22523820.394    22523826.0294
  21225587.358   -22355259.483 9 -16738188.51647  21225586.762    21225592.1644
  19890687.325   -27821025.310 9 -21443872.99148  19890686.544    19890691.8914
  23794684.869    -8310244.279 8  -5968874.58245  23794684.153    23794691.7364
 00  5  3  3 35 30.0000000  0  8 23 25 03 29 11 21 15 31
  24227179.063    -6095151.624 7  -4471343.46845  24227178.234    24227184.8754
  21988163.269   -18639023.266 9 -14272404.88547  21988163.032    21988168.3034
  24483977.142    -5672614.617 8  -3901354.57345  24483976.745    24483985.8194
  21072207.861   -22643616.802 9 -16859062.42047  21072207.644    21072212.1184
  22508294.810   -15486821.203 8 -11791514.06646  22508294.312    22508299.8634
  21230057.761   -22331767.368 9 -16719882.96047  21230057.127    21230062.5604
  19891371.174   -27817431.615 9 -21441072.70348  19891370.401    19891375.7474
  23807630.488    -8242214.862 8  -5915864.66845  23807629.681    23807637.3634
 00  5  3  3 36  0.0000000  0  8 23 25 03 29 11 21 15 31
  24239328.277    -6031307.295 7  -4421594.66445  24239327.533    24239334.1804
  21973034.616   -18718524.617 9 -14334353.92947  21973034.385    21973039.6444
  24500216.319    -5587278.062 7  -3834858.69345  24500215.933    24500225.1014
  21082505.022   -22589504.889 9 -16816897.28447  21082504.796    21082509.2704
  22492830.765   -15568085.225 8 -11854836.63746  22492830.228    22492835.7524
  21234572.942   -22308039.646 9 -16701393.81547  21234572.342    21234577.7584
  19892168.191   -27813243.062 9 -21437808.88648  19892167.409    19892172.7744
  23820620.178    -8173952.894 8  -5862673.56045  23820619.459    23820627.1684
 00  5  3  3 36 30.0000000  0  8 23 25 03 29 11 21 15 31
  24251500.641    -5967341.078 7  -4371750.87445  24251499.956    24251506.5254
  21957967.267   -18797703.646 9 -14396051.81347  21957967.046    21957972.3004
  24516446.533    -5501988.488 8  -3768399.42645  24516446.157    24516455.4204
  21092843.685   -22535174.790 9 -16774562.13547  21092843.468    21092847.9374
  22477429.209   -15649020.534 8 -11917903.06446  22477428.710    22477434.2454
  21239133.246   -22284075.082 9 -16682720.12047  21239132.654    21239138.0424
  19893078.562   -27808458.970 9 -21434081.01648  19893077.789    19893083.1454
  23833653.655    -8105461.738 8  -5809303.86245  23833652.985    23833660.6944
 00  5  3  3 37  0.0000000  0  8 23 25 03 29 11 21 15 31
  24263696.055    -5903253.990 8  -4321812.88545  24263695.283    24263701.9074
  21942961.559   -18876559.022 9 -14457497.50047  21942961.314    21942966.5564
  24532666.977    -5416750.313 8  -3701980.21245  24532666.487    24532675.7964
  21103223.270   -22480629.674 9 -16732059.43447  21103223.043    21103227.5324
  22462090.500   -15729625.847 8 -11980712.35546  22462090.019    22462095.4824
  21243738.378   -22259874.842 9 -16663862.78047  21243737.786    21243743.1774
  19894102.099   -27803080.253 9 -21429889.79748  19894101.320    19894106.6754
  23846729.893    -8036745.493 8  -5755758.76745  23846729.263    23846736.9964
 00  5  3  3 37 30.0000000  0  8 23 25 03 29 11 21 15 31
  24275914.927    -5839043.605 8  -4271778.82045  24275914.134    24275920.6504
  21928018.251   -18955086.400 9 -14518687.59947  21928017.989    21928023.2344
  24548877.514    -5331564.075 7  -3635601.48745  24548877.116    24548886.3164
  21113643.846   -22425869.021 9 -16689388.78247  21113643.629    21113648.1134
  22446815.417   -15809896.870 8 -12043261.16746  22446814.934    22446820.3504
  21248388.989   -22235435.714 9 -16644819.28947  21248388.397    21248393.7814
  19895239.264   -27797104.424 9 -21425233.29848  19895238.483    19895243.8454
  23859848.863    -7967804.984 8  -5702038.92445  23859848.171    23859855.9824
 00  5  3  3 38  0.0000000  0  8 23 25 03 29 11 21 15 31
  24288156.902    -5774711.772 8  -4221650.12645  24288156.169    24288162.5264
  21913137.462   -19033285.240 9 -14579621.70647  21913137.191    21913142.4114
  24565077.128    -5246434.630 8  -3569267.00045  24565076.681    24565086.0074
  21124104.746   -22370896.501 9 -16646553.03947  21124104.537    21124109.0264
  22431603.989   -15889833.019 8 -12105549.03446  22431603.494    22431608.9584
  21253084.784   -22210759.130 9 -16625590.77447  21253084.206    21253089.5444
  19896489.727   -27790533.122 9 -21420112.79648  19896488.947    19896494.3104
  23873009.468    -7898645.497 8  -5648148.43545  23873008.820    23873016.6214
 00  5  3  3 38 30.0000000  0  8 23 25 03 29 11 21 15 31
  24300422.324    -5710256.194 8  -4171424.99345  24300421.628    24300428.0854
  21898320.079   -19111150.940 9 -14640296.22247  21898319.819    21898325.0224
  24581265.831    -5161362.787 7  -3502977.42145  24581265.405    24581274.8904
  21134605.995   -22315712.069 9 -16603552.17647  21134605.777    21134610.2484
  22416457.156   -15969430.005 8 -12167572.61546  22416456.680    22416462.1364
  21257826.321   -22185842.216 9 -16606174.99147  21257825.744    21257831.0874
  19897853.984   -27783363.893 9 -21414526.38048  19897853.213    19897858.5584
  23886211.564    -7829268.041 8  -5594088.11645  23886210.940    23886218.7764
 00  5  3  3 39  0.0000000  0  8 23 25 03 29 11 21 15 31
  24312711.167    -5645678.377 8  -4121104.63245  24312710.511    24312716.8824
  21883566.091   -19188683.294 9 -14700710.98547  21883565.843    21883571.0414
  24597442.829    -5076352.976 7  -3436736.18445  24597442.254    24597451.8864
  21145146.897   -22260319.348 9 -16560389.00847  21145146.670    21145151.1394
  22401375.021   -16048687.091 8 -12229331.33946  22401374.511    22401379.9974
  21262613.328   -22160686.316 9 -16586572.98147  21262612.730    21262618.0614
  19899331.747   -27775598.111 9 -21408475.10948  19899330.970    19899336.3174
  23899454.310    -7759677.383 8  -5539861.65845  23899453.603    23899461.4534
 00  5  3  3 39 30.0000000  0  8 23 25 03 29 11 21 15 31
  24325023.576    -5580976.945 8  -4070687.94445  24325022.877    24325029.2534
  21868876.242   -19265878.877 9 -14760863.33047  21868875.982    21868881.1394
  24613607.669    -4991406.832 8  -3370544.56945  24613607.045    24613616.7244
  21155727.292   -22204719.014 9 -16517064.05747  21155727.055    21155731.5074
  22386358.229   -16127600.618 8 -12290822.36446  22386357.717    22386363.1594
  21267446.247   -22135289.277 9 -16566783.07447  21267445.654    21267450.9724
  19900923.329   -27767234.426 9 -21401957.94148  19900922.548    19900927.8714
  23912737.142    -7689875.531 8  -5485470.64645  23912736.447    23912744.3454
 00  5  3  3 40  0.0000000  0  8 23 25 03 29 11 21 15 31
  24337359.366    -5516151.937 8  -4020174.96945  24337358.677    24337365.0824
  21854250.829   -19342735.681 9 -14820751.69347  21854250.587    21854255.7114
  24629759.774    -4906527.531 8  -3304405.04445  24629759.302    24629768.9184
  21166346.843   -22148912.774 9 -16473578.66847  21166346.613    21166351.0614
  22371407.225   -16206168.345 8 -12352043.92546  22371406.757    22371412.1414
  21272325.151   -22109650.462 9 -16546804.76547  21272324.566    21272329.8514
  19902628.690   -27758272.812 9 -21394974.86048  19902627.897    19902633.2124
  23926059.666    -7619865.781 8  -5430917.62145  23926058.914    23926066.8064
 00  5  3  3 40 30.0000000  0  8 23 25 03 29 11 21 15 31
  24349718.725    -5451203.335 8  -3969565.68045  24349717.981    24349724.4374
  21839690.402   -19419251.113 9 -14880374.05747  21839690.157    21839695.2394
  24645898.633    -4821717.834 7  -3238319.74845  24645898.139    24645907.7964
  21177005.142   -22092902.920 9 -16429934.62147  21177004.915    21177009.3654
  22356522.486   -16284388.047 8 -12412994.30746  22356522.012    22356527.4264
  21277250.203   -22083769.047 9 -16526637.42647  21277249.617    21277254.9144
  19904447.813   -27748713.259 9 -21387525.85548  19904447.018    19904452.3174
  23939421.008    -7549651.261 8  -5376205.04645  23939420.334    23939428.1884
 00  5  3  3 41  0.0000000  0  8 23 25 03 29 11 21 15 31
  24362101.733    -5386130.151 8  -3918859.30845  24362100.968    24362107.4534
  21825195.458   -19495422.275 9 -14939728.15547  21825195.212    21825200.2954
  24662023.891    -4736979.747 7  -3172290.26645  24662023.356    24662033.0804
  21187702.015   -22036690.391 9 -16386132.63847  21187701.809    21187706.2404
  22341704.562   -16362256.834 8 -12473671.24646  22341704.080    22341709.4574
  21282221.567   -22057644.330 9 -16506280.49047  21282220.975    21282226.2694
  19906380.849   -27738554.930 9 -21379610.26948  19906380.070    19906385.3474
  23952820.960    -7479234.417 8  -5321334.81145  23952820.227    23952828.0954
 00  5  3  3 41 30.0000000  0  8 23 25 03 29 11 21 15 31
  24374508.438    -5320932.498 8  -3868055.96545  24374507.749    24374514.2664
  21810766.318   -19571247.714 9 -14998812.86747  21810766.061    21810771.1014
  24678134.927    -4652316.267 7  -3106318.93445  24678134.453    24678144.2124
  21198437.040   -21980277.398 9 -16342174.45847  21198436.828    21198441.2694
  22326953.804   -16439772.624 8 -12534073.12546  22326953.302    22326958.6644
  21287239.371   -22031275.670 9 -16485733.48247  21287238.771    21287244.0474
  19908427.850   -27727797.874 9 -21371228.14448  19908427.063    19908432.3374
  23966258.761    -7408618.605 8  -5266309.53545  23966258.064    23966265.8864
 00  5  3  3 42  0.0000000  0  8 23 25 03 29 11 21 15 31
  24386938.849    -5255610.348 8  -3817155.61345  24386938.213    24386944.7684
  21796403.331   -19646725.432 9 -15057626.62047  21796403.094    21796408.1364
  24694231.148    -4567730.570 7  -3040408.20445  24694230.729    24694240.5004
  21209209.827   -21923666.023 9 -16298061.68747  21209209.600    21209214.0434
  22312270.650   -16516932.999 8 -12594198.05046  22312270.137    22312275.4624
  21292303.645   -22004662.672 9 -16464996.07347  21292303.045    21292308.3034
  19910588.765   -27716442.170 9 -21362379.53448  19910587.967    19910593.2514
  23979733.829    -7337807.045 8  -5211131.74045  23979733.116    23979740.8994
 00  5  3  3 42 30.0000000  0  7 23 25 29 11 21 15 31
  24399393.639    -5190160.452 8  -3766155.73145  24399392.902    24399399.4974
  21782107.712   -19721849.352 9 -15116164.69147  21782107.481    21782112.4884
  21220020.630   -21866854.677 9 -16253793.10147  21220020.426    21220024.9004
  22297656.092   -16593732.464 8 -12654041.74446  22297655.605    22297660.9624
  21297415.221   -21977801.133 9 -16444064.99547  21297414.607    21297419.8674
  19912864.225   -27704484.571 9 -21353061.91648  19912863.422    19912868.7254
  23993246.110    -7266799.695 8  -5155801.37245  23993245.422    23993253.1534
 00  5  3  3 43  0.0000000  0  7 23 25 29 11 21 15 31
  24411872.318    -5124584.664 8  -3715057.73245  24411871.593    24411878.1514
  21767879.418   -19796619.306 9 -15174426.94847  21767879.161    21767884.1424
  21230868.791   -21809847.282 9 -16209371.74847  21230868.565    21230873.0294
  22283110.340   -16670170.873 8 -12713604.10546  22283109.864    22283115.1724
  21302573.745   -21950692.760 9 -16422941.58347  21302573.165    21302578.4464
  19915253.837   -27691926.946 9 -21343276.74948  19915253.047    19915258.3514
  24006794.601    -7195601.753 8  -5100322.47645  24006793.943    24006801.6764
 00  5  3  3 43 30.0000000  0  7 23 25 29 11 21 15 31
  24424374.684    -5058884.166 7  -3663862.55645  24424374.018    24424380.5014
  21753718.530   -19871035.047 9 -15232413.19347  21753718.274    21753723.2544
  21241753.647   -21752647.093 9 -16164800.16847  21241753.420    21241757.8534
  22268633.478   -16746247.514 8 -12772884.56546  22268632.937    22268638.2424
  21307779.089   -21923338.558 9 -16401626.61547  21307778.472    21307783.7634
  19917757.362   -27678770.768 9 -21333025.17448  19917756.594    19917761.8984
  24020378.465    -7124218.205 8  -5044698.95945  24020377.759    24020385.5524
 00  5  3  3 44  0.0000000  0  7 23 25 29 11 21 15 31
  24436900.885    -4993058.870 7  -3612570.14145  24436900.167    24436906.7404
  21739625.557   -19945094.004 9 -15290121.42947  21739625.311    21739630.2564
  21252674.798   -21695256.020 9 -16120079.85047  21252674.579    21252678.9854
  22254225.835   -16821959.778 8 -12831881.08546  22254225.301    22254230.6574
  21313031.414   -21895737.296 9 -16380119.13547  21313030.836    21313036.1254
  19920374.711   -27665016.418 9 -21322307.49848  19920373.932    19920379.2464
  24033997.153    -7052651.931 8  -4988933.07645  24033996.460    24034004.1634
 00  5  3  3 44 30.0000000  0  7 23 25 29 11 21 15 31
  24449450.903    -4927108.595 7  -3561180.34645  24449450.188    24449456.7464
  21725600.826   -20018794.135 9 -15347550.05447  21725600.600    21725605.5364
  21263632.003   -21637675.646 9 -16075212.01647  21263631.754    21263636.1764
  22239887.960   -16897305.315 8 -12890591.84946  22239887.476    22239892.8294
  21318330.748   -21867889.016 9 -16358419.17147  21318330.157    21318335.4704
  19923105.943   -27650663.690 9 -21311123.55448  19923105.151    19923110.4684
  24047650.005    -6980906.116 8  -4933027.27045  24047649.289    24047657.0144
 00  5  3  3 45  0.0000000  0  7 23 25 29 11 21 15 31
  24462025.049    -4861030.800 7  -3509691.16845  24462024.333    24462030.8004
  21711645.220   -20092130.999 9 -15404695.61547  21711644.991    21711649.9254
  21274625.253   -21579905.551 9 -16030196.34947  21274625.004    21274629.4464
  22225620.832   -16972279.615 8 -12949013.33447  22225620.343    22225625.6594
  21323677.786   -21839790.129 9 -16336523.92347  21323677.186    21323682.4954
  19925951.495   -27635710.087 9 -21299471.39248  19925950.711    19925956.0434
  24061336.775    -6908981.537 8  -4876982.19045  24061336.094    24061343.7654
 00  5  3  3 45 30.0000000  0  7 23 25 29 11 21 15 31
  24474623.153    -4794827.301 7  -3458104.05345  24474622.372    24474628.7754
  21697758.835   -20165104.326 9 -15461557.90047  21697758.604    21697763.5204
  21285653.934   -21521949.418 9 -15985035.72147  21285653.699    21285658.1314
  22211424.401   -17046882.321 8 -13007145.26947  22211423.882    22211429.2104
  21329072.291   -21811441.771 9 -16314434.28947  21329071.691    21329076.9934
  19928911.057   -27620157.536 9 -21287352.51548  19928910.282    19928915.6174
  24075056.738    -6836883.055 8  -4820801.58745  24075056.095    24075063.7154
 00  5  3  3 46  0.0000000  0  7 23 25 29 11 21 15 31
  24487245.548    -4728496.108 7  -3406417.45245  24487244.573    24487251.2484
  21683942.367   -20237710.185 9 -15518133.85247  21683942.139    21683947.0344
  21296718.008   -21463807.330 9 -15939730.19547  21296717.759    21296722.2004
  22197299.410   -17121109.244 8 -13064984.37847  22197298.930    22197304.2894
  21334514.691   -21782841.681 9 -16292148.50247  21334514.103    21334519.3824
  19931984.837   -27604004.620 9 -21274765.83048  19931984.045    19931989.3914
  24088809.472    -6764612.411 8  -4764486.83045  24088808.725    24088816.4114
 00  5  3  3 46 30.0000000  0  7 23 25 29 11 21 15 31
  24499892.083    -4662037.260 7  -3354631.35945  24499891.249    24499897.9324
  21670196.198   -20309946.617 9 -15574421.93647  21670195.956    21670200.8584
  21307817.144   -21405480.982 9 -15894281.08947  21307816.895    21307821.3104
  22183246.372   -17194958.221 8 -13122528.99347  22183245.889    22183251.2504
  21340005.061   -21753989.578 9 -16269666.33347  21340004.472    21340009.7864
  19935172.814   -27587251.715 9 -21261711.61548  19935172.028    19935177.3584
  24102594.295    -6692172.411 8  -4708040.11345  24102593.592    24102601.2544
